[[{"header":{"parameterUnit":"m.s-1","parameterCategory":1,"la1":30.6,"la2":29.2853,"lo1":-89.7004,"lo2":-87.6739,"dy":0.0162,"dx":0.0183,"nx":112,"ny":82,"refTime":"2024-02-17T06:00:00:Z","depth":0,"parameterNumber":2,"parameterNumberName":"U-component_of_WINDS"},"data":[0.0,0.0,0.0,0.0,0.0,0.0,0.0,0.0,0.0,0.0,0.0,0.0,0.0,0.0,0.0,0.0,0.0,0.0,0.0,0.0,0.0,0.0,0.0,0.0,0.0,0.0,0.0,0.0,0.0,0.0,0.0,0.0,0.0,0.0,0.0,0.0,0.0,0.0,0.0,0.0,0.0,0.0,0.0,0.0,0.0,0.0,0.0,0.0,0.0,0.0,0.0,0.0,0.0,0.0,0.0,0.0,0.0,0.0,0.0,0.0,0.0,0.0,0.0,0.0,0.0,0.0,0.0,0.0,0.0,0.0,0.0,0.0,0.0,0.0,0.0,0.0,0.0,0.0,0.0,0.0,0.0,0.0,0.0,0.0,0.0,0.0,0.0,0.0,0.0,0.0,-6.9831,-6.9964,-7.0063,-7.0394,-7.1024,-7.1057,-7.1355,-7.1951,0.0,0.0,0.0,0.0,0.0,0.0,0.0,0.0,0.0,0.0,0.0,0.0,0.0,0.0,0.0,0.0,0.0,0.0,0.0,0.0,0.0,0.0,0.0,0.0,0.0,0.0,0.0,0.0,0.0,0.0,0.0,0.0,0.0,0.0,0.0,0.0,0.0,0.0,0.0,0.0,0.0,0.0,0.0,0.0,0.0,0.0,0.0,0.0,0.0,0.0,0.0,0.0,0.0,0.0,0.0,0.0,0.0,0.0,0.0,0.0,0.0,0.0,0.0,0.0,0.0,0.0,0.0,0.0,0.0,0.0,0.0,0.0,0.0,0.0,0.0,0.0,0.0,0.0,0.0,0.0,0.0,0.0,0.0,0.0,0.0,0.0,0.0,0.0,0.0,0.0,0.0,0.0,0.0,0.0,0.0,0.0,0.0,0.0,0.0,0.0,0.0,0.0,0.0,0.0,-7.003,-7.0659,-7.1289,-7.172,-7.1819,-7.1819,-7.1885,-7.1985,0.0,0.0,0.0,0.0,0.0,0.0,0.0,0.0,0.0,0.0,0.0,0.0,0.0,0.0,0.0,0.0,0.0,0.0,0.0,0.0,0.0,0.0,0.0,0.0,0.0,0.0,0.0,0.0,0.0,0.0,0.0,0.0,0.0,0.0,0.0,0.0,0.0,0.0,0.0,0.0,0.0,0.0,0.0,0.0,0.0,0.0,0.0,0.0,0.0,0.0,0.0,0.0,0.0,0.0,0.0,0.0,0.0,0.0,0.0,0.0,0.0,0.0,0.0,0.0,0.0,0.0,0.0,0.0,0.0,0.0,0.0,0.0,0.0,0.0,0.0,0.0,0.0,0.0,0.0,0.0,0.0,0.0,0.0,0.0,0.0,0.0,0.0,0.0,0.0,0.0,0.0,0.0,0.0,0.0,0.0,0.0,0.0,0.0,0.0,0.0,0.0,0.0,0.0,-7.0991,-7.1123,-7.1455,-7.1786,-7.215,-7.2581,-7.2614,-7.278,-7.3144,-7.3177,0.0,0.0,0.0,0.0,0.0,0.0,0.0,0.0,0.0,0.0,0.0,0.0,0.0,0.0,0.0,0.0,0.0,0.0,0.0,0.0,0.0,0.0,0.0,0.0,0.0,0.0,0.0,0.0,0.0,0.0,0.0,0.0,0.0,0.0,0.0,0.0,0.0,0.0,0.0,0.0,0.0,0.0,0.0,0.0,0.0,0.0,0.0,0.0,0.0,0.0,0.0,0.0,0.0,0.0,0.0,0.0,0.0,0.0,0.0,0.0,0.0,0.0,0.0,0.0,0.0,0.0,0.0,0.0,0.0,0.0,0.0,0.0,0.0,0.0,0.0,0.0,0.0,0.0,0.0,0.0,0.0,0.0,0.0,0.0,0.0,0.0,0.0,0.0,0.0,0.0,0.0,0.0,0.0,0.0,0.0,0.0,0.0,0.0,0.0,0.0,0.0,0.0,-7.215,-7.2283,-7.2283,-7.2415,-7.2746,-7.331,-7.3376,-7.3575,-7.4188,-7.4221,0.0,0.0,0.0,0.0,0.0,0.0,0.0,0.0,0.0,0.0,0.0,0.0,0.0,0.0,0.0,0.0,0.0,0.0,0.0,0.0,0.0,0.0,0.0,0.0,0.0,0.0,0.0,0.0,0.0,0.0,0.0,0.0,0.0,0.0,0.0,0.0,0.0,0.0,0.0,0.0,0.0,0.0,0.0,0.0,0.0,0.0,0.0,0.0,0.0,0.0,0.0,0.0,0.0,0.0,0.0,0.0,0.0,0.0,0.0,0.0,0.0,0.0,0.0,0.0,0.0,0.0,0.0,0.0,0.0,0.0,0.0,0.0,0.0,0.0,0.0,0.0,0.0,0.0,0.0,0.0,0.0,0.0,0.0,0.0,0.0,0.0,0.0,0.0,0.0,0.0,0.0,0.0,0.0,0.0,0.0,0.0,0.0,0.0,0.0,0.0,0.0,0.0,-7.2614,-7.3045,-7.3045,-7.3641,-7.4089,-7.4105,-7.4105,-7.4155,-7.4221,-7.4221,0.0,0.0,0.0,0.0,0.0,0.0,0.0,0.0,0.0,0.0,0.0,0.0,0.0,0.0,0.0,0.0,0.0,0.0,0.0,0.0,0.0,0.0,0.0,0.0,0.0,0.0,0.0,0.0,0.0,0.0,0.0,0.0,0.0,0.0,0.0,0.0,0.0,0.0,0.0,0.0,0.0,0.0,0.0,0.0,0.0,0.0,0.0,0.0,0.0,0.0,0.0,0.0,0.0,0.0,0.0,0.0,0.0,0.0,0.0,0.0,0.0,0.0,0.0,0.0,0.0,0.0,0.0,0.0,0.0,0.0,0.0,0.0,0.0,0.0,0.0,0.0,0.0,0.0,0.0,0.0,0.0,0.0,0.0,0.0,0.0,0.0,0.0,0.0,0.0,0.0,0.0,0.0,0.0,0.0,0.0,0.0,0.0,0.0,0.0,0.0,0.0,0.0,-7.3608,-7.3773,-7.3773,-7.4005,-7.4221,-7.4221,-7.4221,-7.4221,-7.4221,0.0,0.0,0.0,0.0,0.0,0.0,0.0,0.0,0.0,0.0,0.0,0.0,0.0,0.0,0.0,0.0,0.0,0.0,0.0,0.0,0.0,0.0,0.0,0.0,0.0,0.0,0.0,0.0,0.0,0.0,0.0,0.0,0.0,0.0,0.0,0.0,0.0,0.0,0.0,0.0,0.0,0.0,0.0,0.0,0.0,0.0,0.0,0.0,0.0,0.0,0.0,0.0,0.0,0.0,0.0,0.0,0.0,0.0,0.0,0.0,0.0,0.0,0.0,0.0,0.0,0.0,0.0,0.0,0.0,0.0,0.0,0.0,0.0,0.0,0.0,0.0,0.0,0.0,0.0,0.0,0.0,0.0,0.0,0.0,0.0,0.0,0.0,0.0,0.0,0.0,0.0,0.0,0.0,0.0,0.0,0.0,0.0,0.0,0.0,0.0,0.0,0.0,-7.4155,-7.4221,-7.4221,-7.4221,-7.4221,-7.4221,-7.4221,-7.4221,-7.4221,-7.4221,0.0,0.0,0.0,0.0,0.0,0.0,0.0,0.0,0.0,0.0,0.0,0.0,0.0,0.0,0.0,0.0,0.0,0.0,0.0,0.0,0.0,0.0,0.0,0.0,0.0,0.0,0.0,0.0,0.0,0.0,0.0,0.0,0.0,0.0,0.0,0.0,0.0,0.0,0.0,0.0,0.0,0.0,0.0,0.0,0.0,0.0,0.0,0.0,0.0,0.0,0.0,0.0,0.0,0.0,0.0,0.0,0.0,0.0,0.0,0.0,0.0,0.0,0.0,0.0,0.0,0.0,0.0,0.0,0.0,0.0,0.0,0.0,0.0,0.0,0.0,0.0,0.0,0.0,0.0,0.0,0.0,0.0,0.0,0.0,0.0,0.0,0.0,0.0,0.0,0.0,0.0,0.0,0.0,0.0,0.0,0.0,0.0,0.0,0.0,0.0,0.0,0.0,-7.4221,-7.4221,-7.4221,-7.4221,-7.4221,-7.4221,-7.4221,-7.4221,-7.4221,0.0,0.0,0.0,0.0,0.0,0.0,0.0,0.0,0.0,0.0,0.0,0.0,0.0,0.0,0.0,0.0,0.0,0.0,0.0,0.0,0.0,0.0,0.0,0.0,0.0,0.0,0.0,0.0,0.0,0.0,0.0,0.0,0.0,0.0,0.0,0.0,0.0,0.0,0.0,0.0,0.0,0.0,0.0,0.0,0.0,0.0,0.0,0.0,0.0,0.0,0.0,0.0,0.0,0.0,0.0,0.0,0.0,0.0,0.0,0.0,0.0,0.0,0.0,0.0,0.0,0.0,0.0,0.0,0.0,0.0,0.0,0.0,0.0,0.0,0.0,0.0,0.0,0.0,0.0,0.0,0.0,0.0,0.0,0.0,0.0,0.0,0.0,0.0,0.0,0.0,0.0,0.0,0.0,0.0,0.0,0.0,0.0,0.0,0.0,0.0,0.0,0.0,0.0,-7.4221,-7.4221,-7.4221,-7.4221,-7.4221,-7.4221,-7.4221,-7.4221,-7.4221,-7.4221,0.0,0.0,0.0,0.0,0.0,0.0,0.0,0.0,0.0,0.0,0.0,0.0,0.0,0.0,0.0,0.0,0.0,0.0,0.0,0.0,0.0,0.0,0.0,0.0,0.0,0.0,0.0,0.0,0.0,0.0,0.0,0.0,0.0,0.0,0.0,0.0,0.0,0.0,0.0,0.0,0.0,0.0,0.0,0.0,0.0,0.0,0.0,0.0,0.0,0.0,0.0,0.0,0.0,0.0,0.0,0.0,0.0,0.0,0.0,0.0,0.0,0.0,0.0,0.0,0.0,0.0,0.0,0.0,0.0,0.0,0.0,0.0,0.0,0.0,0.0,0.0,0.0,0.0,0.0,0.0,0.0,0.0,0.0,0.0,0.0,0.0,0.0,0.0,0.0,0.0,0.0,0.0,0.0,0.0,0.0,0.0,0.0,0.0,0.0,0.0,0.0,0.0,-7.3492,-7.3044,-7.2782,-7.2782,-7.3201,-7.3492,-7.3492,-7.3935,-7.4221,-7.4221,0.0,0.0,0.0,0.0,0.0,0.0,0.0,0.0,0.0,0.0,0.0,0.0,0.0,0.0,0.0,0.0,0.0,0.0,0.0,0.0,0.0,0.0,0.0,0.0,0.0,0.0,0.0,0.0,0.0,0.0,0.0,0.0,0.0,0.0,0.0,0.0,0.0,0.0,0.0,0.0,0.0,0.0,0.0,0.0,0.0,0.0,0.0,0.0,0.0,0.0,0.0,0.0,0.0,0.0,0.0,0.0,0.0,0.0,0.0,0.0,0.0,0.0,0.0,0.0,0.0,0.0,0.0,0.0,0.0,0.0,0.0,0.0,0.0,0.0,0.0,0.0,0.0,0.0,0.0,0.0,0.0,0.0,0.0,0.0,0.0,0.0,0.0,0.0,0.0,0.0,0.0,0.0,0.0,0.0,0.0,0.0,0.0,0.0,0.0,0.0,0.0,0.0,-7.2379,-7.1429,-7.0767,-7.0767,-7.1842,-7.2485,-7.2379,-7.3492,-7.4171,-7.407,0.0,0.0,0.0,0.0,0.0,0.0,0.0,0.0,0.0,0.0,0.0,0.0,0.0,0.0,0.0,0.0,0.0,0.0,0.0,0.0,0.0,0.0,0.0,0.0,0.0,0.0,0.0,0.0,0.0,0.0,0.0,0.0,0.0,0.0,0.0,0.0,0.0,0.0,0.0,0.0,0.0,0.0,0.0,0.0,0.0,0.0,0.0,0.0,0.0,0.0,0.0,0.0,0.0,0.0,0.0,0.0,0.0,0.0,0.0,0.0,-6.8994,-6.8994,0.0,0.0,0.0,0.0,0.0,0.0,0.0,0.0,0.0,0.0,0.0,0.0,0.0,0.0,0.0,0.0,0.0,0.0,0.0,0.0,0.0,0.0,0.0,0.0,0.0,0.0,0.0,0.0,0.0,0.0,0.0,0.0,0.0,0.0,0.0,0.0,0.0,0.0,0.0,0.0,-7.2379,-7.2165,-7.2004,-7.2004,-7.3096,-7.3441,-7.2485,-7.3492,-7.3782,-7.2835,-7.3646,0.0,0.0,0.0,0.0,0.0,0.0,0.0,0.0,0.0,0.0,0.0,0.0,0.0,0.0,0.0,0.0,0.0,0.0,0.0,0.0,0.0,0.0,0.0,0.0,0.0,0.0,0.0,0.0,0.0,0.0,0.0,0.0,0.0,0.0,0.0,0.0,0.0,0.0,0.0,0.0,0.0,0.0,0.0,0.0,0.0,0.0,0.0,0.0,0.0,0.0,0.0,0.0,0.0,0.0,0.0,0.0,0.0,0.0,0.0,-6.9382,-6.8945,0.0,0.0,0.0,0.0,0.0,0.0,0.0,0.0,0.0,0.0,0.0,0.0,0.0,0.0,0.0,0.0,0.0,0.0,0.0,0.0,0.0,0.0,0.0,0.0,0.0,0.0,0.0,0.0,0.0,0.0,0.0,0.0,0.0,0.0,0.0,0.0,0.0,0.0,0.0,0.0,-7.1538,-7.1044,-7.0456,-6.9865,-7.1429,-7.1972,-7.0735,-7.2325,-7.2835,-7.1593,-7.2676,0.0,0.0,0.0,0.0,0.0,0.0,0.0,0.0,0.0,0.0,0.0,0.0,0.0,0.0,0.0,0.0,0.0,0.0,0.0,0.0,0.0,0.0,0.0,0.0,0.0,0.0,0.0,0.0,0.0,0.0,0.0,0.0,0.0,0.0,0.0,0.0,0.0,0.0,0.0,0.0,0.0,0.0,0.0,0.0,0.0,0.0,0.0,0.0,0.0,0.0,0.0,0.0,0.0,-6.7109,-6.7644,-6.9091,-6.8501,-6.8748,-6.9655,-6.9655,-6.8945,-6.7848,-6.8129,0.0,0.0,0.0,0.0,0.0,0.0,0.0,0.0,0.0,0.0,0.0,0.0,0.0,0.0,0.0,0.0,0.0,0.0,0.0,0.0,0.0,0.0,-6.7427,-6.7427,-6.6725,-6.6355,-6.7244,0.0,0.0,0.0,0.0,0.0,0.0,0.0,0.0,0.0,0.0,0.0,-7.0318,-6.9406,-6.8444,-6.7427,-6.9463,-7.0431,-6.9232,-7.1319,-7.2111,-7.0711,-7.195,-7.2538,0.0,0.0,0.0,0.0,0.0,0.0,0.0,0.0,0.0,0.0,0.0,0.0,0.0,0.0,0.0,0.0,0.0,0.0,0.0,0.0,0.0,0.0,0.0,0.0,0.0,0.0,0.0,0.0,0.0,0.0,0.0,0.0,-6.0741,-6.3564,0.0,0.0,0.0,0.0,0.0,0.0,0.0,0.0,0.0,0.0,0.0,0.0,0.0,-6.7057,-6.6586,-6.7491,-6.8,-6.8101,-6.8,-6.86,-6.9655,-6.8649,-6.855,-6.9091,-6.9091,0.0,-6.9448,-6.8696,0.0,0.0,0.0,0.0,0.0,0.0,0.0,0.0,0.0,0.0,0.0,0.0,0.0,0.0,0.0,0.0,0.0,0.0,0.0,0.0,0.0,0.0,-6.5348,-6.5348,-6.5285,-6.5222,-6.5348,-6.6693,-6.8029,-6.8446,-6.8386,-6.9031,0.0,0.0,0.0,0.0,0.0,0.0,-6.9174,-6.8883,-6.8707,-6.8562,-7.0679,-7.1647,-7.0487,-7.2591,-7.2992,-7.0767,-7.2729,-7.3044,-7.0933,-7.181,0.0,0.0,0.0,0.0,0.0,0.0,0.0,0.0,0.0,0.0,0.0,0.0,0.0,0.0,0.0,0.0,0.0,0.0,0.0,0.0,0.0,0.0,0.0,0.0,0.0,0.0,0.0,0.0,0.0,-6.1233,-6.2862,-6.4119,-6.5014,-6.5656,0.0,0.0,0.0,0.0,0.0,0.0,0.0,0.0,0.0,-6.6617,-6.6796,-6.6849,-6.6617,-6.7057,-6.7593,-6.8201,-6.7899,-6.8301,-6.9334,-6.8847,-6.86,-6.8583,-6.8974,-6.9468,-6.9943,-6.9159,-6.9102,-6.9532,0.0,0.0,0.0,0.0,-7.0789,-7.0789,-7.0789,-7.0789,-7.0789,-7.0789,0.0,0.0,0.0,0.0,0.0,0.0,0.0,-6.7668,-6.6634,-6.6106,-6.5635,-6.5094,-6.4996,-6.4996,-6.4996,-6.5853,-6.6693,-6.7214,-6.7728,-6.8766,-7.0878,-7.0989,0.0,0.0,0.0,-7.0655,-7.0791,-7.0791,-7.0568,-6.9865,-7.1374,-7.195,-7.0711,-7.1538,-7.1429,-6.9693,-7.121,-7.1374,-6.9693,-7.0767,-7.1374,0.0,0.0,0.0,0.0,0.0,0.0,0.0,0.0,0.0,0.0,0.0,0.0,0.0,0.0,0.0,0.0,0.0,0.0,0.0,0.0,0.0,0.0,0.0,0.0,0.0,0.0,0.0,0.0,-6.2042,-6.3609,-6.4127,-6.4979,-6.5646,0.0,0.0,0.0,0.0,0.0,0.0,-6.6565,-6.6617,-6.6617,-6.6617,-6.6744,-6.6796,-6.6796,-6.6953,-6.7491,-6.8401,-6.7848,-6.8151,-6.9188,-6.8797,-6.8501,-6.8434,-6.8997,-6.952,-6.9918,-6.9517,-6.9649,-7.0122,-6.9983,-7.0315,-7.0789,-7.0789,-7.0789,-7.0789,-7.0789,-7.0789,-7.0789,-7.0789,-7.0645,-7.0363,-7.0135,0.0,0.0,0.0,0.0,-6.7608,-6.6355,-6.6044,-6.5919,-6.5446,-6.5158,-6.506,-6.5285,-6.5412,-6.5635,-6.6106,-6.7123,-6.85,-7.0456,-7.0487,0.0,-7.2992,-7.1484,-7.0375,-7.0933,-7.1044,-7.0655,-6.9751,-7.0767,-7.1265,-7.0655,-7.0878,-7.0711,-6.9776,-7.0599,-7.0375,-6.8825,-6.9693,-7.0149,-7.0149,0.0,0.0,0.0,0.0,0.0,0.0,0.0,0.0,0.0,0.0,0.0,0.0,0.0,0.0,0.0,0.0,0.0,0.0,0.0,0.0,0.0,0.0,0.0,0.0,0.0,0.0,0.0,0.0,0.0,-6.3637,-6.3159,0.0,0.0,0.0,0.0,-6.5289,-6.6023,-6.6533,-6.6617,-6.6617,-6.6617,-6.6617,-6.7109,-6.7368,-6.7368,-6.7848,-6.8401,-6.8945,-6.8401,-6.8699,-6.9703,-6.8201,-6.8,-6.8977,-6.9231,-6.9401,-6.95,-6.9632,-7.033,-7.1261,-7.0885,-7.0757,-7.0789,-7.0789,-7.0789,-7.0789,-7.0789,-7.0789,-7.0789,-7.0789,-7.0161,-6.9209,-6.8327,-6.8623,0.0,0.0,-6.7153,-6.7487,-6.5538,-6.5031,-6.5285,-6.6106,-6.5635,-6.5222,-6.6168,-6.5886,-6.5538,-6.5538,-6.6322,-6.7668,-6.9776,0.0,-6.9605,-7.0655,-6.9693,-6.8503,-6.7427,-6.7274,-6.7274,-6.7213,-6.8266,-6.9406,-7.0487,-7.1647,-7.2272,-7.2219,-7.2272,-7.1265,-6.8883,-6.8825,-6.8883,-6.8883,-6.8883,0.0,0.0,0.0,0.0,0.0,0.0,0.0,0.0,0.0,0.0,0.0,0.0,0.0,0.0,0.0,0.0,0.0,0.0,0.0,0.0,0.0,0.0,0.0,0.0,0.0,0.0,0.0,0.0,-6.3754,-6.3588,0.0,-6.3872,-6.3645,-6.3928,-6.5125,-6.5016,-6.5344,-6.6565,-6.6617,-6.6617,-6.6617,-6.6796,-6.6901,-6.6901,-6.7388,-6.7949,-6.8501,-6.8649,-6.8748,-6.8797,-6.8896,-6.8861,-6.8742,-6.9607,-7.0474,-7.1272,-7.0645,-7.0656,-7.1018,-7.0862,-7.0789,-7.0789,-7.0789,-7.0789,-7.0789,-7.0789,-7.0789,-7.0789,-7.0789,-7.0104,-6.9267,-6.8886,-6.8592,-6.8118,-6.6757,-6.6663,-6.6663,-6.5348,-6.4996,-6.5094,-6.5383,-6.5222,-6.5094,-6.5475,-6.5538,-6.5475,-6.5475,-6.6103,-6.7122,-6.8707,-6.8325,-6.8444,-7.0318,-6.9579,-6.8942,-6.9232,-6.9321,-6.9321,-6.9321,-6.9693,-7.0149,-7.0543,-7.0318,-7.0061,-7.0061,-7.0061,-6.9348,-6.7729,-6.8384,-6.8444,-6.7668,-6.7668,-6.7819,0.0,0.0,0.0,0.0,0.0,0.0,0.0,0.0,0.0,0.0,0.0,0.0,0.0,0.0,0.0,0.0,0.0,0.0,0.0,0.0,0.0,0.0,0.0,0.0,0.0,-6.1953,-6.2538,-6.33,-6.3418,-6.3418,-6.3418,-6.3418,-6.3759,-6.4654,-6.4795,-6.5344,-6.6565,-6.6617,-6.6638,-6.6849,-6.6691,-6.6744,-6.7161,-6.7285,-6.7644,-6.8201,-6.8748,-6.8797,-6.8501,-6.9451,-6.9468,-6.882,-7.0325,-7.1246,-7.1714,-7.1464,-7.1258,-7.1037,-7.0901,-7.0789,-7.0789,-7.0789,-7.0789,-7.0789,-7.0789,-7.0789,-7.0733,-7.0419,-6.9844,-6.9178,-6.8533,-6.8118,-6.7608,-6.6293,-6.6168,-6.6168,-6.5222,-6.4996,-6.5094,-6.5412,-6.5222,-6.5124,-6.5383,-6.5412,-6.5412,-6.5601,-6.629,-6.7122,-6.8116,-6.7759,-6.8058,-7.0262,-6.9232,-6.8621,-6.9865,-6.9636,-6.9348,-6.9348,-6.9348,-6.9521,-6.9979,-6.9854,-6.9654,-6.9406,-6.9623,-6.9161,-6.7668,-6.8211,-6.8211,-6.7608,-6.7487,-6.7305,-6.6999,0.0,0.0,0.0,0.0,0.0,0.0,0.0,0.0,0.0,0.0,0.0,0.0,0.0,0.0,0.0,0.0,0.0,0.0,0.0,0.0,0.0,0.0,0.0,-6.1518,-6.1292,-6.1523,-6.235,-6.2467,-6.2467,-6.2467,-6.404,-6.4795,-6.3984,-6.5538,-6.6565,-6.6617,-6.6617,-6.688,-6.7368,-6.6849,-6.7109,-6.8183,-6.7676,-6.7727,-6.8234,-6.8781,-6.9026,-6.9092,-6.9813,-6.9808,-6.9399,-7.1444,-7.1701,-7.0759,-7.2004,-7.21,-7.1525,-7.1037,-7.0789,-7.0789,-7.0789,-7.0789,-7.0789,-7.0789,-7.0789,-7.0589,-6.9614,-6.9267,-6.8886,-6.7001,-6.7092,-6.7487,-6.5601,-6.5698,-6.6168,-6.5222,-6.4996,-6.5222,-6.6168,-6.5635,-6.5222,-6.6168,-6.5635,-6.5187,-6.5882,-6.6723,-6.7517,-6.8176,-6.8058,-6.8474,-7.0205,-6.8533,0.0,-6.8621,-6.7729,-6.6999,-6.706,-6.706,-6.7578,-6.8738,-7.0579,-7.1301,-7.0582,-7.1206,-7.0699,-6.8828,-6.8243,-6.8212,-6.8738,-6.8413,-6.7848,-6.706,0.0,0.0,0.0,0.0,0.0,0.0,0.0,0.0,0.0,0.0,0.0,0.0,0.0,0.0,0.0,0.0,0.0,0.0,0.0,0.0,0.0,-6.0821,-6.1261,-6.1261,-6.1257,-6.1313,-6.1523,-6.1583,-6.1583,-6.1583,-6.2584,-6.3418,-6.3872,-6.4961,-6.5862,-6.6533,-6.6617,-6.686,-6.7494,-6.6944,-6.6997,-6.7758,-6.7901,-6.8309,-6.9029,-6.9928,-7.019,-6.9979,-7.1045,-7.1256,-7.0876,-7.1784,-7.2377,-7.2502,-7.2058,-7.1743,-7.1525,-7.1037,-7.0789,-7.0789,-7.0789,-7.0789,-7.0789,-7.0789,-7.0331,-6.9672,-6.9383,-6.8356,-6.7245,-6.7457,-6.7153,-6.6725,-6.6168,-6.6231,-6.6168,-6.5222,-6.4996,-6.506,-6.5348,-6.5158,-6.5031,-6.5348,-6.5158,-6.5187,-6.5882,-6.6195,-6.66,-6.7244,-6.7335,-6.7396,-6.7909,-6.7427,-6.7091,-6.7427,-6.7213,-6.7577,-6.8968,-6.9119,-6.9238,-6.9564,-7.0103,-6.9898,-6.8789,-6.8911,-6.8759,-6.8211,-6.8114,-6.7843,-6.7517,-6.7427,-6.7638,0.0,0.0,0.0,0.0,0.0,0.0,0.0,0.0,0.0,0.0,0.0,0.0,0.0,0.0,0.0,0.0,0.0,0.0,0.0,0.0,0.0,0.0,-6.0932,-6.1193,-6.1193,-6.1193,-6.1193,-6.1193,-6.1523,-6.1732,-6.1732,-6.2584,-6.3475,-6.4376,-6.4906,-6.574,-6.6943,-6.7028,-6.7451,-6.8383,-6.7482,-6.7557,-6.8754,-6.8672,-6.8909,-6.9382,-7.0733,-7.1012,-7.0358,-7.1786,-7.2231,-7.174,-7.2377,-7.2769,-7.29,-7.196,-7.158,-7.1525,0.0,0.0,0.0,0.0,-7.0789,-7.0789,-7.0789,-7.0419,-6.9933,-6.9933,-6.8886,-6.7668,-6.7849,-6.7214,-6.6355,-6.5919,-6.5794,-6.5698,-6.5158,-6.4996,-6.4996,-6.4996,-6.4996,-6.506,-6.5187,-6.5124,-6.5251,-6.607,-6.607,0.0,-6.6876,-6.6999,-6.7152,-6.7668,-6.7335,-6.7152,-6.7729,-6.7576,-6.7846,-6.8941,-6.9397,-6.9489,-6.9489,-7.0249,0.0,0.0,0.0,-6.939,-6.8887,-6.9056,0.0,0.0,0.0,-6.8485,-6.8638,-6.759,0.0,0.0,-6.5948,-6.5739,0.0,0.0,0.0,0.0,0.0,0.0,0.0,0.0,0.0,0.0,0.0,0.0,0.0,0.0,0.0,0.0,-6.1193,-6.1193,-6.1193,-6.1193,-6.1193,-6.1193,-6.185,-6.235,-6.235,-6.3189,-6.4127,-6.5108,-6.5249,-6.6051,-6.7638,-6.7723,0.0,0.0,0.0,-6.8575,-7.0299,-6.9723,-6.9517,-6.9755,-7.1287,-7.1521,-7.0617,-7.2327,-7.2725,-7.2162,-7.2971,-7.3005,-7.2455,-7.1884,-7.158,-7.147,-7.0981,-7.0789,-7.0789,-7.0789,-7.0789,-7.0789,-7.0789,0.0,0.0,-7.0645,-6.999,-6.8976,-6.8148,-6.7275,-6.6355,-6.5383,-6.5158,-6.5094,-6.506,-6.4996,-6.4996,-6.4996,-6.506,-6.5124,-6.5412,-6.5222,-6.5314,-6.6346,-6.6313,-6.6343,-6.7085,-6.7148,-6.7486,-6.8566,-6.785,-6.7607,-6.8658,-6.8394,-6.8168,-6.8415,-6.8985,0.0,-6.9346,-7.083,-7.1045,-6.9217,-7.0675,-7.1134,-7.0025,-7.0401,-7.0371,-6.9935,-7.003,-6.951,-6.8373,-6.7988,-6.7372,-6.6528,-6.6231,-6.5815,0.0,0.0,0.0,0.0,0.0,0.0,0.0,0.0,0.0,0.0,0.0,0.0,0.0,0.0,0.0,-6.1019,-6.1193,-6.1193,-6.1193,-6.1193,-6.1193,-6.1193,-6.1373,-6.1464,-6.1464,-6.2233,-6.3342,-6.4858,-6.5651,-6.6768,-6.8396,-6.8482,-6.9069,-7.0364,-6.9155,-6.9124,-7.0525,-7.026,-7.0416,-7.1043,-7.1803,0.0,-7.2087,-7.29,-7.2724,-7.1767,-7.2854,-7.3005,-7.2455,-7.1884,-7.1337,-7.0925,-7.0845,-7.0789,-7.0789,-7.0789,-7.0789,-7.0789,-7.0789,-7.0306,-6.9614,-6.9614,-6.8976,-6.8148,-6.7969,-6.7789,0.0,-6.6417,-6.6106,-6.5919,-6.5222,-6.4996,-6.4996,-6.4996,-6.5222,-6.5348,-6.5158,-6.5222,-6.5714,-6.6686,-6.6867,-6.7204,-6.8399,-6.8136,-6.7901,-6.8118,-6.8443,-6.874,-6.896,-6.8893,-6.9414,-7.0893,-7.12,-7.1261,-7.1261,-7.1599,-7.1229,-6.9909,-7.0157,-7.028,-6.9991,-6.9586,-6.9286,-6.9183,-6.8877,-6.8691,-6.8373,-6.7824,-6.7442,-6.723,-6.6622,-6.5845,0.0,0.0,0.0,0.0,0.0,0.0,0.0,0.0,0.0,0.0,0.0,-5.8116,-5.9103,0.0,-6.0061,-6.1048,-6.1193,-6.1193,-6.1193,-6.1193,-6.1193,-6.1193,-6.1193,-6.1373,-6.1791,-6.2617,-6.3792,-6.5499,-6.6062,-6.7051,-6.8617,-6.8988,-6.95,-7.0122,-6.9804,-7.0234,-7.1531,-7.1108,-7.1337,-7.2346,-7.2915,-7.3112,-7.29,-7.3473,-7.3422,-7.292,-7.3181,-7.3005,-7.2455,-7.1557,-7.1037,-7.0845,-7.1092,-7.1037,-7.0789,-7.0789,-7.0789,-7.0789,-7.0789,-7.0476,-7.0047,-7.0047,-6.9383,-6.8505,-6.8029,-6.7517,-6.697,-6.5981,-6.5698,-6.5572,-6.5094,-6.4996,-6.4996,-6.4996,-6.5124,-6.5309,-6.563,-6.5845,-6.6368,-6.7462,-6.7707,-6.8016,-6.8881,-6.8974,-6.8854,-6.8525,-6.8794,-6.9004,-6.9004,-6.9273,-6.9856,-7.0791,-7.1188,-7.137,-7.137,-7.137,-7.1084,-7.0504,-7.044,-7.044,-7.044,-7.0141,-6.9897,-6.9704,-6.9481,-6.9222,-6.8831,-6.8503,-6.8093,-6.764,-6.732,-6.6759,0.0,0.0,0.0,0.0,0.0,0.0,0.0,0.0,-5.7303,-5.7303,-5.7826,-5.8493,-5.919,-5.98,-6.0409,-6.1077,-6.1193,-6.1193,-6.1193,-6.1193,-6.1193,-6.1193,-6.1253,-6.1552,-6.2352,-6.3032,-6.4272,-6.6431,-6.641,-6.7234,-6.9355,-6.9649,-6.9935,-7.0203,-7.0726,-7.1499,-7.2508,-7.1893,-7.2209,-7.3285,-7.3679,-7.3628,-7.3129,-7.3731,-7.3884,-7.3679,-7.3422,-7.29,-7.2133,-7.1424,-7.1013,-7.0845,-7.1282,-7.1171,-7.0845,-7.0925,-7.0869,-7.0789,-7.0789,-7.0645,-7.0532,-7.0532,-6.9818,-6.8917,-6.8148,-6.7336,-6.6478,-6.5509,-6.5285,-6.5222,-6.506,-6.4996,-6.4996,-6.4996,-6.5147,-6.5507,-6.6259,-6.6622,-6.7107,-6.8368,-6.8644,-6.8832,-6.9269,-6.9812,-6.9931,-6.9303,-6.9303,-6.9363,-6.9363,-6.9842,-7.0171,-7.0171,-7.062,-7.0889,-7.0889,-7.0889,-7.0889,-7.0889,-7.0889,-7.0889,-7.0889,-7.0854,-7.0658,-7.0397,-7.0265,-6.9869,-6.927,-6.9203,-6.8806,-6.8073,-6.8073,-6.7638,-5.7303,-5.7303,0.0,-5.7303,-5.7303,-5.7303,0.0,0.0,-5.7303,-5.7303,-5.7826,-5.8493,-5.919,-5.98,-6.0409,-6.1077,-6.1193,-6.1193,-6.1193,-6.1193,-6.1193,-6.1193,-6.1404,-6.1698,-6.2101,-6.2489,-6.41,-6.7354,-6.6613,-6.7776,-7.1864,-7.1092,-7.1006,-7.2133,-7.2272,-7.2358,-7.2508,-7.2411,-7.2676,-7.3318,-7.29,-7.2635,-7.2615,-7.3162,-7.2867,-7.196,-7.2867,-7.2422,-7.1037,-7.197,-7.1698,-7.0789,-7.0901,-7.0813,-7.0845,-7.1337,-7.1171,-7.0789,-7.0789,-7.0218,-6.9499,-6.9499,-6.8858,-6.8029,-6.7909,-6.7849,-6.7517,-6.654,-6.6201,-6.6044,-6.5222,-6.4996,-6.4996,-6.4996,-6.5659,-6.6289,-6.644,-6.7166,-6.8012,-6.9114,-6.9327,-6.9665,-7.0525,-7.0739,-7.059,-6.9961,-7.035,-7.0679,-7.0679,-7.0739,-7.0799,-7.0799,-7.0859,-7.0889,-7.0889,-7.0889,-7.0889,-7.0889,-7.0889,-7.0889,-7.0889,-7.0629,-7.0462,-7.0397,-6.9737,-6.9404,-6.927,-6.903,-6.8799,-6.8712,-6.8712,-6.8044,-5.7303,0.0,0.0,0.0,-5.7416,-5.7528,-5.736,-5.7303,-5.7303,-5.7303,-5.7826,-5.8493,-5.919,-5.98,-6.0409,0.0,-6.1193,-6.1193,-6.1193,-6.1193,-6.1253,-6.1404,-6.1904,-6.2166,-6.2125,-6.3713,-6.5168,-6.6122,-6.7399,-6.8789,-7.0148,-7.0518,-7.1045,-7.1828,-7.1929,-7.2315,-7.2952,-7.2668,-7.2952,-7.3833,-7.3266,-7.3162,-7.3506,-7.337,-7.3233,-7.3077,-7.29,-7.2422,-7.1753,-7.1589,-7.1203,-7.0845,-7.1116,-7.1092,-7.0845,-7.1037,-7.0981,-7.0733,-7.0104,-6.9672,-6.9209,-6.8682,-6.8208,-6.7789,-6.7214,-6.7031,-6.6848,-6.5886,-6.5572,-6.5509,-6.5094,-6.4996,-6.5083,-6.546,-6.6008,-6.661,-6.7174,-6.7946,-6.8625,-6.9207,-6.9719,-7.0135,-7.0534,-7.0789,-7.0799,-7.056,-7.0739,-7.0889,-7.0889,-7.0889,-7.0889,-7.0889,-7.0889,-7.0889,-7.0889,-7.0889,-7.0889,-7.0889,-7.0889,-7.0854,-7.0658,-7.0658,-7.0397,-6.9803,-6.967,-6.9404,-6.903,-6.8895,-6.8828,-6.8828,-6.8828,-6.8538,-5.7303,0.0,0.0,-5.7472,-5.7528,-5.7669,-5.7584,-5.7416,-5.736,-5.7528,-5.8085,-5.8726,-5.9306,-6.0004,-6.0642,-6.1106,-6.1193,-6.1193,-6.1193,-6.1193,-6.1253,-6.1434,-6.2138,-6.2545,-6.2416,-6.4427,-6.5852,-6.6156,-6.7962,-6.9252,-6.9645,-7.0595,-7.124,-7.1455,-7.2025,-7.2497,-7.2814,-7.2741,-7.3057,-7.3764,-7.3422,-7.3473,-7.3712,-7.3422,-7.337,-7.3473,-7.2952,-7.2529,-7.2154,-7.1369,-7.1037,-7.1037,-7.1282,-7.0949,-7.0419,-7.0419,-7.0419,-7.0249,-6.9267,-6.871,-6.8415,-6.7698,-6.7275,-6.7,-6.6231,-6.5981,-6.5856,-6.5158,-6.506,-6.5158,-6.5158,-6.524,-6.5473,-6.5938,-6.6475,-6.7064,-6.7866,-6.8518,-6.9112,-6.9516,-7.0068,-7.0462,-7.0498,-7.0694,-7.0889,-7.0889,-7.0889,-7.0889,-7.0889,-7.0889,-7.0889,-7.0889,-7.0889,-7.0889,-7.0889,-7.0889,-7.0854,-7.0789,-7.0789,-7.0593,-7.0265,-7.0397,-7.0134,-6.9337,-6.947,-6.9337,-6.8828,-6.8828,-6.8828,-6.8828,-6.8828,-6.8828,0.0,0.0,-5.736,-5.7725,-5.7528,-5.7472,-5.8029,-5.7696,-5.7472,-5.8029,-5.8748,-5.9394,-5.9654,-6.053,-6.1164,-6.1193,-6.1193,-6.1193,-6.1193,-6.1193,-6.1193,-6.1193,-6.2047,-6.272,0.0,-6.3667,-6.5443,-6.8815,-6.7962,-6.876,-7.2186,-7.23,-7.2079,-7.1602,-7.3233,-7.3318,-7.1689,-7.2709,-7.3057,-7.2562,-7.3057,-7.3057,-7.2562,-7.3057,-7.2709,-7.1743,-7.2814,-7.2656,-7.1634,-7.158,-7.158,-7.1525,-7.1037,-7.0218,-6.9383,-6.9383,-6.9383,-6.9209,-6.8268,-6.7275,-6.6449,-6.6449,-6.5823,-6.5094,-6.5031,-6.506,-6.506,-6.4996,-6.5222,-6.5475,-6.5475,-6.5943,-6.6347,-6.6347,-6.7145,-6.7974,-6.8335,-6.8869,-6.9508,-7.0265,-7.0397,-7.0528,-7.0854,-7.0889,-7.0889,-7.0889,-7.0889,-7.0889,-7.0889,-7.0889,-7.0889,-7.0889,-7.0889,-7.0889,-7.0889,-7.0889,-7.0789,-7.0462,-7.0397,-7.0265,-6.9936,-6.9537,-6.9337,-6.927,-6.903,-6.8828,-6.8828,-6.8828,-6.8828,-6.8828,-6.8828,-6.8828,0.0,0.0,-5.7918,-5.8059,-5.8169,-5.8169,-5.8003,-5.7918,-5.7863,-5.764,-5.8634,-5.9538,-5.9452,-6.0382,-6.1193,-6.1193,-6.1193,-6.1193,-6.1193,-6.1193,-6.1399,-6.2047,-6.2628,0.0,0.0,0.0,0.0,-6.6342,-6.7746,-6.9154,-7.0486,-7.137,-7.2323,-7.3285,-7.2422,-7.2369,-7.3318,-7.255,-7.2656,-7.3661,-7.3782,-7.3577,-7.3057,-7.3628,-7.3473,-7.2762,-7.3129,-7.2656,-7.158,-7.158,-7.1392,-7.0981,-7.0161,-6.9614,-6.9178,-6.8118,-6.785,-6.7938,-6.7181,-6.6695,-6.6263,-6.5698,-6.5285,-6.4996,-6.4996,-6.4996,-6.5083,-6.5489,-6.5892,-6.6172,-6.6387,-6.6714,-6.7107,-6.7313,-6.7815,-6.8319,-6.8623,-6.919,-6.967,-6.967,-7.0068,-7.0462,-7.0593,-7.0789,-7.0889,-7.0889,-7.0889,-7.0889,-7.0889,-7.0889,-7.0889,-7.0889,-7.0889,-7.0889,-7.0889,-7.0889,-7.0789,-7.0462,-7.0397,-7.0134,-6.9537,-6.9604,-6.947,-6.8963,-6.9098,-6.903,-6.8828,-6.8828,-6.8828,-6.8828,-6.8828,-6.8828,-5.7613,-5.7863,-5.8195,-5.8195,-5.839,-5.85,-5.828,-5.8225,-5.814,-5.7974,-5.8889,-5.9712,-5.9741,-6.0559,-6.1253,-6.1344,-6.1253,-6.1193,-6.1193,-6.1193,-6.1486,-6.2339,-6.2826,-6.3327,0.0,0.0,0.0,-6.5619,-6.765,-6.9122,-6.9936,-7.1617,-7.29,-7.3609,-7.2582,-7.2422,-7.3266,-7.2762,-7.2972,-7.3884,-7.3884,-7.3473,-7.2709,-7.3731,-7.3628,-7.2709,-7.2952,-7.2635,-7.1884,-7.1195,-7.0964,-7.0791,-6.9724,-6.9143,-6.8819,-6.7813,-6.7334,-6.7123,-6.6572,-6.6483,-6.65,-6.5921,-6.5664,-6.5664,-6.5664,-6.5664,-6.5751,-6.6157,-6.6533,-6.6844,-6.7058,-6.7451,-6.7779,-6.8048,-6.8311,-6.864,-6.8943,-6.9337,-6.967,-6.967,-7.0002,-7.0265,-7.0397,-7.0593,-7.0694,-7.0694,-7.0824,-7.0889,-7.0889,-7.0889,-7.0854,-7.0694,-7.0854,-7.0854,-7.0694,-7.0694,-7.0593,-7.0265,-7.0068,-6.9737,-6.9165,-6.9337,-6.927,-6.8828,-6.903,-6.903,-6.8828,-6.8828,-6.8828,-6.8828,-6.8828,-6.8828,-5.7416,-5.7751,-5.8195,-5.825,-5.8195,-5.836,-5.8936,-5.8609,-5.839,-5.8966,-5.9425,-5.9884,0.0,0.0,-6.1284,-6.1554,-6.1344,-6.1193,-6.1193,-6.1193,-6.1425,0.0,0.0,0.0,0.0,0.0,0.0,-6.6787,0.0,-6.8839,-7.0512,-7.2867,-7.3661,-7.2615,-7.3525,-7.337,-7.1743,-7.337,-7.3833,-7.3285,-7.3285,-7.2762,-7.1798,-7.3473,-7.3266,-7.1689,-7.2262,-7.2508,-7.2208,-7.0557,-7.0308,-7.0897,-6.9724,-6.8875,-6.8313,-6.8249,-6.773,-6.6919,-6.6604,-6.665,-6.6883,-6.6883,-6.6883,-6.6883,-6.6883,-6.6883,-6.6883,-6.6912,-6.7203,-6.7428,-6.7458,-6.7991,-6.843,-6.843,-6.866,-6.8895,-6.9203,-6.9337,-6.9537,-7.0265,-7.0134,-7.0002,-7.0331,-7.0397,-7.0397,-7.0397,-7.0658,-7.0854,-7.0889,-7.0889,-7.0789,-7.0397,-7.0658,-7.0724,-7.0397,-7.0397,-7.0265,-6.9869,-6.9537,-6.9136,-6.8828,-6.8828,-6.8828,-6.8828,-6.8828,-6.8828,-6.8828,-6.8828,-6.8828,-6.8828,-6.8828,-6.8828,-5.8169,-5.8114,-5.8059,-5.8719,-5.8525,-5.8335,-5.8719,-5.85,-5.8287,-5.8732,-5.9497,-6.0088,0.0,0.0,0.0,-6.1344,-6.1253,0.0,-6.1193,-6.1193,0.0,-6.2703,0.0,-6.3266,-6.3728,-6.4191,0.0,0.0,-6.8052,-6.9064,-6.9574,-7.2111,-7.3422,-7.311,-7.3005,-7.311,-7.3525,-7.3525,-7.3473,-7.3285,-7.3285,-7.3389,-7.3577,-7.4019,-7.3473,-7.2315,-7.2847,-7.2122,-7.0501,-7.0688,-7.0365,-6.9665,-6.8842,-6.8482,-6.8249,-6.7795,-6.7662,-6.7675,-6.783,-6.7473,-6.6883,-6.6883,-6.6883,-6.6883,-6.6883,-6.6883,-6.697,-6.7492,-6.7874,-6.8188,-6.8419,-6.8786,-6.9036,-6.8768,-6.8952,-6.9203,-6.927,-6.9537,-6.9803,-7.0002,-6.9936,-6.9936,-7.0002,-7.0002,-7.0002,-7.0002,-7.0134,-7.0265,-7.0528,-7.0528,-7.0397,-7.0068,-7.0134,-7.0134,-7.0068,-7.0002,-6.9869,-6.947,-6.9337,-6.9136,-6.8828,-6.8828,-6.8828,-6.8828,-6.8828,-6.8828,-6.8828,-6.8828,-6.8828,-6.8828,-6.8828,-6.8828,-5.8335,-5.8225,-5.8114,-5.8773,-5.8555,-5.8305,-5.8773,-5.8609,-5.8567,-5.9218,-5.9898,0.0,0.0,0.0,0.0,0.0,0.0,0.0,-6.1193,-6.1425,-6.1977,0.0,-6.308,0.0,-6.3573,-6.4129,-6.4772,0.0,-6.7465,-6.9283,-7.0536,-7.1842,-7.2835,-7.3679,-7.2867,-7.3025,-7.4171,-7.3628,-7.3285,-7.3285,-7.3285,-7.337,-7.3422,-7.3679,-7.3318,-7.2562,-7.3057,-7.2036,-6.999,-7.0531,-6.9967,-6.8811,-6.8491,-6.8448,-6.8488,-6.8122,-6.8119,-6.8305,-6.8477,-6.8244,-6.7725,-6.7725,-6.7725,-6.7725,-6.7725,-6.7858,-6.8011,-6.8256,-6.8544,-6.8831,-6.8808,-6.8963,-6.903,-6.8828,-6.8963,-6.9136,-6.927,-6.947,-6.9604,-6.9604,-6.9604,-6.9604,-6.9404,-6.9537,-6.9604,-6.9604,-6.9803,-6.9936,-6.9936,-7.0068,-7.0068,-6.967,-6.9803,-6.9803,-6.967,-6.9604,-6.9537,-6.9337,-6.9136,-6.903,-6.8828,-6.8828,-6.8828,-6.8828,-6.8828,-6.8683,-6.8421,-6.8683,-6.8683,-6.8421,-6.8712,-6.8828,-5.8169,-5.8195,-5.825,-5.8664,-5.839,-5.825,-5.8936,-5.8917,-5.8991,-5.9976,0.0,-6.0951,-6.1921,0.0,-6.1732,-6.1969,0.0,-6.1193,-6.1193,-6.1716,-6.2325,-6.3022,-6.308,-6.3138,-6.3258,-6.4002,-6.4337,-6.4087,-6.6604,-6.9239,-7.1615,-7.1461,-7.2111,-7.3884,-7.3096,-7.3096,-7.407,-7.3577,-7.3285,-7.3285,-7.3266,-7.309,-7.2904,-7.3293,-7.3188,-7.2798,-7.2997,-7.1992,-7.0041,-6.9952,-6.9244,-6.8274,-6.8422,-6.8602,-6.8895,-6.8828,-6.8828,-6.8828,-6.8828,-6.8828,-6.8828,-6.8828,-6.8828,-6.8828,-6.8828,-6.903,-6.9136,-6.8895,-6.903,-6.9136,-6.8895,-6.8828,-6.8828,-6.8828,-6.8828,-6.8963,-6.9203,-6.927,-6.927,-6.9203,-6.9203,-6.9136,-6.8828,-6.903,-6.9203,-6.9203,-6.9537,-6.9604,-6.927,-6.9604,-6.967,-6.927,-6.9537,-6.9604,-6.927,-6.9203,-6.9203,-6.9203,-6.8963,-6.8828,-6.8828,-6.8828,-6.877,-6.8712,-6.8712,-6.8421,-6.787,-6.845,-6.845,-6.8015,-6.8567,-6.8828,-5.8445,-5.8225,-5.8059,-5.8828,-5.825,-5.7751,-5.8828,-5.8944,0.0,0.0,0.0,-6.1288,-6.1997,-6.1851,0.0,-6.1673,0.0,0.0,0.0,0.0,-6.2325,0.0,0.0,0.0,0.0,0.0,0.0,0.0,-6.7063,-6.7757,-6.8266,-6.9547,-7.1068,-7.2644,-7.3492,-7.3731,-7.3473,-7.3337,-7.3285,-7.3285,-7.2847,-7.3384,-7.4808,-7.436,-7.415,-7.3992,-7.2787,-7.1186,-6.9294,-6.8847,-6.8351,-6.8042,-6.8523,-6.8914,-6.9203,-6.8895,-6.8828,-6.8828,-6.8828,-6.8828,-6.8828,-6.8828,-6.8828,-6.8828,-6.8828,-6.8828,-6.8895,-6.8828,-6.8828,-6.8895,-6.8828,-6.8828,-6.8828,-6.8828,-6.903,-6.9203,-6.927,-6.927,-6.9203,-6.8963,-6.8895,-6.8895,-6.8828,-6.8828,-6.8895,-6.8895,-6.8963,-6.8963,-6.8895,-6.9203,-6.927,-6.8963,-6.8963,-6.8963,-6.8895,-6.8895,-6.8895,-6.8895,-6.8828,-6.8828,-6.8828,-6.8828,-6.8596,-6.8073,-6.8044,-6.7986,-6.787,-6.7986,-6.8247,-6.8683,-6.877,-6.8828,-5.8719,-5.839,-5.8003,-5.8719,-5.8225,-5.7751,-5.8664,0.0,0.0,0.0,0.0,-6.1639,-6.2466,0.0,0.0,0.0,0.0,0.0,0.0,0.0,0.0,0.0,0.0,0.0,0.0,0.0,-6.4253,-6.5528,-6.5937,-6.6818,-6.8441,-6.9833,-7.0846,-7.1429,-7.294,-7.3731,-7.3782,-7.3782,-7.3782,-7.3731,-7.29,-7.3502,-7.5264,-7.4346,-7.4102,-7.4346,-7.3285,-7.1534,-6.941,-6.9151,-6.8555,-6.7955,-6.8585,-6.8895,-6.903,-6.8895,-6.8828,-6.8828,-6.8828,-6.8828,-6.8828,-6.8828,-6.8828,-6.8828,-6.8828,-6.8963,-6.903,-6.8828,-6.8963,-6.903,-6.8828,-6.8828,-6.8828,-6.8828,-6.8963,-6.903,-6.903,-6.903,-6.903,-6.8828,-6.8828,-6.8828,-6.8828,-6.8828,-6.8828,-6.8828,-6.8828,-6.8828,-6.8828,-6.8963,-6.8963,-6.8828,-6.8828,-6.8828,-6.8828,-6.8828,-6.8828,-6.8828,-6.8828,-6.8683,-6.8334,-6.8334,-6.8015,-6.7376,-6.7347,-6.7347,-6.7347,-6.7725,-6.8044,-6.8334,-6.8683,-6.8828,-5.8664,-5.8445,-5.8059,-5.85,-5.8169,-5.7948,-5.8555,-5.9066,0.0,0.0,-6.1449,-6.1961,-6.2931,0.0,0.0,0.0,0.0,0.0,0.0,0.0,0.0,0.0,0.0,0.0,0.0,0.0,0.0,-6.4593,-6.5023,-6.6263,-6.8674,-7.0143,-7.0822,-7.0599,-7.2358,-7.3525,-7.4019,-7.3731,-7.3731,-7.4019,-7.2847,-7.3311,-7.5264,-7.4081,-7.3781,-7.4155,-7.3231,-7.1554,-6.9454,-6.9272,-6.8763,-6.8128,-6.8634,-6.8895,-6.903,-6.8895,-6.8828,-6.8828,-6.8828,-6.8828,-6.8828,-6.8828,-6.8828,-6.8828,-6.8828,-6.8963,-6.9136,-6.8895,-6.903,-6.9136,-6.8895,-6.8828,-6.8828,-6.8828,-6.8828,-6.8828,-6.8828,-6.8828,-6.8828,-6.8828,-6.8828,-6.8828,-6.8828,-6.8828,-6.8828,-6.8828,-6.8828,-6.8828,-6.8828,-6.8828,-6.8828,-6.8828,-6.8828,-6.8828,-6.8828,-6.8828,-6.877,-6.8625,-6.8625,-6.8334,-6.7696,-6.7667,-6.7347,-6.668,-6.6825,-6.6883,-6.6883,-6.7551,-6.7957,-6.8102,-6.8596,-6.8828,-5.7948,-5.8225,-5.8555,-5.8335,-5.8003,-5.7948,-5.8555,0.0,0.0,-6.0992,-6.1634,-6.2292,-6.2933,-6.2087,0.0,0.0,0.0,0.0,0.0,0.0,0.0,0.0,0.0,0.0,0.0,0.0,0.0,-6.5299,-6.5727,-6.6007,-6.629,-6.9058,-7.0599,-7.0599,-7.2358,-7.337,-7.3389,-7.2304,-7.2304,-7.337,-7.2197,-7.2907,-7.5264,-7.4114,-7.3599,-7.3447,-7.144,-6.9929,-6.8728,-6.7919,-6.8047,-6.8854,-6.8768,-6.9232,-6.9737,-6.903,-6.8828,-6.8828,-6.8828,-6.8828,-6.8828,-6.8828,-6.8828,-6.8828,-6.8828,-6.8828,-6.8828,-6.8828,-6.8828,-6.8828,-6.8828,-6.8828,-6.8828,-6.8828,-6.8828,-6.8828,-6.8828,-6.8828,-6.8828,-6.8828,-6.8828,-6.8828,-6.8828,-6.8828,-6.8828,-6.8828,-6.8828,-6.8828,-6.8828,-6.8828,-6.8828,-6.8828,-6.8828,-6.8828,-6.8828,-6.8828,-6.8596,-6.8015,-6.7957,-6.7667,-6.6999,-6.697,-6.668,-6.6041,-6.6593,-6.6883,-6.6883,-6.7551,-6.8189,-6.8741,-6.8799,-6.8828,-5.8029,-5.8335,-5.8555,-5.8059,-5.8003,-5.8114,-5.8335,0.0,0.0,-6.0936,-6.1491,-6.1969,-6.2673,-6.1909,-6.1313,0.0,0.0,0.0,0.0,0.0,0.0,0.0,0.0,0.0,0.0,0.0,0.0,-6.5071,-6.5475,-6.5664,-6.5664,-6.7608,-6.8825,-6.9201,-7.0456,-7.1319,-7.1679,-7.121,-7.121,-7.1679,-7.0822,-7.137,-7.3122,-7.2069,-7.19,-7.2317,-7.0341,-6.9397,-6.9212,-6.816,-6.8151,-6.8852,-6.9048,-6.9136,-6.9232,-6.9136,-6.9068,-6.9068,-6.9068,-6.9068,-6.9098,-6.8895,-6.8828,-6.8828,-6.8828,-6.8963,-6.9098,-6.8895,-6.8828,-6.8828,-6.8828,-6.8828,-6.8828,-6.8828,-6.8828,-6.8828,-6.8828,-6.8828,-6.8828,-6.8828,-6.8828,-6.8828,-6.8828,-6.8828,-6.8828,-6.8828,-6.8828,-6.8828,-6.8828,-6.8828,-6.8828,-6.8828,-6.8828,-6.8683,-6.8276,-6.8247,-6.7986,-6.7318,-6.7289,-6.6999,-6.6331,-6.6302,-6.6186,-6.5925,-6.6186,-6.6709,-6.7492,-6.7754,-6.8218,-6.8828,-6.8828,-6.8828,-5.7974,-5.8225,-5.839,-5.7836,-5.7892,-5.8143,0.0,0.0,0.0,-6.0892,-6.1378,-6.1791,-6.2351,-6.1791,-6.1313,0.0,0.0,0.0,0.0,0.0,0.0,0.0,0.0,0.0,0.0,0.0,0.0,-6.51,-6.5475,-6.5664,-6.5664,-6.6538,-6.7336,-6.8116,-6.9174,-6.9922,-7.0431,-6.9922,-6.9979,-7.0599,-6.9693,-7.0,-7.1213,-7.0469,-7.0353,-7.0584,-6.9117,-6.8726,-6.9075,-6.8279,-6.8364,-6.9165,-6.927,-6.9203,-6.9165,-6.927,-6.9203,-6.9136,-6.927,-6.9203,-6.9068,-6.8895,-6.8895,-6.8963,-6.8828,-6.8963,-6.9068,-6.8895,-6.8828,-6.8828,-6.8828,-6.8828,-6.8828,-6.8828,-6.8828,-6.8828,-6.8828,-6.8828,-6.8828,-6.8828,-6.8828,-6.8828,-6.8828,-6.8828,-6.8828,-6.8828,-6.8828,-6.8828,-6.8828,-6.8654,-6.8538,-6.8538,-6.8363,-6.816,-6.7899,-6.7696,-6.7289,-6.6651,-6.6593,-6.6302,-6.5693,-6.5635,-6.5751,-6.5925,-6.6128,-6.6767,-6.787,-6.8073,-6.8392,-6.8828,-6.8828,-6.8828,-5.7416,-5.7751,-5.8029,-5.7472,-5.7557,-5.7956,0.0,0.0,0.0,-6.088,-6.1351,-6.1732,-6.2057,-6.1583,-6.1313,-6.1554,0.0,0.0,0.0,0.0,0.0,0.0,0.0,0.0,0.0,0.0,-6.5446,-6.5475,-6.5819,0.0,-6.6007,-6.6007,-6.657,-6.7758,-6.9027,-6.9833,-7.0118,-6.8325,-6.8503,-7.0599,-6.9058,-6.8911,-7.0118,-6.9808,-6.9174,-6.8295,-6.7698,-6.7655,-6.7953,-6.7924,-6.869,-6.9869,-6.947,-6.9537,-6.9869,-6.947,-6.9068,-6.8828,-6.9203,-6.9068,-6.8828,-6.8828,-6.903,-6.9203,-6.8895,-6.8828,-6.8828,-6.8828,-6.8828,-6.8828,-6.8828,-6.8828,-6.8828,-6.8828,-6.8828,-6.8828,-6.8828,-6.8828,-6.8828,-6.8828,-6.8828,-6.8828,-6.8828,-6.8828,-6.8828,-6.8828,-6.8828,-6.8828,-6.8828,-6.8276,-6.7899,-6.7899,-6.7289,-6.7173,-6.7812,-6.726,-6.6622,-6.5983,-6.5954,-6.5664,-6.5025,-6.4996,-6.5286,-6.5925,-6.6535,-6.7202,-6.787,-6.8509,-6.8828,-6.8828,-6.8828,-6.8828,-5.7472,-5.8029,-5.8555,-5.7528,-5.7696,-5.815,-5.8571,0.0,0.0,0.0,-6.1204,-6.1404,-6.1673,-6.1464,-6.1253,-6.1284,-6.1253,0.0,0.0,0.0,0.0,0.0,0.0,0.0,0.0,0.0,-6.5158,-6.5158,-6.5251,-6.5441,-6.5694,-6.5664,-6.5915,-6.657,-6.7183,-6.7517,-6.7638,-6.7305,-6.7487,-6.8118,-6.7638,-6.7487,-6.7638,-6.7517,-6.7366,-6.7091,-6.7138,-6.7382,-6.7983,-6.8654,-6.9168,-6.947,-6.967,-6.9604,-6.9537,-6.967,-6.947,-6.9232,-6.9604,-6.947,-6.9068,-6.8895,-6.8895,-6.8963,-6.8828,-6.8963,-6.9068,-6.8895,-6.8828,-6.8828,-6.8828,-6.8828,-6.8828,-6.8828,-6.8828,-6.8828,-6.8828,-6.8828,-6.8828,-6.8828,-6.8828,-6.8828,-6.8828,-6.8828,-6.8828,-6.8828,-6.845,-6.8189,-6.8189,-6.7609,-6.7202,-6.7202,-6.6622,-6.6302,-6.6535,-6.636,-6.5954,-6.5315,-6.5286,-6.5199,-6.4996,-6.4996,-6.5489,-6.6564,-6.6767,-6.7434,-6.8538,-6.8741,-6.8828,-6.8828,-6.8828,-6.8596,0.0,-5.7918,-5.839,-5.7528,-5.7696,0.0,0.0,0.0,0.0,0.0,0.0,0.0,-6.1404,-6.1284,-6.1193,-6.1193,-6.1193,0.0,0.0,0.0,0.0,0.0,0.0,0.0,0.0,-6.4764,-6.506,-6.5187,-6.5158,-6.5348,-6.5664,-6.5538,-6.5664,-6.6007,-6.6319,-6.6444,-6.6319,-6.6629,-6.6814,-6.6814,-6.6814,-6.6691,-6.6506,-6.6629,-6.6629,-6.6535,-6.6812,-6.7334,0.0,-6.8826,-6.9345,-6.9537,-6.9803,-6.9803,-6.9737,-6.9869,-6.9737,-6.9537,-6.9803,-6.9604,-6.9203,-6.8895,-6.8828,-6.8828,-6.8828,-6.8963,-6.9098,-6.8895,-6.8828,-6.8828,-6.8828,-6.8828,-6.8828,-6.8828,-6.8828,-6.8828,-6.8828,-6.8828,-6.8828,-6.8828,-6.8828,-6.8828,-6.8828,-6.8828,-6.8741,-6.8509,-6.8131,-6.7783,-6.7551,-6.6941,-6.6535,-6.6535,-6.5954,-6.5577,-6.5577,-6.5577,-6.5402,-6.4996,-6.4996,-6.4996,-6.4996,-6.4996,-6.546,-6.6506,-6.6767,-6.7405,-6.8479,-6.8712,-6.8828,-6.8828,-6.8596,-6.8247,0.0,-5.7557,-5.7725,-5.736,-5.7528,0.0,0.0,0.0,0.0,0.0,0.0,0.0,0.0,-6.1193,-6.1193,-6.1193,-6.1193,0.0,0.0,0.0,0.0,0.0,0.0,0.0,0.0,-6.4996,-6.5124,-6.5412,-6.5475,-6.5601,-6.5945,-6.5694,-6.5601,-6.6007,-6.6319,-6.6319,-6.6007,-6.6382,-6.6506,-6.6506,-6.6506,-6.6506,-6.6506,-6.6876,-6.6844,-6.6595,-6.6841,-6.7364,-6.7977,-6.869,-6.9375,-6.9869,-6.9869,-7.0068,-7.0331,-7.0002,-6.9869,-6.9869,-6.9869,-6.9604,-6.9203,-6.8895,-6.8828,-6.8828,-6.8828,-6.8828,-6.8828,-6.8828,-6.8828,-6.8828,-6.8828,-6.8828,-6.8828,-6.8828,-6.8828,-6.8828,-6.8828,-6.8828,-6.8828,-6.8828,-6.8828,-6.8828,-6.877,-6.877,-6.8538,-6.7899,-6.7783,-6.7522,-6.6883,-6.6273,-6.5867,-6.5867,-6.5344,-6.4996,-6.4996,-6.4996,-6.4996,-6.4996,-6.4996,-6.4996,-6.4996,-6.4996,-6.5286,-6.5925,-6.6593,-6.7289,-6.7957,-6.8538,-6.8799,-6.8741,-6.816,-6.7841,-5.7416,0.0,-5.7974,-5.7416,-5.7528,-5.7929,0.0,0.0,0.0,0.0,0.0,0.0,0.0,0.0,0.0,0.0,0.0,0.0,0.0,0.0,0.0,0.0,0.0,0.0,-6.488,-6.4996,-6.506,-6.5124,-6.5124,-6.5222,-6.5601,-6.5285,-6.5504,-6.6382,-6.5978,-6.579,-6.6007,-6.6568,-6.6753,-6.6506,-6.6753,-6.6753,-6.6506,-6.6876,-6.7083,-6.7278,-6.7805,-6.8264,-6.872,-6.9696,-6.9986,-6.9869,-6.9869,-6.9936,-7.0002,-6.9936,-6.9737,-6.947,-6.9803,-6.9604,-6.9203,-6.8895,-6.8828,-6.8828,-6.8828,-6.8828,-6.8828,-6.8828,-6.8828,-6.8828,-6.8828,-6.8828,-6.8828,-6.8828,-6.8828,-6.8828,-6.8828,-6.8828,-6.8828,-6.8828,-6.8828,-6.8683,-6.8189,-6.8102,-6.787,-6.7202,-6.6709,-6.6331,-6.6186,-6.5606,-6.5199,-6.5199,-6.5083,-6.4996,-6.4996,-6.4996,-6.4996,-6.4996,-6.4996,-6.4996,-6.4996,-6.4996,-6.5286,-6.5925,-6.7057,-6.7957,-6.8596,-6.8741,-6.8567,-6.8102,-6.7957,-6.7347,-5.736,-5.764,-5.7863,-5.7416,-5.7528,-5.79,0.0,0.0,0.0,0.0,0.0,0.0,0.0,0.0,0.0,0.0,0.0,0.0,0.0,0.0,0.0,0.0,0.0,0.0,0.0,-6.4996,-6.4996,-6.4996,-6.5158,-6.5222,-6.5285,-6.5222,-6.5538,-6.6257,-6.579,-6.5664,-6.6007,-6.6506,-6.6629,-6.6257,-6.6629,-6.6753,-6.6753,-6.6753,-6.7111,-6.7767,-6.8042,-6.8436,-6.8956,-6.9802,-6.9936,-6.967,-6.9803,-7.0002,-7.0134,-6.9936,-6.9936,-7.0002,-6.9936,-6.9537,-6.903,-6.8895,-6.8828,-6.8828,-6.8828,-6.8828,-6.8828,-6.8828,-6.8828,-6.8828,-6.8828,-6.8828,-6.8828,-6.8828,-6.8828,-6.8828,-6.8828,-6.8828,-6.8828,-6.8828,-6.8596,-6.8276,-6.7957,-6.7638,-6.7202,-6.6535,-6.6157,-6.5838,-6.5519,-6.5199,-6.4996,-6.4996,-6.4996,-6.4996,-6.4996,-6.4996,-6.4996,-6.4996,-6.4996,-6.4996,-6.4996,-6.4996,-6.5286,-6.5925,-6.6622,-6.7463,-6.8392,-6.8073,-6.7928,-6.787,-6.726,-6.6593,-5.7303,-5.7472,-5.7669,-5.736,-5.7472,-5.7815,0.0,0.0,0.0,0.0,0.0,0.0,0.0,0.0,0.0,0.0,0.0,0.0,0.0,0.0,0.0,0.0,0.0,0.0,-6.488,-6.4996,-6.4996,-6.4996,-6.5285,-6.5285,-6.506,-6.5285,-6.5601,-6.6007,-6.5601,-6.5601,-6.607,-6.6382,-6.6319,-6.6007,-6.6319,-6.6691,-6.6999,-6.6781,-6.7198,-6.8166,-6.8062,-6.8454,-6.9103,-6.9634,-6.967,-6.9337,-6.9737,-7.0068,-7.02,-7.0002,-7.02,-7.0563,-7.0002,-6.9337,-6.8828,-6.8828,-6.8828,-6.8828,-6.8828,-6.8828,-6.8828,-6.8828,-6.8828,-6.8828,-6.8828,-6.8828,-6.8828,-6.8828,-6.8828,-6.8828,-6.8828,-6.8741,-6.8683,-6.8683,-6.816,-6.7696,-6.7609,-6.7115,-6.6506,-6.5867,-6.578,-6.5606,-6.5054,-6.4996,-6.4996,-6.4996,-6.4996,-6.4996,-6.4996,-6.4996,-6.4996,-6.4996,-6.4996,-6.4996,-6.4996,-6.4996,-6.5286,-6.5925,-6.5925,-6.6535,-6.7725,-6.7173,-6.7115,-6.7551,-6.6447,-6.5867,-5.7303,-5.736,-5.736,-5.7303,-5.736,-5.7389,0.0,0.0,0.0,0.0,0.0,0.0,0.0,0.0,0.0,0.0,0.0,0.0,0.0,0.0,0.0,0.0,0.0,-6.4183,-6.4909,-6.4996,-6.4996,-6.4996,-6.506,-6.5031,-6.4996,-6.506,-6.5378,-6.5945,-6.5378,-6.5504,-6.6444,-6.6506,-6.6319,-6.6007,-6.6319,-6.6691,-6.6999,-6.7257,-6.7883,-6.8821,-6.8808,-6.9132,-6.9722,-6.984,-6.967,-6.9337,-6.9737,-6.9737,-6.947,-6.9803,-6.9737,-6.9537,-6.9404,-6.9136,-6.8828,-6.8828,-6.8828,-6.8828,-6.8828,-6.8828,-6.8828,-6.8828,-6.8828,-6.8828,-6.8828,-6.8828,-6.8828,-6.8828,-6.8828,-6.8828,-6.8828,-6.8392,-6.8015,-6.8015,-6.7492,-6.6854,-6.6331,-6.6128,-6.5867,-6.5228,-6.5141,-6.5083,-6.4996,-6.4996,-6.4996,-6.4996,-6.4996,-6.4996,-6.4996,-6.4996,-6.4996,-6.4996,-6.4996,-6.4996,-6.4996,-6.4996,-6.5286,-6.5925,-6.5925,-6.6302,-6.7028,-6.6941,-6.6651,-6.6215,-6.6012,-6.5635,-5.7303,-5.7303,-5.7303,-5.7303,-5.7303,0.0,0.0,0.0,0.0,0.0,0.0,0.0,0.0,0.0,0.0,0.0,0.0,0.0,0.0,-6.1716,-6.2325,0.0,0.0,-6.427,-6.4909,-6.4996,-6.4996,-6.4996,-6.4996,-6.4996,-6.4996,-6.4996,-6.5251,-6.5664,-6.5251,-6.5378,-6.6195,-6.6257,-6.6257,-6.6257,-6.6257,-6.6684,-6.7537,-6.7337,-6.7957,-6.9193,-6.8974,-6.9148,-6.9604,-6.9803,-6.9537,-6.9098,-6.967,-6.9803,-6.967,-7.0068,-6.9936,-6.9604,-6.9404,-6.9068,-6.8828,-6.8828,-6.8828,-6.8828,-6.8828,-6.8828,-6.8828,-6.8828,-6.8828,-6.8828,-6.8828,-6.8828,-6.8828,-6.8828,-6.8828,-6.8741,-6.8392,-6.8102,-6.7783,-6.7405,-6.6825,-6.6273,-6.5983,-6.5635,-6.5315,-6.5025,-6.4996,-6.4996,-6.4996,-6.4996,-6.4996,-6.4996,-6.4996,-6.4996,-6.4996,-6.4996,-6.4996,-6.4996,-6.4996,-6.4996,-6.4996,-6.4996,-6.5112,-6.5431,-6.5431,-6.5751,-6.636,-6.6012,-6.5867,-6.5925,-6.5577,-6.5257,-5.7303,-5.7303,-5.7303,-5.7303,0.0,0.0,0.0,0.0,0.0,0.0,0.0,0.0,0.0,0.0,0.0,0.0,0.0,-6.1193,-6.1193,-6.1832,-6.2499,-6.3022,-6.3777,-6.4444,-6.4938,-6.4996,-6.4996,-6.4996,-6.4996,-6.4996,-6.4996,-6.4996,-6.5158,-6.5475,-6.5158,-6.5378,-6.6132,-6.6007,-6.6132,-6.6382,-6.628,-6.6793,-6.7862,-6.7466,-6.8082,-6.9352,-6.9109,-6.9163,-6.947,-6.967,-6.9404,-6.8963,-6.9537,-6.9737,-6.9803,-6.9936,-6.9936,-6.967,-6.9337,-6.9001,-6.8828,-6.8828,-6.8828,-6.8828,-6.8828,-6.8828,-6.8828,-6.8828,-6.8828,-6.8828,-6.8828,-6.8828,-6.877,-6.8625,-6.8596,-6.8421,-6.7783,-6.7522,-6.7289,-6.6767,-6.6157,-6.5722,-6.5722,-6.5315,-6.4996,-6.4996,-6.4996,-6.4996,-6.4996,-6.4996,-6.4996,-6.4996,-6.4996,-6.4996,-6.4996,-6.4996,-6.4996,-6.4996,-6.4996,-6.4996,-6.4996,-6.4996,-6.4996,-6.4996,-6.4996,-6.5228,-6.5722,-6.5228,-6.5228,-6.5693,-6.5228,-6.4996,-5.7303,-5.7303,-5.7303,-5.7303,0.0,0.0,0.0,0.0,0.0,0.0,0.0,0.0,0.0,0.0,0.0,0.0,0.0,0.0,-6.1193,0.0,-6.3051,-6.308,-6.4183,-6.4938,-6.4996,-6.4996,-6.4996,-6.4996,-6.4996,-6.4996,-6.4996,-6.4996,-6.5158,-6.5475,-6.5158,-6.5504,-6.6444,-6.6132,-6.6007,-6.6007,-6.6597,-6.7082,-6.7578,-6.8089,-6.8677,-6.9382,-6.9347,-6.9508,-6.9803,-6.947,-6.927,-6.927,-6.9337,-6.9337,-6.927,-6.903,-6.9098,-6.927,-6.8963,-6.8828,-6.8828,-6.8828,-6.8828,-6.8828,-6.8828,-6.8828,-6.8828,-6.8828,-6.8828,-6.8828,-6.8828,-6.8828,-6.8683,-6.8102,-6.7957,-6.7754,-6.7115,-6.6476,-6.607,-6.6012,-6.5489,-6.5054,-6.5054,-6.5025,-6.4996,-6.4996,-6.4996,-6.4996,-6.4996,-6.4996,-6.4996,-6.4996,-6.4996,-6.4996,-6.4996,-6.4996,-6.4996,-6.4996,-6.4996,-6.4996,-6.4996,-6.4996,-6.4996,-6.4996,-6.4996,-6.4996,-6.5054,-6.4996,-6.4996,-6.5054,-6.4996,-6.4996,-5.7303,-5.7303,-5.7303,-5.7303,0.0,0.0,0.0,0.0,0.0,0.0,-5.8,0.0,0.0,0.0,0.0,0.0,0.0,0.0,-6.1193,-6.2296,-6.308,-6.308,-6.4212,-6.4996,-6.4996,-6.4996,-6.4996,-6.4996,-6.4996,-6.4996,-6.4996,-6.4996,-6.506,-6.5187,-6.506,-6.5378,-6.6195,-6.5882,-6.5819,-6.6007,-6.6243,-6.6964,-6.811,-6.8136,-6.8749,-6.9713,-6.9685,-6.947,-6.9203,-6.927,-6.9136,-6.903,-6.9203,-6.927,-6.927,-6.9136,-6.9203,-6.927,-6.8895,-6.8828,-6.8828,-6.8828,-6.8828,-6.8828,-6.8828,-6.8828,-6.8828,-6.8828,-6.8828,-6.8828,-6.8828,-6.8538,-6.8189,-6.7928,-6.7551,-6.7086,-6.6418,-6.6099,-6.5809,-6.5431,-6.5141,-6.4996,-6.4996,-6.4996,-6.4996,-6.4996,-6.4996,-6.4996,-6.4996,-6.4996,-6.4996,-6.4996,-6.4996,-6.4996,-6.4996,-6.4996,-6.4996,-6.4996,-6.4996,-6.4996,-6.4996,-6.4996,-6.4996,-6.4996,-6.4996,-6.4996,-6.4996,-6.4996,-6.4996,-6.4996,-6.4996,-6.4996,-5.7303,-5.7303,-5.7303,0.0,0.0,0.0,0.0,0.0,0.0,0.0,0.0,0.0,0.0,0.0,0.0,0.0,-6.1193,-6.1193,-6.1193,-6.2122,-6.2848,-6.308,-6.4038,-6.4764,-6.4967,-6.4996,-6.4996,-6.4996,-6.5124,-6.5124,-6.4996,-6.5124,-6.5124,-6.4996,-6.4996,-6.5251,-6.5819,-6.5601,-6.5601,-6.5819,-6.5945,-6.6812,-6.8338,-6.8224,-6.8772,-6.9869,-6.967,-6.9337,-6.8963,-6.9068,-6.903,-6.8828,-6.903,-6.9136,-6.9136,-6.9136,-6.9136,-6.9098,-6.8895,-6.8828,-6.8828,-6.8828,-6.8828,-6.8828,-6.8828,-6.8828,-6.8828,-6.8828,-6.8828,-6.877,-6.8596,-6.8218,-6.7783,-6.7376,-6.6912,-6.6418,-6.578,-6.5635,-6.5489,-6.5083,-6.4996,-6.4996,-6.4996,-6.4996,-6.4996,-6.4996,-6.4996,-6.4996,-6.4996,-6.4996,-6.4996,-6.4996,-6.4996,-6.4996,-6.4996,-6.4996,-6.4996,-6.4996,-6.4996,-6.4996,-6.4996,-6.4996,-6.4996,-6.4996,-6.4996,-6.4996,-6.4996,-6.4996,-6.4996,-6.4996,-6.4996,-6.4996,-5.7303,-5.7303,0.0,0.0,0.0,0.0,0.0,0.0,0.0,0.0,0.0,-5.8493,-5.919,0.0,0.0,-6.1077,-6.1193,-6.1193,-6.1193,-6.1716,-6.2325,-6.3022,-6.3661,-6.427,-6.4909,-6.4996,-6.4996,-6.4996,-6.5285,-6.5348,-6.506,-6.5285,-6.5348,-6.4996,-6.4996,-6.5158,-6.5475,-6.5475,-6.5475,-6.5475,-6.5819,-6.6686,-6.8018,-6.8275,-6.8921,-6.9869,-6.9165,-6.903,-6.927,-6.8963,-6.8828,-6.8828,-6.8828,-6.8828,-6.8828,-6.8828,-6.8828,-6.8828,-6.8828,-6.8828,-6.8828,-6.8828,-6.8828,-6.8828,-6.8828,-6.8828,-6.8828,-6.8828,-6.8828,-6.8683,-6.8044,-6.787,-6.7551,-6.6244,-6.5925,-6.5751,-6.5112,-6.4996,-6.4996,-6.4996,-6.4996,-6.4996,-6.4996,-6.4996,-6.4996,-6.4996,-6.4996,-6.4996,-6.4996,-6.4996,-6.4996,-6.4996,-6.4996,-6.4996,-6.4996,-6.4996,-6.4996,-6.4996,-6.4996,-6.4996,-6.4996,-6.4996,-6.4996,-6.4996,-6.4996,-6.4996,-6.4996,-6.4996,-6.4996,-6.4996,-6.4996,-6.4996,-5.7303,0.0,0.0,0.0,0.0,0.0,0.0,0.0,0.0,0.0,0.0,0.0,-5.919,0.0,0.0,-6.1077,-6.1193,-6.1193,-6.1193,-6.1716,-6.2325,-6.3022,-6.3661,-6.427,-6.4909,-6.4996,-6.4996,-6.4996,-6.5124,-6.5094,-6.4996,-6.5124,-6.5124,-6.4996,-6.4996,-6.5158,-6.5475,-6.5285,-6.5285,-6.5475,-6.5601,-6.6134,-6.6985,-6.773,-6.8312,-6.8826,-6.9094,-6.9068,-6.8963,-6.8828,-6.8828,-6.8828,-6.8828,-6.8828,-6.8828,-6.8828,-6.8828,-6.8828,-6.8828,-6.8828,-6.8828,-6.8828,-6.8828,-6.8828,-6.8828,-6.8828,-6.8828,-6.8828,-6.8509,-6.8015,-6.7347,-6.6854,-6.6418,-6.6012,-6.5606,-6.5228,-6.5025,-6.4996,-6.4996,-6.4996,-6.4996,-6.4996,-6.4996,-6.4996,-6.4996,-6.4996,-6.4996,-6.4996,-6.4996,-6.4996,-6.4996,-6.4996,-6.4996,-6.4996,-6.4996,-6.4996,-6.4996,-6.4996,-6.4996,-6.4996,-6.4996,-6.4996,-6.4996,-6.4996,-6.4996,-6.4996,-6.4996,-6.4996,-6.4996,-6.4996,-6.4996,-6.4996,0.0,0.0,0.0,0.0,0.0,0.0,0.0,0.0,0.0,0.0,0.0,0.0,-5.919,-5.98,0.0,-6.1077,-6.1193,-6.1193,-6.1193,-6.1513,-6.1977,-6.2616,-6.3283,-6.3922,-6.4561,-6.4822,-6.4996,-6.4996,-6.5094,-6.5158,-6.4996,-6.5124,-6.5158,-6.4996,-6.4996,-6.5124,-6.5285,-6.5124,-6.5124,-6.5285,-6.5412,-6.5616,-6.5927,-6.7155,-6.7982,-6.843,-6.8873,-6.8963,-6.8828,-6.8828,-6.8828,-6.8828,-6.8828,-6.8828,-6.8828,-6.8828,-6.8828,-6.8828,-6.8828,-6.8828,-6.8828,-6.8828,-6.8828,-6.8828,-6.8828,-6.8828,-6.877,-6.8509,-6.8189,-6.7667,-6.6738,-6.6215,-6.5867,-6.5606,-6.5257,-6.4996,-6.4996,-6.4996,-6.4996,-6.4996,-6.4996,-6.4996,-6.4996,-6.4996,-6.4996,-6.4996,-6.4996,-6.4996,-6.4996,-6.4996,-6.4996,-6.4996,-6.4996,-6.4996,-6.4996,-6.4996,-6.4996,-6.4996,-6.4996,-6.4996,-6.4996,-6.4996,-6.4996,-6.4996,-6.4996,-6.4996,-6.4996,-6.4996,-6.4996,-6.4996,-6.4996,-6.4996,0.0,0.0,0.0,0.0,0.0,0.0,0.0,0.0,0.0,0.0,0.0,0.0,-5.919,-5.98,-6.0409,-6.1077,-6.1193,-6.1193,-6.1193,-6.1193,-6.1425,-6.2035,-6.2616,-6.3283,-6.3917,-6.4561,-6.4909,-6.4996,-6.5285,-6.5285,-6.506,-6.5285,-6.5285,-6.4996,-6.4996,-6.4996,-6.4996,-6.4996,-6.4996,-6.4996,-6.5285,-6.5285,-6.5025,-6.6656,-6.775,-6.8451,-6.8701,-6.8828,-6.8828,-6.8828,-6.8828,-6.8828,-6.8828,-6.8828,-6.8828,-6.8828,-6.8828,-6.8828,-6.8828,-6.8828,-6.8828,-6.8828,-6.8828,-6.8828,-6.8828,-6.8828,-6.8683,-6.8073,-6.7841,-6.7492,-6.6244,-6.5896,-6.5693,-6.5112,-6.4996,-6.4996,-6.4996,-6.4996,-6.4996,-6.4996,-6.4996,-6.4996,-6.4996,-6.4996,-6.4996,-6.4996,-6.4996,-6.4996,-6.4996,-6.4996,-6.4996,-6.4996,-6.4996,-6.4996,-6.4996,-6.4996,-6.4996,-6.4996,-6.4996,-6.4996,-6.4996,-6.4996,-6.4996,-6.4996,-6.4996,-6.4996,-6.4996,-6.4996,-6.4996,-6.4996,-6.4996,-6.4996,0.0,0.0,0.0,0.0,0.0,0.0,0.0,0.0,0.0,0.0,0.0,0.0,-5.919,-5.98,-6.0409,-6.1077,-6.1193,-6.1193,-6.1193,-6.1193,-6.1425,-6.2035,-6.2209,-6.2761,-6.3859,-6.4154,-6.4444,-6.4938,-6.506,-6.506,-6.4996,-6.506,-6.5031,-6.4996,-6.4996,-6.4996,-6.4996,-6.4996,-6.4996,-6.4996,-6.5031,-6.506,-6.5025,-6.6656,-6.7852,-6.8692,-6.877,-6.8828,-6.8828,-6.8828,-6.8828,-6.8828,-6.8828,-6.8828,-6.8828,-6.8828,-6.8828,-6.8828,-6.8828,-6.8828,-6.8828,-6.8828,-6.8828,-6.8828,-6.8828,-6.8828,-6.8683,-6.8073,-6.7492,-6.6912,-6.6128,-6.5577,-6.5141,-6.5025,-6.4996,-6.4996,-6.4996,-6.4996,-6.4996,-6.4996,-6.4996,-6.4996,-6.4996,-6.4996,-6.4996,-6.4996,-6.4996,-6.4996,-6.4996,-6.4996,-6.4996,-6.4996,-6.4996,-6.4996,-6.4996,-6.4996,-6.4996,-6.4996,-6.4996,-6.4996,-6.4996,-6.4996,-6.4996,-6.4996,-6.4996,-6.4996,-6.4996,-6.4996,-6.4996,-6.4996,-6.4996,-6.4996,0.0,0.0,0.0,0.0,0.0,0.0,0.0,0.0,0.0,0.0,0.0,0.0,0.0,-5.9568,-6.009,-6.1048,-6.1193,-6.1193,-6.1193,-6.1193,-6.1309,-6.1629,-6.1919,-6.2354,-6.3051,-6.3399,-6.3835,-6.4473,-6.4532,-6.4677,-6.4967,-6.4996,-6.4996,-6.4996,-6.4996,-6.4996,-6.4996,-6.4996,-6.4996,-6.4996,-6.4996,-6.5141,-6.546,-6.6643,-6.7567,-6.8392,-6.8683,-6.8828,-6.8828,-6.8828,-6.8828,-6.8828,-6.8828,-6.8828,-6.8828,-6.8828,-6.8828,-6.8828,-6.8828,-6.8828,-6.8828,-6.8828,-6.8828,-6.8828,-6.8828,-6.8625,-6.8247,-6.758,-6.6941,-6.6273,-6.5635,-6.5228,-6.4996,-6.4996,-6.4996,-6.4996,-6.4996,-6.4996,-6.4996,-6.4996,-6.4996,-6.4996,-6.4996,-6.4996,-6.4996,-6.4996,-6.4996,-6.4996,-6.4996,-6.4996,-6.4996,-6.4996,-6.4996,-6.4996,-6.4996,-6.4996,-6.4996,-6.4996,-6.4996,-6.4996,-6.4996,-6.4996,-6.4996,-6.4996,-6.4996,-6.4996,-6.4996,-6.4996,-6.4996,-6.4996,-6.4996,-6.4996,0.0,0.0,0.0,0.0,0.0,0.0,0.0,0.0,0.0,0.0,0.0,0.0,0.0,-5.9306,-5.9713,-6.099,-6.1193,-6.1193,-6.1193,-6.1193,-6.1193,-6.1193,-6.1629,-6.1977,-6.2093,-6.2587,-6.3167,-6.3835,-6.3917,-6.427,-6.4793,-6.4938,-6.4996,-6.4996,-6.4996,-6.4996,-6.4996,-6.4996,-6.4996,-6.4996,-6.4996,-6.5257,-6.5809,-6.6535,-6.726,-6.7899,-6.8567,-6.8828,-6.8828,-6.8828,-6.8828,-6.8828,-6.8828,-6.8828,-6.8828,-6.8828,-6.8828,-6.8828,-6.8828,-6.8828,-6.8828,-6.8828,-6.8828,-6.8799,-6.8712,-6.8305,-6.7725,-6.6941,-6.6331,-6.578,-6.5141,-6.4996,-6.4996,-6.4996,-6.4996,-6.4996,-6.4996,-6.4996,-6.4996,-6.4996,-6.4996,-6.4996,-6.4996,-6.4996,-6.4996,-6.4996,-6.4996,-6.4996,-6.4996,-6.4996,-6.4996,-6.4996,-6.4996,-6.4996,-6.4996,-6.4996,-6.4996,-6.4996,-6.4996,-6.4996,-6.4996,-6.4996,-6.4996,-6.4996,-6.4996,-6.4996,-6.4996,-6.4996,-6.4996,-6.4996,-6.4996,-6.4996,0.0,0.0,0.0,0.0,0.0,0.0,0.0,0.0,0.0,0.0,0.0,0.0,0.0,-5.9306,-5.9713,-6.099,-6.1193,-6.1193,-6.1193,-6.1193,-6.1193,-6.1193,-6.128,-6.1513,-6.2035,-6.218,-6.2499,-6.3167,-6.3719,-6.4004,-6.4154,-6.4677,-6.4996,-6.4996,-6.4996,-6.4996,-6.4996,-6.4996,-6.4996,-6.4996,-6.4996,-6.5025,-6.5141,-6.6331,-6.726,-6.7899,-6.8567,-6.8828,-6.8828,-6.8828,-6.8828,-6.8828,-6.8828,-6.8828,-6.8828,-6.8828,-6.8828,-6.8828,-6.8828,-6.8828,-6.8828,-6.8828,-6.8828,-6.8712,-6.8189,-6.7957,-6.7638,-6.6418,-6.6012,-6.578,-6.5141,-6.4996,-6.4996,-6.4996,-6.4996,-6.4996,-6.4996,-6.4996,-6.4996,-6.4996,-6.4996,-6.4996,-6.4996,-6.4996,-6.4996,-6.4996,-6.4996,-6.4996,-6.4996,-6.4996,-6.4996,-6.4996,-6.4996,-6.4996,-6.4996,-6.4996,-6.4996,-6.4996,-6.4996,-6.4996,-6.4996,-6.4996,-6.4996,-6.4996,-6.4996,-6.4996,-6.4996,-6.4996,-6.4996,-6.4996,-6.4996,-6.4996,0.0,0.0,0.0,0.0,0.0,0.0,0.0,0.0,0.0,0.0,0.0,0.0,0.0,-5.9045,-5.9597,-6.0496,-6.0961,-6.1193,-6.1193,-6.1193,-6.1193,-6.1193,-6.1193,-6.1309,-6.1571,-6.16,-6.1861,-6.247,-6.279,-6.3109,-6.3486,-6.4125,-6.4444,-6.4444,-6.4793,-6.4996,-6.4996,-6.4996,-6.4996,-6.4996,-6.4996,-6.4996,-6.5025,-6.6302,-6.7028,-6.7376,-6.8392,-6.8828,-6.8828,-6.8828,-6.8828,-6.8828,-6.8828,-6.8828,-6.8828,-6.8828,-6.8828,-6.8828,-6.8828,-6.8828,-6.8828,-6.8828,-6.8828,-6.8712,-6.8073,-6.7609,-6.7115,-6.6186,-6.5693,-6.5344,-6.5054,-6.4996,-6.4996,-6.4996,-6.4996,-6.4996,-6.4996,-6.4996,-6.4996,-6.4996,-6.4996,-6.4996,-6.4996,-6.4996,-6.4996,-6.4996,-6.4996,-6.4996,-6.4996,-6.4996,-6.4996,-6.4996,-6.4996,-6.4996,-6.4996,-6.4996,-6.4996,-6.4996,-6.4996,-6.4996,-6.4996,-6.4996,-6.4996,-6.4996,-6.4996,-6.4996,-6.4996,-6.4996,-6.4996,-6.4996,-6.4996,-6.4996,0.0,0.0,0.0,0.0,0.0,0.0,0.0,0.0,0.0,0.0,0.0,0.0,0.0,-5.8581,-5.9306,-6.0061,-6.0613,-6.099,-6.1164,-6.1193,-6.1193,-6.1193,-6.1193,-6.1193,-6.1193,-6.1193,-6.1396,-6.1832,-6.2006,-6.2325,-6.2819,-6.3457,-6.3864,-6.3975,-6.4502,-6.4822,-6.4996,-6.4996,-6.4996,-6.4996,-6.4996,-6.4996,-6.5025,-6.6302,-6.6883,-6.6941,-6.8276,-6.8828,-6.8828,-6.8828,-6.8828,-6.8828,-6.8828,-6.8828,-6.8828,-6.8828,-6.8828,-6.8828,-6.8828,-6.8828,-6.8828,-6.8828,-6.8712,-6.8479,-6.7812,-6.7173,-6.6506,-6.5867,-6.5344,-6.4996,-6.4996,-6.4996,-6.4996,-6.4996,-6.4996,-6.4996,-6.4996,-6.4996,-6.4996,-6.4996,-6.4996,-6.4996,-6.4996,-6.4996,-6.4996,-6.4996,-6.4996,-6.4996,-6.4996,-6.4996,-6.4996,-6.4996,-6.4996,-6.4996,-6.4996,-6.4996,-6.4996,-6.4996,-6.4996,-6.4996,-6.4996,-6.4996,-6.4996,-6.4996,-6.4996,-6.4996,-6.4996,-6.4996,-6.4996,-6.4996,-6.4996,-6.4996,0.0,0.0,0.0,0.0,0.0,0.0,0.0,0.0,0.0,0.0,0.0,0.0,0.0,-5.7913,-5.8755,-6.0003,-6.0235,-6.0467,-6.1106,-6.1193,-6.1193,-6.1193,-6.1193,-6.1193,-6.1193,-6.1193,-6.1222,-6.1251,-6.1774,-6.2122,-6.2151,-6.279,-6.3428,-6.3946,-6.4004,-6.4386,-6.4967,-6.4996,-6.4996,-6.4996,-6.4996,-6.4996,-6.5025,-6.6302,-6.6883,-6.6941,-6.8276,-6.8828,-6.8828,-6.8828,-6.8828,-6.8828,-6.8828,-6.8828,-6.8828,-6.8828,-6.8828,-6.8828,-6.8828,-6.8828,-6.8828,-6.8828,-6.8421,-6.7812,-6.7144,-6.6476,-6.5867,-6.5228,-6.4996,-6.4996,-6.4996,-6.4996,-6.4996,-6.4996,-6.4996,-6.4996,-6.4996,-6.4996,-6.4996,-6.4996,-6.4996,-6.4996,-6.4996,-6.4996,-6.4996,-6.4996,-6.4996,-6.4996,-6.4996,-6.4996,-6.4996,-6.4996,-6.4996,-6.4996,-6.4996,-6.4996,-6.4996,-6.4996,-6.4996,-6.4996,-6.4996,-6.4996,-6.4996,-6.4996,-6.4996,-6.4996,-6.4996,-6.4996,-6.4996,-6.4996,-6.4996,-6.4996,0.0,0.0,0.0,0.0,0.0,0.0,0.0,0.0,0.0,0.0,0.0,0.0,0.0,0.0,-5.8464,-5.89,-5.9655,-6.0293,-6.0526,-6.0932,-6.1193,-6.1193,-6.1193,-6.1193,-6.1193,-6.1193,-6.1193,-6.1193,-6.1396,-6.1513,-6.1513,-6.2122,-6.2558,-6.279,-6.3603,-6.4328,-6.4967,-6.4996,-6.4996,-6.4996,-6.4996,-6.4996,-6.5025,-6.6302,-6.6883,-6.6941,-6.8276,-6.8828,-6.8828,-6.8828,-6.8828,-6.8828,-6.8828,-6.8828,-6.8828,-6.8828,-6.8828,-6.8828,-6.8828,-6.8828,-6.877,-6.8363,-6.8073,-6.7667,-6.6593,-6.6099,-6.5809,-6.517,-6.4996,-6.4996,-6.4996,-6.4996,-6.4996,-6.4996,-6.4996,-6.4996,-6.4996,-6.4996,-6.4996,-6.4996,-6.4996,-6.4996,-6.4996,-6.4996,-6.4996,-6.4996,-6.4996,-6.4996,-6.4996,-6.4996,-6.4996,-6.4996,-6.4996,-6.4996,-6.4996,-6.4996,-6.4996,-6.4996,-6.4996,-6.4996,-6.4996,-6.4996,-6.4996,-6.4996,-6.4996,-6.4996,-6.4996,-6.4996,-6.4996,-6.4996,-6.4996,-6.4996,0.0,0.0,0.0,0.0,0.0,0.0,0.0,0.0,0.0,0.0,0.0,0.0,0.0,0.0,-5.8029,-5.8261,-5.9016,-5.9713,-6.0148,-6.0584,-6.0932,-6.1164,-6.1193,-6.1193,-6.1193,-6.1193,-6.1193,-6.1193,-6.1193,-6.1193,-6.1193,-6.1571,-6.189,-6.2093,-6.3138,-6.4038,-6.4677,-6.4677,-6.4764,-6.4996,-6.4996,-6.4996,-6.5025,-6.6302,-6.6883,-6.6941,-6.8276,-6.8828,-6.8828,-6.8828,-6.8828,-6.8828,-6.8828,-6.8828,-6.8828,-6.8828,-6.8828,-6.8828,-6.8828,-6.8683,-6.845,-6.8015,-6.758,-6.7057,-6.6186,-6.578,-6.5519,-6.5112,-6.4996,-6.4996,-6.4996,-6.4996,-6.4996,-6.4996,-6.4996,-6.4996,-6.4996,-6.4996,-6.4996,-6.4996,-6.4996,-6.4996,-6.4996,-6.4996,-6.4996,-6.4996,-6.4996,-6.4996,-6.4996,-6.4996,-6.4996,-6.4996,-6.4996,-6.4996,-6.4996,-6.4996,-6.4996,-6.4996,-6.4996,-6.4996,-6.4996,-6.4996,-6.4996,-6.4996,-6.4996,-6.4996,-6.4996,-6.4996,-6.4996,-6.4996,-6.4996,-6.4996,0.0,0.0,0.0,0.0,0.0,0.0,0.0,0.0,0.0,0.0,0.0,0.0,0.0,0.0,0.0,-5.8174,-5.829,-5.8726,-5.9974,-6.0148,-6.0409,-6.1077,-6.1164,-6.1164,-6.1193,-6.1193,-6.1193,-6.1193,-6.1193,-6.1193,-6.1193,-6.1193,-6.1483,-6.2064,-6.2732,-6.337,-6.3946,-6.3975,-6.4357,-6.4967,-6.4967,-6.4996,-6.5025,-6.6302,-6.6883,-6.6941,-6.8276,-6.8828,-6.8828,-6.8828,-6.8828,-6.8828,-6.8828,-6.8828,-6.8828,-6.8828,-6.8828,-6.8828,-6.8799,-6.8392,-6.787,-6.7841,-6.697,-6.5925,-6.5896,-6.546,-6.4996,-6.4996,-6.4996,-6.4996,-6.4996,-6.4996,-6.4996,-6.4996,-6.4996,-6.4996,-6.4996,-6.4996,-6.4996,-6.4996,-6.4996,-6.4996,-6.4996,-6.4996,-6.4996,-6.4996,-6.4996,-6.4996,-6.4996,-6.4996,-6.4996,-6.4996,-6.4996,-6.4996,-6.4996,-6.4996,-6.4996,-6.4996,-6.4996,-6.4996,-6.4996,-6.4996,-6.4996,-6.4996,-6.4996,-6.4996,-6.4996,-6.4996,-6.4996,-6.4996,-6.4996,-6.4996,-5.35,0.0,0.0,0.0,0.0,0.0,-5.5533,-5.62,0.0,0.0,0.0,0.0,0.0,0.0,0.0,0.0,-5.8,-5.8435,-5.8784,-5.9248,-5.9771,-6.0409,-6.0467,-6.0671,-6.1164,-6.1193,-6.1193,-6.1193,-6.1193,-6.1193,-6.1193,-6.1193,-6.1483,-6.2064,-6.2267,-6.2674,-6.3341,-6.3806,-6.4125,-6.4299,-6.4764,-6.4996,-6.5025,-6.6302,-6.6883,-6.6941,-6.8276,-6.8828,-6.8828,-6.8828,-6.8828,-6.8828,-6.8828,-6.8828,-6.8828,-6.8828,-6.8828,-6.877,-6.8305,-6.8015,-6.7725,-6.6767,-6.6215,-6.5838,-6.5373,-6.5112,-6.4996,-6.4996,-6.4996,-6.4996,-6.4996,-6.4996,-6.4996,-6.4996,-6.4996,-6.4996,-6.4996,-6.4996,-6.4996,-6.4996,-6.4996,-6.4996,-6.4996,-6.4996,-6.4996,-6.4996,-6.4996,-6.4996,-6.4996,-6.4996,-6.4996,-6.4996,-6.4996,-6.4996,-6.4996,-6.4996,-6.4996,-6.4996,-6.4996,-6.4996,-6.4996,-6.4996,-6.4996,-6.4996,-6.4996,-6.4996,-6.4996,-6.4996,-6.4996,-6.4996,-6.4996,-6.4996,-5.35,-5.35,-5.35,-5.35,0.0,0.0,-5.5271,-5.5939,-5.6578,0.0,0.0,0.0,0.0,0.0,0.0,0.0,-5.7623,-5.7971,-5.8261,-5.8639,-5.9132,-5.9742,-6.0032,-6.0351,-6.0729,-6.1048,-6.1193,-6.1193,-6.1193,-6.1193,-6.1193,-6.1193,-6.1367,-6.1716,-6.1716,-6.2035,-6.2674,-6.3051,-6.3486,-6.3975,-6.4415,-6.4735,-6.5025,-6.6302,-6.6883,-6.6941,-6.8276,-6.8828,-6.8828,-6.8828,-6.8828,-6.8828,-6.8828,-6.8828,-6.8828,-6.8828,-6.8828,-6.8741,-6.8102,-6.7696,-6.7289,-6.6273,-6.5751,-6.546,-6.5112,-6.4996,-6.4996,-6.4996,-6.4996,-6.4996,-6.4996,-6.4996,-6.4996,-6.4996,-6.4996,-6.4996,-6.4996,-6.4996,-6.4996,-6.4996,-6.4996,-6.4996,-6.4996,-6.4996,-6.4996,-6.4996,-6.4996,-6.4996,-6.4996,-6.4996,-6.4996,-6.4996,-6.4996,-6.4996,-6.4996,-6.4996,-6.4996,-6.4996,-6.4996,-6.4996,-6.4996,-6.4996,-6.4996,-6.4996,-6.4996,-6.4996,-6.4996,-6.4996,-6.4996,-6.4996,-6.4996,-6.4996,-5.35,-5.35,-5.35,-5.35,-5.3965,0.0,-5.5184,-5.5823,-5.6461,0.0,0.0,0.0,0.0,0.0,0.0,0.0,0.0,-5.7507,-5.8116,-5.8203,-5.8435,-5.9103,-5.9655,-6.0032,-6.0177,-6.0729,-6.1106,-6.1193,-6.1193,-6.1193,-6.1193,-6.1193,-6.1193,-6.1193,-6.1193,-6.1454,-6.1977,-6.2064,-6.2703,-6.3859,-6.3946,-6.4357,-6.5025,-6.6302,-6.6883,-6.6941,-6.8276,-6.8828,-6.8828,-6.8828,-6.8828,-6.8828,-6.8828,-6.8828,-6.8828,-6.8828,-6.877,-6.8625,-6.7986,-6.7347,-6.668,-6.6041,-6.546,-6.4996,-6.4996,-6.4996,-6.4996,-6.4996,-6.4996,-6.4996,-6.4996,-6.4996,-6.4996,-6.4996,-6.4996,-6.4996,-6.4996,-6.4996,-6.4996,-6.4996,-6.4996,-6.4996,-6.4996,-6.4996,-6.4996,-6.4996,-6.4996,-6.4996,-6.4996,-6.4996,-6.4996,-6.4996,-6.4996,-6.4996,-6.4996,-6.4996,-6.4996,-6.4996,-6.4996,-6.4996,-6.4996,-6.4996,-6.4996,-6.4996,-6.4996,-6.4996,-6.4996,-6.4996,-6.4996,-6.4996,-6.4996,-6.4996,-5.35,-5.35,-5.35,-5.35,-5.3617,0.0,-5.4546,-5.5155,-5.5794,0.0,0.0,0.0,0.0,0.0,0.0,0.0,0.0,-5.7361,-5.7477,-5.7507,-5.7739,-5.8406,-5.861,-5.9074,-6.009,-6.0322,-6.0613,-6.1164,-6.1193,-6.1193,-6.1193,-6.1193,-6.1193,-6.1193,-6.1193,-6.1251,-6.1367,-6.1861,-6.2499,-6.3283,-6.3806,-6.4357,-6.5025,-6.6302,-6.6883,-6.6941,-6.8276,-6.8828,-6.8828,-6.8828,-6.8828,-6.8828,-6.8828,-6.8828,-6.8828,-6.8828,-6.8509,-6.7957,-6.7289,-6.6651,-6.6012,-6.5373,-6.5083,-6.4996,-6.4996,-6.4996,-6.4996,-6.4996,-6.4996,-6.4996,-6.4996,-6.4996,-6.4996,-6.4996,-6.4996,-6.4996,-6.4996,-6.4996,-6.4996,-6.4996,-6.4996,-6.4996,-6.4996,-6.4996,-6.4996,-6.4996,-6.4996,-6.4996,-6.4996,-6.4996,-6.4996,-6.4996,-6.4996,-6.4996,-6.4996,-6.4996,-6.4996,-6.4996,-6.4996,-6.4996,-6.4996,-6.4996,-6.4996,-6.4996,-6.4996,-6.4996,-6.4996,-6.4996,-6.4996,-6.4996,-6.4996,-6.4996,-5.35,-5.35,-5.35,-5.35,-5.35,0.0,0.0,-5.4981,-5.5591,0.0,0.0,0.0,0.0,0.0,0.0,0.0,0.0,-5.7303,-5.7303,-5.7303,-5.7419,-5.7768,-5.8116,-5.8552,-5.919,-5.9539,-6.0032,-6.0642,-6.1019,-6.1193,-6.1193,-6.1193,-6.1193,-6.1193,-6.1193,-6.1193,-6.1193,-6.1483,-6.1977,-6.2616,-6.3254,-6.3893,-6.4561,-6.6157,-6.6883,-6.6941,-6.8276,-6.8828,-6.8828,-6.8828,-6.8828,-6.8828,-6.8828,-6.8828,-6.877,-6.8479,-6.816,-6.7754,-6.6738,-6.6186,-6.5838,-6.5199,-6.4996,-6.4996,-6.4996,-6.4996,-6.4996,-6.4996,-6.4996,-6.4996,-6.4996,-6.4996,-6.4996,-6.4996,-6.4996,-6.4996,-6.4996,-6.4996,-6.4996,-6.4996,-6.4996,-6.4996,-6.4996,-6.4996,-6.4996,-6.4996,-6.4996,-6.4996,-6.4996,-6.4996,-6.4996,-6.4996,-6.4996,-6.4996,-6.4996,-6.4996,-6.4996,-6.4996,-6.4996,-6.4996,-6.4996,-6.4996,-6.4996,-6.4996,-6.4996,-6.4996,-6.4996,-6.4996,-6.4996,-6.4996,-6.4996,-6.4996,-5.35,-5.35,-5.35,-5.35,-5.35,-5.3704,0.0,0.0,0.0,-5.6258,0.0,0.0,0.0,0.0,0.0,0.0,0.0,0.0,0.0,-5.7216,0.0,-5.7303,-5.7768,-5.8174,-5.829,-5.89,-5.9539,-6.0148,-6.07,-6.1048,-6.1193,-6.1193,-6.1193,-6.1193,-6.1193,-6.1193,-6.1193,-6.1193,-6.1483,-6.2093,-6.2761,-6.3428,-6.4033,-6.6012,-6.6883,-6.6941,-6.8276,-6.8828,-6.8828,-6.8828,-6.8828,-6.8828,-6.8828,-6.8741,-6.8596,-6.8073,-6.7725,-6.7347,-6.6302,-6.5838,-6.5664,-6.5141,-6.4996,-6.4996,-6.4996,-6.4996,-6.4996,-6.4996,-6.4996,-6.4996,-6.4996,-6.4996,-6.4996,-6.4996,-6.4996,-6.4996,-6.4996,-6.4996,-6.4996,-6.4996,-6.4996,-6.4996,-6.4996,-6.4996,-6.4996,-6.4996,-6.4996,-6.4996,-6.4996,-6.4996,-6.4996,-6.4996,-6.4996,-6.4996,-6.4996,-6.4996,-6.4996,-6.4996,-6.4996,-6.4996,-6.4996,-6.4996,-6.4996,-6.4996,-6.4996,-6.4996,-6.4996,-6.4996,-6.4996,-6.4996,-6.4996,-6.4996,-5.35,-5.35,-5.35,-5.35,-5.35,-5.3704,-5.4371,0.0,-5.5591,-5.6258,0.0,0.0,0.0,0.0,0.0,0.0,0.0,0.0,-5.6578,-5.6955,-5.7303,-5.7303,-5.7361,-5.7652,-5.8232,-5.89,-5.9539,-6.0148,-6.0264,-6.0584,-6.1164,-6.1193,-6.1193,-6.1193,-6.1193,-6.1193,-6.1193,-6.1193,-6.1483,-6.2093,-6.2761,-6.3428,-6.4033,-6.6012,-6.6883,-6.6941,-6.8276,-6.8828,-6.8828,-6.8828,-6.8828,-6.8828,-6.8828,-6.8479,-6.7986,-6.7899,-6.7144,-6.6128,-6.5983,-6.5577,-6.5083,-6.4996,-6.4996,-6.4996,-6.4996,-6.4996,-6.4996,-6.4996,-6.4996,-6.4996,-6.4996,-6.4996,-6.4996,-6.4996,-6.4996,-6.4996,-6.4996,-6.4996,-6.4996,-6.4996,-6.4996,-6.4996,-6.4996,-6.4996,-6.4996,-6.4996,-6.4996,-6.4996,-6.4996,-6.4996,-6.4996,-6.4996,-6.4996,-6.4996,-6.4996,-6.4996,-6.4996,-6.4996,-6.4996,-6.4996,-6.4996,-6.4996,-6.4996,-6.4996,-6.4996,-6.4996,-6.4996,-6.4996,-6.4996,-6.4996,-6.4996,-6.4996,-5.3994,-5.4081,-5.4168,-5.4517,-5.4604,-5.4691,-5.4981,-5.5533,-5.6055,-5.6345,0.0,0.0,0.0,0.0,0.0,0.0,-5.7129,-5.7216,0.0,0.0,-5.7303,0.0,0.0,0.0,-5.7681,-5.8319,-5.8987,-5.9626,-6.0003,-6.0496,-6.1164,-6.1193,-6.1193,-6.1193,-6.1193,-6.1193,-6.1193,-6.1193,-6.1338,-6.1571,-6.2209,-6.2848,-6.3545,-6.546,-6.6535,-6.6941,-6.8276,-6.8828,-6.8828,-6.8828,-6.8596,-6.8276,-6.8276,-6.8102,-6.7783,-6.7028,-6.6389,-6.5867,-6.5519,-6.5199,-6.4996,-6.4996,-6.4996,-6.4996,-6.4996,-6.4996,-6.4996,-6.4996,-6.4996,-6.4996,-6.4996,-6.4996,-6.4996,-6.4996,-6.4996,-6.4996,-6.4996,-6.4996,-6.4996,-6.4996,-6.4996,-6.4996,-6.4996,-6.4996,-6.4996,-6.4996,-6.4996,-6.4996,-6.4996,-6.4996,-6.4996,-6.4996,-6.4996,-6.5141,-6.5489,-6.5519,-6.5693,-6.607,-6.6099,-6.6099,-6.6099,-6.6099,-6.5925,-6.5548,-6.5519,-6.5344,-6.4996,-6.4996,-6.4996,-6.4996,-6.4996,-6.4996,-5.4633,-5.4749,-5.4865,-5.53,-5.5416,-5.5445,-5.5649,-5.6055,-5.6461,-5.6607,-5.7013,0.0,0.0,0.0,-5.7245,-5.7071,0.0,-5.7245,0.0,-5.7216,0.0,0.0,-5.7303,0.0,0.0,-5.7739,-5.829,-5.8987,-5.9597,-6.0235,-6.0874,-6.1106,-6.1193,-6.1193,-6.1193,-6.1193,-6.1193,-6.1193,-6.1193,-6.1222,-6.1803,-6.2529,-6.3399,-6.5141,-6.6389,-6.7202,-6.8334,-6.8828,-6.8828,-6.8828,-6.845,-6.787,-6.7696,-6.7492,-6.7231,-6.6273,-6.5838,-6.5606,-6.5141,-6.4996,-6.4996,-6.4996,-6.4996,-6.4996,-6.4996,-6.4996,-6.4996,-6.4996,-6.4996,-6.4996,-6.4996,-6.4996,-6.4996,-6.4996,-6.4996,-6.4996,-6.4996,-6.4996,-6.4996,-6.4996,-6.4996,-6.4996,-6.4996,-6.4996,-6.4996,-6.4996,-6.4996,-6.4996,-6.4996,-6.4996,-6.5054,-6.5228,-6.5257,-6.5489,-6.6128,-6.6186,-6.6389,-6.6854,-6.6883,-6.6883,-6.6883,-6.6883,-6.6651,-6.6186,-6.6186,-6.5954,-6.5519,-6.5519,-6.5519,-6.5489,-6.5141,-6.4996,-5.5387,-5.5387,-5.5387,-5.5416,-5.5416,-5.5591,-5.6229,-5.6403,-5.6578,-5.7158,-5.7303,-5.7303,-5.7303,-5.7303,-5.71,-5.652,-5.6926,0.0,0.0,0.0,0.0,-5.7303,-5.7303,-5.7303,0.0,-5.7332,-5.7623,-5.829,-5.8958,-5.9597,-6.0206,-6.0845,-6.1193,-6.1193,-6.1193,-6.1193,-6.1193,-6.1193,-6.1193,-6.1222,-6.1803,-6.2761,-6.3975,-6.528,-6.6622,-6.7899,-6.8538,-6.8828,-6.8828,-6.8828,-6.845,-6.7812,-6.7173,-6.6535,-6.5983,-6.5954,-6.5548,-6.5025,-6.4996,-6.4996,-6.4996,-6.4996,-6.4996,-6.4996,-6.4996,-6.4996,-6.4996,-6.4996,-6.4996,-6.4996,-6.4996,-6.4996,-6.4996,-6.4996,-6.4996,-6.4996,-6.4996,-6.4996,-6.4996,-6.4996,-6.4996,-6.4996,-6.4996,-6.4996,-6.4996,-6.4996,-6.4996,-6.4996,-6.4996,-6.4996,-6.5228,-6.5838,-6.5896,-6.6157,-6.6796,-6.6854,-6.6854,-6.6883,-6.6883,-6.6883,-6.6883,-6.6883,-6.6883,-6.6854,-6.6854,-6.6854,-6.6825,-6.6825,-6.6825,-6.6796,-6.5548,-6.4996,-5.5939,-5.6084,-5.6171,-5.6578,-5.6665,-5.6723,-5.6955,-5.7013,-5.7042,-5.7274,-5.7303,-5.7303,-5.7303,-5.7303,-5.7245,-5.7042,-5.7158,-5.7245,0.0,-5.7187,-5.7303,-5.7303,-5.7303,-5.7303,0.0,0.0,0.0,0.0,-5.8523,-5.9103,-6.0148,-6.0409,-6.0729,-6.1193,-6.1193,-6.1193,-6.1193,-6.1193,-6.1193,-6.1193,-6.1396,-6.2383,-6.4004,-6.4909,-6.6244,-6.7899,-6.8567,-6.8828,-6.8799,-6.8363,-6.7812,-6.7144,-6.6506,-6.5867,-6.5315,-6.5315,-6.517,-6.4996,-6.4996,-6.4996,-6.4996,-6.4996,-6.4996,-6.4996,-6.4996,-6.4996,-6.4996,-6.4996,-6.4996,-6.4996,-6.4996,-6.4996,-6.4996,-6.4996,-6.4996,-6.4996,-6.4996,-6.4996,-6.4996,-6.4996,-6.4996,-6.4996,-6.4996,-6.4996,-6.4996,-6.4996,-6.4996,-6.5141,-6.5548,-6.5606,-6.5867,-6.6476,-6.6564,-6.6825,-6.7492,-6.7928,-6.816,-6.816,-6.816,-6.816,-6.816,-6.816,-6.7957,-6.7551,-6.7551,-6.7318,-6.6883,-6.6883,-6.6883,-6.6883,-6.6447,-6.6012,-5.6607,-5.6723,-5.681,-5.7216,-5.7303,-5.7303,-5.7303,-5.7303,-5.7303,-5.7303,-5.7303,-5.7303,-5.7303,-5.7303,-5.7303,-5.7303,-5.7303,-5.7303,0.0,-5.7303,-5.7303,-5.7303,-5.7303,-5.7303,0.0,0.0,0.0,0.0,0.0,0.0,0.0,-6.009,-6.0496,-6.1164,-6.1193,-6.1193,-6.1193,-6.1193,-6.1193,-6.1193,-6.1193,-6.2325,-6.4386,-6.4793,-6.6157,-6.8247,-6.8654,-6.8712,-6.845,-6.8044,-6.7347,-6.6506,-6.6099,-6.5548,-6.4996,-6.4996,-6.4996,-6.4996,-6.4996,-6.4996,-6.4996,-6.4996,-6.4996,-6.4996,-6.4996,-6.4996,-6.4996,-6.4996,-6.4996,-6.4996,-6.4996,-6.4996,-6.4996,-6.4996,-6.4996,-6.4996,-6.4996,-6.4996,-6.4996,-6.4996,-6.4996,-6.4996,-6.4996,-6.517,-6.5315,-6.5315,-6.5315,-6.5548,-6.6186,-6.6273,-6.6506,-6.7173,-6.7231,-6.7492,-6.816,-6.8596,-6.8828,-6.8828,-6.8828,-6.8828,-6.8828,-6.8828,-6.8538,-6.7899,-6.8102,-6.7899,-6.7231,-6.7463,-6.758,-6.7551,-6.7347,-6.6999]},{"header":{"parameterUnit":"m.s-1","parameterCategory":1,"la1":30.6,"la2":29.2853,"lo1":-89.7004,"lo2":-87.6739,"dy":0.0162,"dx":0.0183,"nx":112,"ny":82,"refTime":"2024-02-17T06:00:00:Z","depth":0,"parameterNumber":3,"parameterNumberName":"V-component_of_WINDS"},"data":[0.0,0.0,0.0,0.0,0.0,0.0,0.0,0.0,0.0,0.0,0.0,0.0,0.0,0.0,0.0,0.0,0.0,0.0,0.0,0.0,0.0,0.0,0.0,0.0,0.0,0.0,0.0,0.0,0.0,0.0,0.0,0.0,0.0,0.0,0.0,0.0,0.0,0.0,0.0,0.0,0.0,0.0,0.0,0.0,0.0,0.0,0.0,0.0,0.0,0.0,0.0,0.0,0.0,0.0,0.0,0.0,0.0,0.0,0.0,0.0,0.0,0.0,0.0,0.0,0.0,0.0,0.0,0.0,0.0,0.0,0.0,0.0,0.0,0.0,0.0,0.0,0.0,0.0,0.0,0.0,0.0,0.0,0.0,0.0,0.0,0.0,0.0,0.0,0.0,0.0,-4.3635,-4.3718,-4.378,-4.3987,-4.4381,-4.4401,-4.4588,-4.496,0.0,0.0,0.0,0.0,0.0,0.0,0.0,0.0,0.0,0.0,0.0,0.0,0.0,0.0,0.0,0.0,0.0,0.0,0.0,0.0,0.0,0.0,0.0,0.0,0.0,0.0,0.0,0.0,0.0,0.0,0.0,0.0,0.0,0.0,0.0,0.0,0.0,0.0,0.0,0.0,0.0,0.0,0.0,0.0,0.0,0.0,0.0,0.0,0.0,0.0,0.0,0.0,0.0,0.0,0.0,0.0,0.0,0.0,0.0,0.0,0.0,0.0,0.0,0.0,0.0,0.0,0.0,0.0,0.0,0.0,0.0,0.0,0.0,0.0,0.0,0.0,0.0,0.0,0.0,0.0,0.0,0.0,0.0,0.0,0.0,0.0,0.0,0.0,0.0,0.0,0.0,0.0,0.0,0.0,0.0,0.0,0.0,0.0,0.0,0.0,0.0,0.0,0.0,0.0,-4.376,-4.4153,-4.4546,-4.4815,-4.4877,-4.4877,-4.4919,-4.4981,0.0,0.0,0.0,0.0,0.0,0.0,0.0,0.0,0.0,0.0,0.0,0.0,0.0,0.0,0.0,0.0,0.0,0.0,0.0,0.0,0.0,0.0,0.0,0.0,0.0,0.0,0.0,0.0,0.0,0.0,0.0,0.0,0.0,0.0,0.0,0.0,0.0,0.0,0.0,0.0,0.0,0.0,0.0,0.0,0.0,0.0,0.0,0.0,0.0,0.0,0.0,0.0,0.0,0.0,0.0,0.0,0.0,0.0,0.0,0.0,0.0,0.0,0.0,0.0,0.0,0.0,0.0,0.0,0.0,0.0,0.0,0.0,0.0,0.0,0.0,0.0,0.0,0.0,0.0,0.0,0.0,0.0,0.0,0.0,0.0,0.0,0.0,0.0,0.0,0.0,0.0,0.0,0.0,0.0,0.0,0.0,0.0,0.0,0.0,0.0,0.0,0.0,0.0,-4.436,-4.4443,-4.465,-4.4857,-4.5084,-4.5354,-4.5374,-4.5478,-4.5705,-4.5726,0.0,0.0,0.0,0.0,0.0,0.0,0.0,0.0,0.0,0.0,0.0,0.0,0.0,0.0,0.0,0.0,0.0,0.0,0.0,0.0,0.0,0.0,0.0,0.0,0.0,0.0,0.0,0.0,0.0,0.0,0.0,0.0,0.0,0.0,0.0,0.0,0.0,0.0,0.0,0.0,0.0,0.0,0.0,0.0,0.0,0.0,0.0,0.0,0.0,0.0,0.0,0.0,0.0,0.0,0.0,0.0,0.0,0.0,0.0,0.0,0.0,0.0,0.0,0.0,0.0,0.0,0.0,0.0,0.0,0.0,0.0,0.0,0.0,0.0,0.0,0.0,0.0,0.0,0.0,0.0,0.0,0.0,0.0,0.0,0.0,0.0,0.0,0.0,0.0,0.0,0.0,0.0,0.0,0.0,0.0,0.0,0.0,0.0,0.0,0.0,0.0,0.0,-4.5084,-4.5167,-4.5167,-4.525,-4.5457,-4.5809,-4.585,-4.5975,-4.6246,-4.6266,0.0,0.0,0.0,0.0,0.0,0.0,0.0,0.0,0.0,0.0,0.0,0.0,0.0,0.0,0.0,0.0,0.0,0.0,0.0,0.0,0.0,0.0,0.0,0.0,0.0,0.0,0.0,0.0,0.0,0.0,0.0,0.0,0.0,0.0,0.0,0.0,0.0,0.0,0.0,0.0,0.0,0.0,0.0,0.0,0.0,0.0,0.0,0.0,0.0,0.0,0.0,0.0,0.0,0.0,0.0,0.0,0.0,0.0,0.0,0.0,0.0,0.0,0.0,0.0,0.0,0.0,0.0,0.0,0.0,0.0,0.0,0.0,0.0,0.0,0.0,0.0,0.0,0.0,0.0,0.0,0.0,0.0,0.0,0.0,0.0,0.0,0.0,0.0,0.0,0.0,0.0,0.0,0.0,0.0,0.0,0.0,0.0,0.0,0.0,0.0,0.0,0.0,-4.5374,-4.5643,-4.5643,-4.6016,-4.6184,-4.6306,-4.6306,-4.6225,-4.6266,-4.6266,0.0,0.0,0.0,0.0,0.0,0.0,0.0,0.0,0.0,0.0,0.0,0.0,0.0,0.0,0.0,0.0,0.0,0.0,0.0,0.0,0.0,0.0,0.0,0.0,0.0,0.0,0.0,0.0,0.0,0.0,0.0,0.0,0.0,0.0,0.0,0.0,0.0,0.0,0.0,0.0,0.0,0.0,0.0,0.0,0.0,0.0,0.0,0.0,0.0,0.0,0.0,0.0,0.0,0.0,0.0,0.0,0.0,0.0,0.0,0.0,0.0,0.0,0.0,0.0,0.0,0.0,0.0,0.0,0.0,0.0,0.0,0.0,0.0,0.0,0.0,0.0,0.0,0.0,0.0,0.0,0.0,0.0,0.0,0.0,0.0,0.0,0.0,0.0,0.0,0.0,0.0,0.0,0.0,0.0,0.0,0.0,0.0,0.0,0.0,0.0,0.0,0.0,-4.5995,-4.6099,-4.6099,-4.6244,-4.6266,-4.6266,-4.6266,-4.6266,-4.6266,0.0,0.0,0.0,0.0,0.0,0.0,0.0,0.0,0.0,0.0,0.0,0.0,0.0,0.0,0.0,0.0,0.0,0.0,0.0,0.0,0.0,0.0,0.0,0.0,0.0,0.0,0.0,0.0,0.0,0.0,0.0,0.0,0.0,0.0,0.0,0.0,0.0,0.0,0.0,0.0,0.0,0.0,0.0,0.0,0.0,0.0,0.0,0.0,0.0,0.0,0.0,0.0,0.0,0.0,0.0,0.0,0.0,0.0,0.0,0.0,0.0,0.0,0.0,0.0,0.0,0.0,0.0,0.0,0.0,0.0,0.0,0.0,0.0,0.0,0.0,0.0,0.0,0.0,0.0,0.0,0.0,0.0,0.0,0.0,0.0,0.0,0.0,0.0,0.0,0.0,0.0,0.0,0.0,0.0,0.0,0.0,0.0,0.0,0.0,0.0,0.0,0.0,-4.6225,-4.6266,-4.6266,-4.6266,-4.6266,-4.6266,-4.6266,-4.6266,-4.6266,-4.6266,0.0,0.0,0.0,0.0,0.0,0.0,0.0,0.0,0.0,0.0,0.0,0.0,0.0,0.0,0.0,0.0,0.0,0.0,0.0,0.0,0.0,0.0,0.0,0.0,0.0,0.0,0.0,0.0,0.0,0.0,0.0,0.0,0.0,0.0,0.0,0.0,0.0,0.0,0.0,0.0,0.0,0.0,0.0,0.0,0.0,0.0,0.0,0.0,0.0,0.0,0.0,0.0,0.0,0.0,0.0,0.0,0.0,0.0,0.0,0.0,0.0,0.0,0.0,0.0,0.0,0.0,0.0,0.0,0.0,0.0,0.0,0.0,0.0,0.0,0.0,0.0,0.0,0.0,0.0,0.0,0.0,0.0,0.0,0.0,0.0,0.0,0.0,0.0,0.0,0.0,0.0,0.0,0.0,0.0,0.0,0.0,0.0,0.0,0.0,0.0,0.0,0.0,-4.6266,-4.6266,-4.6266,-4.6266,-4.6266,-4.6266,-4.6266,-4.6266,-4.6266,0.0,0.0,0.0,0.0,0.0,0.0,0.0,0.0,0.0,0.0,0.0,0.0,0.0,0.0,0.0,0.0,0.0,0.0,0.0,0.0,0.0,0.0,0.0,0.0,0.0,0.0,0.0,0.0,0.0,0.0,0.0,0.0,0.0,0.0,0.0,0.0,0.0,0.0,0.0,0.0,0.0,0.0,0.0,0.0,0.0,0.0,0.0,0.0,0.0,0.0,0.0,0.0,0.0,0.0,0.0,0.0,0.0,0.0,0.0,0.0,0.0,0.0,0.0,0.0,0.0,0.0,0.0,0.0,0.0,0.0,0.0,0.0,0.0,0.0,0.0,0.0,0.0,0.0,0.0,0.0,0.0,0.0,0.0,0.0,0.0,0.0,0.0,0.0,0.0,0.0,0.0,0.0,0.0,0.0,0.0,0.0,0.0,0.0,0.0,0.0,0.0,0.0,0.0,-4.6266,-4.6266,-4.6266,-4.6266,-4.6266,-4.6266,-4.6266,-4.6266,-4.6266,-4.6266,0.0,0.0,0.0,0.0,0.0,0.0,0.0,0.0,0.0,0.0,0.0,0.0,0.0,0.0,0.0,0.0,0.0,0.0,0.0,0.0,0.0,0.0,0.0,0.0,0.0,0.0,0.0,0.0,0.0,0.0,0.0,0.0,0.0,0.0,0.0,0.0,0.0,0.0,0.0,0.0,0.0,0.0,0.0,0.0,0.0,0.0,0.0,0.0,0.0,0.0,0.0,0.0,0.0,0.0,0.0,0.0,0.0,0.0,0.0,0.0,0.0,0.0,0.0,0.0,0.0,0.0,0.0,0.0,0.0,0.0,0.0,0.0,0.0,0.0,0.0,0.0,0.0,0.0,0.0,0.0,0.0,0.0,0.0,0.0,0.0,0.0,0.0,0.0,0.0,0.0,0.0,0.0,0.0,0.0,0.0,0.0,0.0,0.0,0.0,0.0,0.0,0.0,-4.7272,-4.789,-4.8288,-4.8288,-4.7651,-4.7272,-4.7272,-4.6649,-4.6266,-4.6266,0.0,0.0,0.0,0.0,0.0,0.0,0.0,0.0,0.0,0.0,0.0,0.0,0.0,0.0,0.0,0.0,0.0,0.0,0.0,0.0,0.0,0.0,0.0,0.0,0.0,0.0,0.0,0.0,0.0,0.0,0.0,0.0,0.0,0.0,0.0,0.0,0.0,0.0,0.0,0.0,0.0,0.0,0.0,0.0,0.0,0.0,0.0,0.0,0.0,0.0,0.0,0.0,0.0,0.0,0.0,0.0,0.0,0.0,0.0,0.0,0.0,0.0,0.0,0.0,0.0,0.0,0.0,0.0,0.0,0.0,0.0,0.0,0.0,0.0,0.0,0.0,0.0,0.0,0.0,0.0,0.0,0.0,0.0,0.0,0.0,0.0,0.0,0.0,0.0,0.0,0.0,0.0,0.0,0.0,0.0,0.0,0.0,0.0,0.0,0.0,0.0,0.0,-4.882,-5.0131,-5.1062,-5.1062,-4.9607,-4.8662,-4.882,-4.7272,-4.6347,-4.6509,0.0,0.0,0.0,0.0,0.0,0.0,0.0,0.0,0.0,0.0,0.0,0.0,0.0,0.0,0.0,0.0,0.0,0.0,0.0,0.0,0.0,0.0,0.0,0.0,0.0,0.0,0.0,0.0,0.0,0.0,0.0,0.0,0.0,0.0,0.0,0.0,0.0,0.0,0.0,0.0,0.0,0.0,0.0,0.0,0.0,0.0,0.0,0.0,0.0,0.0,0.0,0.0,0.0,0.0,0.0,0.0,0.0,0.0,0.0,0.0,-4.4805,-4.4805,0.0,0.0,0.0,0.0,0.0,0.0,0.0,0.0,0.0,0.0,0.0,0.0,0.0,0.0,0.0,0.0,0.0,0.0,0.0,0.0,0.0,0.0,0.0,0.0,0.0,0.0,0.0,0.0,0.0,0.0,0.0,0.0,0.0,0.0,0.0,0.0,0.0,0.0,0.0,0.0,-4.882,-4.9135,-4.9371,-4.9371,-4.781,-4.7352,-4.8662,-4.7272,-4.6891,-4.8208,-4.7031,0.0,0.0,0.0,0.0,0.0,0.0,0.0,0.0,0.0,0.0,0.0,0.0,0.0,0.0,0.0,0.0,0.0,0.0,0.0,0.0,0.0,0.0,0.0,0.0,0.0,0.0,0.0,0.0,0.0,0.0,0.0,0.0,0.0,0.0,0.0,0.0,0.0,0.0,0.0,0.0,0.0,0.0,0.0,0.0,0.0,0.0,0.0,0.0,0.0,0.0,0.0,0.0,0.0,0.0,0.0,0.0,0.0,0.0,0.0,-4.4201,-4.488,0.0,0.0,0.0,0.0,0.0,0.0,0.0,0.0,0.0,0.0,0.0,0.0,0.0,0.0,0.0,0.0,0.0,0.0,0.0,0.0,0.0,0.0,0.0,0.0,0.0,0.0,0.0,0.0,0.0,0.0,0.0,0.0,0.0,0.0,0.0,0.0,0.0,0.0,0.0,0.0,-4.9975,-5.0675,-5.1424,-5.2289,-5.0131,-4.9349,-5.1039,-4.8899,-4.8208,-4.9897,-4.8446,0.0,0.0,0.0,0.0,0.0,0.0,0.0,0.0,0.0,0.0,0.0,0.0,0.0,0.0,0.0,0.0,0.0,0.0,0.0,0.0,0.0,0.0,0.0,0.0,0.0,0.0,0.0,0.0,0.0,0.0,0.0,0.0,0.0,0.0,0.0,0.0,0.0,0.0,0.0,0.0,0.0,0.0,0.0,0.0,0.0,0.0,0.0,0.0,0.0,0.0,0.0,0.0,0.0,-4.7648,-4.6817,-4.4654,-4.5555,-4.5181,-4.3843,-4.3843,-4.488,-4.6522,-4.6387,0.0,0.0,0.0,0.0,0.0,0.0,0.0,0.0,0.0,0.0,0.0,0.0,0.0,0.0,0.0,0.0,0.0,0.0,0.0,0.0,0.0,0.0,-5.5582,-5.5582,-5.6362,-5.6798,-5.5803,0.0,0.0,0.0,0.0,0.0,0.0,0.0,0.0,0.0,0.0,0.0,-5.1678,-5.2897,-5.4199,-5.5582,-5.2821,-5.1524,-5.3124,-5.0287,-4.9214,-5.1139,-4.945,-4.8583,0.0,0.0,0.0,0.0,0.0,0.0,0.0,0.0,0.0,0.0,0.0,0.0,0.0,0.0,0.0,0.0,0.0,0.0,0.0,0.0,0.0,0.0,0.0,0.0,0.0,0.0,0.0,0.0,0.0,0.0,0.0,0.0,-5.0182,-4.9216,0.0,0.0,0.0,0.0,0.0,0.0,0.0,0.0,0.0,0.0,0.0,0.0,0.0,-4.7721,-4.8377,-4.7038,-4.6299,-4.6151,-4.6299,-4.5405,-4.3843,-4.533,-4.548,-4.4654,-4.4654,0.0,-4.4243,-4.6664,0.0,0.0,0.0,0.0,0.0,0.0,0.0,0.0,0.0,0.0,0.0,0.0,0.0,0.0,0.0,0.0,0.0,0.0,0.0,0.0,0.0,0.0,-5.807,-5.807,-5.8141,-5.8212,-5.807,-5.646,-5.4843,-5.4322,-5.4397,-5.3449,0.0,0.0,0.0,0.0,0.0,0.0,-5.3199,-5.3576,-5.3801,-5.405,-5.1116,-4.9819,-5.1447,-4.8504,-4.797,-5.1062,-4.8367,-4.789,-5.083,-4.9584,0.0,0.0,0.0,0.0,0.0,0.0,0.0,0.0,0.0,0.0,0.0,0.0,0.0,0.0,0.0,0.0,0.0,0.0,0.0,0.0,0.0,0.0,0.0,0.0,0.0,0.0,0.0,0.0,0.0,-4.9145,-4.8783,-4.92,-4.8991,-4.8916,0.0,0.0,0.0,0.0,0.0,0.0,0.0,0.0,0.0,-4.84,-4.8086,-4.8013,-4.84,-4.7721,-4.6891,-4.6002,-4.6448,-4.5853,-4.4277,-4.5031,-4.5405,-4.5502,-4.5761,-4.5437,-4.4774,-4.6538,-4.7938,-4.9026,0.0,0.0,0.0,0.0,-5.1431,-5.1431,-5.1431,-5.1431,-5.1431,-5.1431,0.0,0.0,0.0,0.0,0.0,0.0,0.0,-5.5287,-5.641,-5.7086,-5.7687,-5.8355,-5.8523,-5.8523,-5.8523,-5.7498,-5.646,-5.5778,-5.509,-5.3726,-5.0908,-5.0753,0.0,0.0,0.0,-5.1216,-5.0962,-5.0962,-5.127,-5.2289,-5.0209,-4.945,-5.1139,-4.9975,-5.0131,-5.2518,-5.0443,-5.0209,-5.2518,-5.1062,-5.0209,0.0,0.0,0.0,0.0,0.0,0.0,0.0,0.0,0.0,0.0,0.0,0.0,0.0,0.0,0.0,0.0,0.0,0.0,0.0,0.0,0.0,0.0,0.0,0.0,0.0,0.0,0.0,0.0,-4.9572,-4.903,-4.9765,-4.9748,-4.958,0.0,0.0,0.0,0.0,0.0,0.0,-4.8473,-4.84,-4.84,-4.84,-4.8159,-4.8086,-4.8086,-4.7868,-4.7038,-4.5704,-4.6522,-4.6077,-4.4504,-4.5106,-4.5555,-4.5726,-4.6429,-4.6561,-4.6387,-4.7333,-4.8656,-5.0017,-5.0613,-5.1087,-5.1431,-5.1431,-5.1431,-5.1431,-5.1431,-5.1431,-5.1431,-5.1431,-5.1562,-5.1947,-5.2253,0.0,0.0,0.0,0.0,-5.5361,-5.6798,-5.7159,-5.7303,-5.7901,-5.8284,-5.8452,-5.8141,-5.7999,-5.7687,-5.7086,-5.5826,-5.4001,-5.1424,-5.1447,0.0,-4.797,-5.0053,-5.1601,-5.083,-5.0675,-5.1216,-5.2442,-5.1062,-5.0365,-5.1216,-5.0908,-5.1139,-5.2342,-5.1293,-5.1601,-5.3651,-5.2518,-5.1907,-5.1907,0.0,0.0,0.0,0.0,0.0,0.0,0.0,0.0,0.0,0.0,0.0,0.0,0.0,0.0,0.0,0.0,0.0,0.0,0.0,0.0,0.0,0.0,0.0,0.0,0.0,0.0,0.0,0.0,0.0,-5.1763,-5.2529,0.0,0.0,0.0,0.0,-4.9985,-4.9078,-4.845,-4.84,-4.84,-4.84,-4.84,-4.7648,-4.7281,-4.7281,-4.6522,-4.5704,-4.488,-4.5704,-4.5256,-4.3767,-4.6002,-4.6299,-4.4902,-4.615,-4.7364,-4.8664,-4.9897,-4.9589,-4.852,-5.0562,-5.1408,-5.1431,-5.1431,-5.1431,-5.1431,-5.1431,-5.1431,-5.1431,-5.1431,-5.2154,-5.3346,-5.4472,-5.4098,0.0,0.0,-5.5851,-5.5509,-5.7856,-5.8426,-5.8141,-5.7086,-5.7687,-5.8212,-5.7014,-5.74,-5.7856,-5.7856,-5.6895,-5.5164,-5.2342,0.0,-5.257,-5.1216,-5.2518,-5.4124,-5.5582,-5.5827,-5.5827,-5.5901,-5.4423,-5.2897,-5.1447,-4.9819,-4.8978,-4.9057,-4.8978,-5.0365,-5.3576,-5.3651,-5.3576,-5.3576,-5.3576,0.0,0.0,0.0,0.0,0.0,0.0,0.0,0.0,0.0,0.0,0.0,0.0,0.0,0.0,0.0,0.0,0.0,0.0,0.0,0.0,0.0,0.0,0.0,0.0,0.0,0.0,0.0,0.0,-5.1743,-5.207,0.0,-5.1722,-5.2,-5.1652,-5.0198,-5.034,-4.9914,-4.8473,-4.84,-4.84,-4.84,-4.8086,-4.7941,-4.7941,-4.7186,-4.6374,-4.5555,-4.533,-4.5181,-4.5106,-4.4955,-4.5578,-4.6805,-4.7061,-4.7312,-4.7735,-5.0158,-5.0748,-5.0307,-5.1131,-5.1431,-5.1431,-5.1431,-5.1431,-5.1431,-5.1431,-5.1431,-5.1431,-5.1431,-5.223,-5.3271,-5.3699,-5.4074,-5.467,-5.6264,-5.6435,-5.6435,-5.807,-5.8523,-5.8355,-5.7973,-5.8212,-5.8355,-5.7927,-5.7856,-5.7927,-5.7927,-5.721,-5.5949,-5.3801,-5.4348,-5.4199,-5.1678,-5.267,-5.3501,-5.3124,-5.3072,-5.3072,-5.3072,-5.2518,-5.1907,-5.137,-5.1678,-5.1961,-5.1961,-5.1961,-5.2973,-5.5214,-5.4274,-5.4199,-5.5287,-5.5287,-5.5041,0.0,0.0,0.0,0.0,0.0,0.0,0.0,0.0,0.0,0.0,0.0,0.0,0.0,0.0,0.0,0.0,0.0,0.0,0.0,0.0,0.0,0.0,0.0,0.0,0.0,-5.2447,-5.2359,-5.2297,-5.2278,-5.2278,-5.2278,-5.2278,-5.1861,-5.0741,-5.0624,-4.9914,-4.8473,-4.84,-4.8305,-4.8013,-4.8232,-4.8159,-4.7575,-4.7332,-4.6817,-4.6002,-4.5181,-4.5106,-4.5555,-4.4673,-4.5437,-4.752,-4.7324,-4.7493,-4.7918,-4.9808,-5.0711,-5.1021,-5.1277,-5.1431,-5.1431,-5.1431,-5.1431,-5.1431,-5.1431,-5.1431,-5.1508,-5.187,-5.2512,-5.3322,-5.4149,-5.467,-5.5361,-5.687,-5.7014,-5.7014,-5.8212,-5.8523,-5.8355,-5.7999,-5.8212,-5.8381,-5.7973,-5.7999,-5.7999,-5.7784,-5.6993,-5.5949,-5.4547,-5.5115,-5.4745,-5.1754,-5.3124,-5.3975,-5.2289,-5.2594,-5.2973,-5.2973,-5.2973,-5.2745,-5.2137,-5.2758,-5.3086,-5.2897,-5.3063,-5.3792,-5.5287,-5.499,-5.499,-5.5361,-5.5509,-5.5729,-5.6219,0.0,0.0,0.0,0.0,0.0,0.0,0.0,0.0,0.0,0.0,0.0,0.0,0.0,0.0,0.0,0.0,0.0,0.0,0.0,0.0,0.0,0.0,0.0,-5.2657,-5.4107,-5.4671,-5.3606,-5.347,-5.347,-5.347,-5.1513,-5.0624,-5.1583,-4.9723,-4.8473,-4.84,-4.84,-4.8036,-4.7281,-4.8013,-4.7648,-4.6098,-4.684,-4.6766,-4.6024,-4.5202,-4.4826,-4.4869,-4.5337,-4.5986,-4.681,-4.684,-4.7796,-4.9317,-4.9025,-4.9438,-5.0199,-5.1021,-5.1431,-5.1431,-5.1431,-5.1431,-5.1431,-5.1431,-5.1431,-5.1639,-5.2816,-5.3271,-5.3699,-5.5972,-5.5924,-5.5509,-5.7784,-5.7615,-5.7014,-5.8212,-5.8523,-5.8212,-5.7014,-5.7687,-5.8212,-5.7014,-5.7687,-5.831,-5.7523,-5.6485,-5.541,-5.4473,-5.4745,-5.4223,-5.1831,-5.4149,0.0,-5.3975,-5.5214,-5.6219,-5.6146,-5.6146,-5.546,-5.3825,-5.2704,-5.1922,-5.1516,-5.1853,-5.2674,-5.3774,-5.5881,-5.598,-5.3825,-5.4175,-5.4942,-5.6146,0.0,0.0,0.0,0.0,0.0,0.0,0.0,0.0,0.0,0.0,0.0,0.0,0.0,0.0,0.0,0.0,0.0,0.0,0.0,0.0,0.0,-5.4285,-5.4437,-5.4437,-5.4794,-5.4965,-5.4671,-5.4604,-5.4604,-5.4604,-5.3334,-5.2278,-5.1722,-5.0411,-4.9293,-4.845,-4.84,-4.8465,-4.8588,-4.8415,-4.8342,-4.822,-4.6995,-4.6401,-4.6451,-4.5087,-4.5256,-4.6648,-4.5588,-4.6054,-4.7694,-4.7176,-4.734,-4.8216,-4.9293,-4.9886,-5.0199,-5.1021,-5.1431,-5.1431,-5.1431,-5.1431,-5.1431,-5.1431,-5.1924,-5.274,-5.312,-5.4373,-5.5679,-5.5484,-5.5851,-5.6362,-5.7014,-5.6942,-5.7014,-5.8212,-5.8523,-5.8452,-5.807,-5.8284,-5.8426,-5.807,-5.8284,-5.831,-5.7523,-5.7163,-5.6631,-5.5803,-5.5754,-5.5681,-5.4992,-5.5582,-5.6047,-5.5582,-5.5901,-5.583,-5.4983,-5.4857,-5.4706,-5.4227,-5.3914,-5.4243,-5.5332,-5.5554,-5.5804,-5.6104,-5.665,-5.6549,-5.5533,-5.5582,-5.5263,0.0,0.0,0.0,0.0,0.0,0.0,0.0,0.0,0.0,0.0,0.0,0.0,0.0,0.0,0.0,0.0,0.0,0.0,0.0,0.0,0.0,0.0,-5.4863,-5.5099,-5.5099,-5.5099,-5.5099,-5.5099,-5.4671,-5.4376,-5.4376,-5.3334,-5.2208,-5.1093,-5.0482,-4.9651,-4.8749,-4.8699,-4.8781,-4.889,-4.8804,-4.8634,-4.8366,-4.6977,-4.6699,-4.7462,-4.5497,-4.5567,-4.7345,-4.5953,-4.6127,-4.7596,-4.734,-4.7596,-4.8251,-4.9573,-5.0121,-5.0199,0.0,0.0,0.0,0.0,-5.1431,-5.1431,-5.1431,-5.187,-5.2459,-5.2459,-5.3699,-5.5164,-5.5066,-5.5778,-5.6798,-5.7303,-5.7446,-5.7615,-5.8284,-5.8523,-5.8523,-5.8523,-5.8523,-5.8452,-5.831,-5.8381,-5.8239,-5.7307,-5.7307,0.0,-5.6365,-5.6219,-5.5974,-5.5287,-5.5754,-5.5974,-5.5214,-5.5953,-5.6301,-5.5579,-5.5697,-5.5895,-5.5895,-5.538,0.0,0.0,0.0,-5.6947,-5.7675,-5.6799,0.0,0.0,0.0,-5.5955,-5.5706,-5.7093,0.0,0.0,-5.7328,-5.7272,0.0,0.0,0.0,0.0,0.0,0.0,0.0,0.0,0.0,0.0,0.0,0.0,0.0,0.0,0.0,0.0,-5.5099,-5.5099,-5.5099,-5.5099,-5.5099,-5.5099,-5.4241,-5.3606,-5.3606,-5.2554,-5.1467,-5.0412,-5.0294,-4.9886,-4.9255,-4.9204,0.0,0.0,0.0,-4.8688,-4.7641,-4.7029,-4.7333,-4.8503,-4.6294,-4.6004,-4.752,-4.6411,-4.6442,-4.7312,-4.7501,-4.8092,-4.8986,-4.9752,-5.0121,-5.0277,-5.1099,-5.1431,-5.1431,-5.1431,-5.1431,-5.1431,-5.1431,0.0,0.0,-5.1562,-5.2383,-5.3648,-5.4695,-5.5704,-5.6798,-5.7973,-5.8284,-5.8355,-5.8452,-5.8523,-5.8523,-5.8523,-5.8452,-5.8381,-5.7999,-5.8212,-5.8167,-5.7167,-5.7265,-5.7291,-5.6541,-5.6344,-5.5755,-5.4296,-5.5436,-5.5855,-5.4369,-5.5881,-5.7073,-5.69,-5.7375,0.0,-5.7674,-5.672,-5.6639,-5.7951,-5.6976,-5.7091,-5.8628,-5.6756,-5.6605,-5.8553,-5.7089,-5.7046,-5.8525,-5.8971,-5.9083,-5.8859,-5.7955,-5.7718,0.0,0.0,0.0,0.0,0.0,0.0,0.0,0.0,0.0,0.0,0.0,0.0,0.0,0.0,0.0,-5.4942,-5.5099,-5.5099,-5.5099,-5.5099,-5.5099,-5.5099,-5.4898,-5.4738,-5.4738,-5.3742,-5.2798,-5.2054,-5.1177,-5.0428,-4.9807,-4.9755,-4.9609,-4.9269,-4.9556,-4.9533,-4.9039,-4.7838,-4.7608,-4.8145,-4.7076,0.0,-4.8623,-4.7682,-4.8021,-4.944,-4.8107,-4.8092,-4.8986,-4.9752,-5.0533,-5.1176,-5.1354,-5.1431,-5.1431,-5.1431,-5.1431,-5.1431,-5.1431,-5.2024,-5.2816,-5.2816,-5.3648,-5.4695,-5.4918,-5.514,0.0,-5.6725,-5.7086,-5.7303,-5.8212,-5.8523,-5.8523,-5.8523,-5.8212,-5.807,-5.8284,-5.8212,-5.8011,-5.7969,-5.7998,-5.7907,-5.7649,-5.7173,-5.6724,-5.6402,-5.705,-5.7425,-5.7099,-5.7425,-5.7348,-5.6391,-5.6382,-5.643,-5.643,-5.6191,-5.6785,-5.8401,-5.8349,-5.8322,-5.873,-5.7874,-5.7624,-5.8052,-5.8051,-5.8151,-5.8525,-5.9219,-5.9536,-5.948,-5.8812,-5.8511,0.0,0.0,0.0,0.0,0.0,0.0,0.0,0.0,0.0,0.0,0.0,-5.2328,-5.3217,0.0,-5.4079,-5.4968,-5.5099,-5.5099,-5.5099,-5.5099,-5.5099,-5.5099,-5.5099,-5.4898,-5.4309,-5.3955,-5.3173,-5.1751,-5.173,-5.1218,-4.9968,-5.0122,-5.0148,-5.0017,-4.9791,-4.9522,-4.9162,-4.8189,-4.7779,-4.7885,-4.7013,-4.714,-4.8251,-4.7373,-4.7453,-4.815,-4.7752,-4.8092,-4.8986,-5.0221,-5.1021,-5.1354,-5.0944,-5.1021,-5.1431,-5.1431,-5.1431,-5.1431,-5.1431,-5.1793,-5.2307,-5.2307,-5.312,-5.4248,-5.4843,-5.541,-5.607,-5.7231,-5.7615,-5.7759,-5.8355,-5.8523,-5.8523,-5.8523,-5.8381,-5.8291,-5.8577,-5.8511,-5.8332,-5.8386,-5.834,-5.822,-5.7926,-5.7876,-5.7775,-5.7499,-5.7725,-5.7901,-5.7901,-5.8127,-5.8099,-5.7453,-5.7647,-5.7794,-5.7794,-5.7794,-5.8207,-5.9029,-5.9106,-5.9106,-5.9106,-5.8855,-5.8781,-5.9009,-5.9212,-5.9514,-5.9966,-6.0341,-6.0509,-6.0371,-6.0085,-5.9716,0.0,0.0,0.0,0.0,0.0,0.0,0.0,0.0,-5.1596,-5.1596,-5.2067,-5.2668,-5.3295,-5.3844,-5.4393,-5.4994,-5.5099,-5.5099,-5.5099,-5.5099,-5.5099,-5.5099,-5.5032,-5.4697,-5.3963,-5.4192,-5.3573,-5.132,-5.2236,-5.1941,-4.9814,-5.014,-5.0346,-5.0307,-4.9638,-4.914,-4.8907,-4.8492,-4.8021,-4.7592,-4.7052,-4.7132,-4.7832,-4.6972,-4.673,-4.7052,-4.7453,-4.8251,-4.946,-5.0478,-5.1122,-5.1354,-5.0611,-5.0766,-5.1354,-5.1176,-5.1254,-5.1431,-5.1431,-5.1562,-5.1716,-5.1716,-5.2612,-5.3723,-5.4695,-5.5631,-5.6653,-5.783,-5.8141,-5.8212,-5.8452,-5.8523,-5.8523,-5.8523,-5.853,-5.8596,-5.875,-5.8812,-5.8852,-5.865,-5.8628,-5.8528,-5.8253,-5.8579,-5.8679,-5.8152,-5.8152,-5.8202,-5.8202,-5.8604,-5.888,-5.888,-5.9257,-5.9483,-5.9483,-5.9483,-5.9483,-5.9483,-5.9483,-5.9483,-5.9483,-5.9585,-5.9817,-6.0125,-6.0278,-6.0737,-6.142,-6.1495,-6.1412,-6.1293,-6.1293,-6.0901,-5.1596,-5.1596,0.0,-5.1596,-5.1596,-5.1596,0.0,0.0,-5.1596,-5.1596,-5.2067,-5.2668,-5.3295,-5.3844,-5.4393,-5.4994,-5.5099,-5.5099,-5.5099,-5.5099,-5.5099,-5.5099,-5.4805,-5.4827,-5.5549,-5.5407,-5.4505,-5.2741,-5.2987,-5.2006,-4.916,-4.9318,-4.9373,-4.9113,-4.8978,-4.8921,-4.8907,-4.8842,-4.8446,-4.7613,-4.8251,-4.8648,-4.8749,-4.7853,-4.823,-4.9573,-4.823,-4.8965,-5.1021,-4.9695,-5.0087,-5.1431,-5.1277,-5.1331,-5.1354,-5.0533,-5.0766,-5.1431,-5.1431,-5.2077,-5.2968,-5.2968,-5.3798,-5.4843,-5.4992,-5.5066,-5.541,-5.658,-5.6917,-5.7159,-5.8212,-5.8523,-5.8523,-5.8523,-5.8603,-5.8776,-5.8782,-5.8903,-5.9122,-5.916,-5.9211,-5.9237,-5.9309,-5.9357,-5.9232,-5.8704,-5.9031,-5.9307,-5.9307,-5.9357,-5.9408,-5.9408,-5.9458,-5.9483,-5.9483,-5.9483,-5.9483,-5.9483,-5.9483,-5.9483,-5.9483,-5.9792,-6.0048,-6.0125,-6.0889,-6.1268,-6.142,-6.1747,-6.1947,-6.1868,-6.1868,-6.1267,-5.1596,0.0,0.0,0.0,-5.1471,-5.1346,-5.1534,-5.1596,-5.1596,-5.1596,-5.2067,-5.2668,-5.3295,-5.3844,-5.4393,0.0,-5.5099,-5.5099,-5.5099,-5.5099,-5.5032,-5.4805,-5.4889,-5.5242,-5.5815,-5.4657,-5.3839,-5.3784,-5.3253,-5.1836,-4.9576,-5.0068,-4.9862,-4.8449,-4.9204,-4.9122,-4.8172,-4.867,-4.8172,-4.6811,-4.7693,-4.7853,-4.7394,-4.7533,-4.7672,-4.7911,-4.8251,-4.8965,-5.0009,-5.0244,-5.0789,-5.1354,-5.0844,-5.0944,-5.1354,-5.1021,-5.1099,-5.1508,-5.223,-5.274,-5.3346,-5.4023,-5.462,-5.514,-5.5778,-5.5997,-5.6216,-5.74,-5.7759,-5.783,-5.8355,-5.8523,-5.8601,-5.8941,-5.8915,-5.9061,-5.9955,-5.985,-5.9786,-6.0426,-6.0074,-5.9769,-5.9843,-5.9663,-5.9408,-5.9207,-5.9357,-5.9483,-5.9483,-5.9483,-5.9483,-5.9483,-5.9483,-5.9483,-5.9483,-5.9483,-5.9483,-5.9483,-5.9483,-5.9585,-5.9817,-5.9817,-6.0125,-6.0813,-6.0965,-6.1268,-6.1747,-6.1898,-6.1973,-6.1973,-6.1973,-6.1711,-5.1596,0.0,0.0,-5.1408,-5.1346,-5.1246,-5.1283,-5.1471,-5.1534,-5.1346,-5.2071,-5.2877,-5.3166,-5.3909,-5.4602,-5.502,-5.5099,-5.5099,-5.5099,-5.5099,-5.5032,-5.4712,-5.5096,-5.5579,-5.6076,-5.4542,-5.3683,-5.4052,-5.2978,-5.1478,-4.9677,-4.9891,-4.9652,-4.8652,-4.8925,-4.8785,-4.8309,-4.849,-4.8012,-4.6993,-4.7453,-4.7373,-4.7073,-4.7453,-4.7533,-4.7373,-4.8172,-4.8806,-4.9359,-5.0555,-5.1021,-5.1021,-5.0611,-5.1076,-5.187,-5.187,-5.187,-5.21,-5.3271,-5.3924,-5.4298,-5.5189,-5.5704,-5.6095,-5.6942,-5.7231,-5.7374,-5.8284,-5.8452,-5.8284,-5.8284,-5.8485,-5.8694,-5.9111,-5.9331,-5.9726,-6.0706,-6.0619,-6.0476,-6.0964,-6.0508,-6.0048,-5.9946,-5.9714,-5.9483,-5.9483,-5.9483,-5.9483,-5.9483,-5.9483,-5.9483,-5.9483,-5.9483,-5.9483,-5.9483,-5.9483,-5.9585,-5.9663,-5.9663,-5.9894,-6.0278,-6.0125,-6.0431,-6.1344,-6.1193,-6.1344,-6.1973,-6.1973,-6.1973,-6.1973,-6.1973,-6.1973,0.0,0.0,-5.1534,-5.1183,-5.1346,-5.1408,-5.0778,-5.1157,-5.1408,-5.0778,-5.209,-5.3244,-5.2893,-5.4025,-5.5072,-5.5099,-5.5099,-5.5099,-5.5099,-5.5099,-5.5099,-5.5099,-5.5258,-5.5735,0.0,-5.608,-5.4913,-5.3282,-5.2149,-5.0764,-4.9035,-4.7741,-4.7934,-5.002,-4.7672,-4.7613,-4.9964,-4.8468,-4.8012,-4.8828,-4.8012,-4.8012,-4.8828,-4.8012,-4.8468,-4.9886,-4.8309,-4.8547,-5.0042,-5.0121,-5.0121,-5.0199,-5.1021,-5.2077,-5.312,-5.312,-5.312,-5.3346,-5.4546,-5.5704,-5.6627,-5.6627,-5.7472,-5.8355,-5.8426,-5.8452,-5.8452,-5.8523,-5.8212,-5.7927,-5.7927,-5.8341,-5.8828,-5.8828,-5.9929,-6.0936,-6.059,-6.093,-6.1091,-6.0278,-6.0125,-5.9971,-5.9585,-5.9483,-5.9483,-5.9483,-5.9483,-5.9483,-5.9483,-5.9483,-5.9483,-5.9483,-5.9483,-5.9483,-5.9483,-5.9483,-5.9663,-6.0048,-6.0125,-6.0278,-6.066,-6.1117,-6.1344,-6.142,-6.1747,-6.1973,-6.1973,-6.1973,-6.1973,-6.1973,-6.1973,-6.1973,0.0,0.0,-5.0905,-5.0804,-5.0677,-5.0677,-5.0867,-5.0905,-5.0968,-5.122,-5.2218,-5.3023,-5.3179,-5.4249,-5.5099,-5.5099,-5.5099,-5.5099,-5.5099,-5.5099,-5.5162,-5.5258,-5.5898,0.0,0.0,0.0,0.0,-5.5299,-5.281,-5.0822,-5.0045,-4.9396,-4.8553,-4.7592,-4.8965,-4.9044,-4.7613,-4.8706,-4.8547,-4.7153,-4.6891,-4.7213,-4.8012,-4.7132,-4.7373,-4.8389,-4.7832,-4.8547,-5.0121,-5.0121,-5.0455,-5.1099,-5.2154,-5.2816,-5.3322,-5.467,-5.5559,-5.6128,-5.6122,-5.6337,-5.6844,-5.7615,-5.8141,-5.8523,-5.8523,-5.8523,-5.8601,-5.8967,-5.8811,-5.8673,-5.9253,-5.9414,-5.9502,-6.0211,-6.0527,-6.0843,-6.1383,-6.1215,-6.0965,-6.0965,-6.0508,-6.0048,-5.9894,-5.9663,-5.9483,-5.9483,-5.9483,-5.9483,-5.9483,-5.9483,-5.9483,-5.9483,-5.9483,-5.9483,-5.9483,-5.9483,-5.9663,-6.0048,-6.0125,-6.0431,-6.1117,-6.1041,-6.1193,-6.1823,-6.1672,-6.1747,-6.1973,-6.1973,-6.1973,-6.1973,-6.1973,-6.1973,-5.1309,-5.0968,-5.0588,-5.0588,-5.0423,-5.0295,-5.055,-5.0614,-5.0652,-5.0842,-5.1872,-5.2828,-5.2854,-5.4051,-5.5032,-5.4872,-5.5032,-5.5099,-5.5099,-5.5099,-5.5241,-5.5517,-5.6321,-5.6522,0.0,0.0,0.0,-5.5673,-5.2617,-5.0799,-5.0811,-4.9451,-4.8251,-4.7234,-4.8727,-4.8965,-4.7693,-4.8389,-4.8071,-4.673,-4.673,-4.7373,-4.8468,-4.6972,-4.7132,-4.8468,-4.8172,-4.8648,-4.9752,-5.0666,-5.1322,-5.2025,-5.3381,-5.4385,-5.5233,-5.6524,-5.7636,-5.8478,-5.7742,-5.7666,-5.8063,-5.8837,-5.9124,-5.9124,-5.9124,-5.9124,-5.9202,-5.9568,-5.9383,-5.9269,-5.9851,-5.9938,-6.0098,-6.0736,-6.097,-6.1129,-6.1669,-6.1344,-6.0965,-6.0965,-6.0584,-6.0278,-6.0125,-5.9894,-5.9714,-5.9714,-5.956,-5.9483,-5.9483,-5.9483,-5.9585,-5.9714,-5.9585,-5.9585,-5.9714,-5.9714,-5.9894,-6.0278,-6.0508,-6.0889,-6.1597,-6.1344,-6.142,-6.1973,-6.1747,-6.1747,-6.1973,-6.1973,-6.1973,-6.1973,-6.1973,-6.1973,-5.1471,-5.1094,-5.0588,-5.0525,-5.0588,-5.0397,-4.9783,-5.0168,-5.0423,-4.9808,-5.1317,-5.2633,0.0,0.0,-5.4939,-5.4578,-5.4872,-5.5099,-5.5099,-5.5099,-5.5308,0.0,0.0,0.0,0.0,0.0,0.0,-5.4204,0.0,-5.059,-5.1347,-4.823,-4.7153,-4.8749,-4.7293,-4.7533,-4.9886,-4.7533,-4.6811,-4.7592,-4.7592,-4.8389,-4.9808,-4.7373,-4.7693,-4.9964,-4.9201,-4.8907,-4.928,-5.1616,-5.2741,-5.3062,-5.472,-5.665,-5.8474,-5.8548,-5.9267,-6.0123,-5.9186,-5.9487,-6.0222,-6.0222,-6.0222,-6.0222,-6.0222,-6.0222,-6.0222,-6.0248,-5.9981,-5.9787,-5.9813,-6.0153,-6.0542,-6.0542,-6.1282,-6.1898,-6.1495,-6.1344,-6.1117,-6.0278,-6.0431,-6.0584,-6.0201,-6.0125,-6.0125,-6.0125,-5.9817,-5.9585,-5.9483,-5.9483,-5.9663,-6.0125,-5.9817,-5.974,-6.0125,-6.0125,-6.0278,-6.0737,-6.1117,-6.1571,-6.1973,-6.1973,-6.1973,-6.1973,-6.1973,-6.1973,-6.1973,-6.1973,-6.1973,-6.1973,-6.1973,-6.1973,-5.0677,-5.0741,-5.0804,-5.004,-5.0206,-5.0487,-5.004,-5.0295,-5.078,-5.128,-5.1948,-5.2696,0.0,0.0,0.0,-5.4872,-5.5032,0.0,-5.5099,-5.5099,0.0,-5.6458,0.0,-5.6591,-5.6011,-5.6667,0.0,0.0,-5.1514,-5.1338,-5.2547,-4.9214,-4.7453,-4.7933,-4.8092,-4.7933,-4.7293,-4.7293,-4.7373,-4.7592,-4.7592,-4.7432,-4.7213,-4.659,-4.7373,-4.9122,-4.8331,-4.9337,-5.1693,-5.2426,-5.3507,-5.4796,-5.6875,-5.7974,-5.8548,-5.9193,-5.9994,-6.0801,-6.0276,-6.009,-6.0222,-6.0222,-6.0222,-6.0222,-6.0222,-6.0222,-6.03,-6.0771,-6.0579,-6.0461,-6.12,-6.1259,-6.1212,-6.1513,-6.1542,-6.1495,-6.142,-6.1117,-6.0813,-6.0584,-6.066,-6.066,-6.0584,-6.0584,-6.0584,-6.0584,-6.0431,-6.0278,-5.9971,-5.9971,-6.0125,-6.0508,-6.0431,-6.0431,-6.0508,-6.0584,-6.0737,-6.1193,-6.1344,-6.1571,-6.1973,-6.1973,-6.1973,-6.1973,-6.1973,-6.1973,-6.1973,-6.1973,-6.1973,-6.1973,-6.1973,-6.1973,-5.0487,-5.0614,-5.0741,-4.9976,-5.0232,-5.0461,-4.9976,-5.0168,-5.0576,-5.1138,-5.1725,0.0,0.0,0.0,0.0,0.0,0.0,0.0,-5.5099,-5.5308,-5.5804,0.0,-5.6798,0.0,-5.6245,-5.6737,-5.6181,0.0,-5.2473,-5.1501,-5.1247,-4.9607,-4.8208,-4.7052,-4.823,-4.7991,-4.6347,-4.7132,-4.7592,-4.7592,-4.7592,-4.7533,-4.7453,-4.7052,-4.7613,-4.8828,-4.8012,-4.9393,-5.2383,-5.3028,-5.4664,-5.685,-5.8626,-5.9632,-6.0062,-6.0535,-6.1066,-6.1502,-6.1252,-6.1044,-6.098,-6.098,-6.098,-6.098,-6.098,-6.0832,-6.0836,-6.1323,-6.1178,-6.1031,-6.1819,-6.1823,-6.1747,-6.1973,-6.1823,-6.1571,-6.142,-6.1193,-6.1041,-6.1041,-6.1041,-6.1041,-6.1268,-6.1117,-6.1041,-6.1041,-6.0813,-6.066,-6.066,-6.0508,-6.0508,-6.0965,-6.0813,-6.0813,-6.0965,-6.1041,-6.1117,-6.1344,-6.1571,-6.1747,-6.1973,-6.1973,-6.1973,-6.1973,-6.1973,-6.1842,-6.1607,-6.1842,-6.1842,-6.1607,-6.1868,-6.1973,-5.0677,-5.0588,-5.0525,-5.0104,-5.0423,-5.0525,-4.9783,-4.9987,-5.0383,-5.055,0.0,-5.2057,-5.2304,0.0,-5.4376,-5.4106,0.0,-5.5099,-5.5099,-5.5569,-5.6118,-5.6745,-5.6798,-5.685,-5.6833,-5.6998,-5.6796,-5.5956,-5.3935,-5.1821,-4.9797,-5.0154,-4.9214,-4.673,-4.781,-4.781,-4.6509,-4.7213,-4.7592,-4.7592,-4.7693,-4.8034,-4.8598,-4.7938,-4.8098,-4.8757,-4.8316,-4.9595,-5.2183,-5.3919,-5.6198,-5.8699,-6.0137,-6.123,-6.1898,-6.1973,-6.1973,-6.1973,-6.1973,-6.1973,-6.1973,-6.1973,-6.1973,-6.1973,-6.1973,-6.1747,-6.1571,-6.1898,-6.1747,-6.1571,-6.1898,-6.1973,-6.1973,-6.1973,-6.1973,-6.1823,-6.1495,-6.142,-6.142,-6.1495,-6.1495,-6.1571,-6.1973,-6.1747,-6.1495,-6.1495,-6.1117,-6.1041,-6.142,-6.1041,-6.0965,-6.142,-6.1117,-6.1041,-6.142,-6.1495,-6.1495,-6.1495,-6.1823,-6.1973,-6.1973,-6.1973,-6.1921,-6.1868,-6.1868,-6.1607,-6.111,-6.1633,-6.1633,-6.1241,-6.1738,-6.1973,-5.0359,-5.0614,-5.0804,-4.9912,-5.0525,-5.1094,-4.9912,-5.0677,0.0,0.0,0.0,-5.3043,-5.3538,-5.4122,0.0,-5.4443,0.0,0.0,0.0,0.0,-5.6118,0.0,0.0,0.0,0.0,0.0,0.0,0.0,-5.4793,-5.4869,-5.4423,-5.2646,-5.0575,-4.8425,-4.7272,-4.6972,-4.7373,-4.7512,-4.7592,-4.7592,-4.8331,-4.8227,-4.7315,-4.7945,-4.8269,-4.8511,-5.0025,-5.1483,-5.3171,-5.6376,-5.8249,-5.9148,-6.1025,-6.1643,-6.1495,-6.1898,-6.1973,-6.1973,-6.1973,-6.1973,-6.1973,-6.1973,-6.1973,-6.1973,-6.1973,-6.1973,-6.1898,-6.1973,-6.1973,-6.1898,-6.1973,-6.1973,-6.1973,-6.1973,-6.1747,-6.1495,-6.142,-6.142,-6.1495,-6.1823,-6.1898,-6.1898,-6.1973,-6.1973,-6.1898,-6.1898,-6.1823,-6.1823,-6.1898,-6.1495,-6.142,-6.1823,-6.1823,-6.1823,-6.1898,-6.1898,-6.1898,-6.1898,-6.1973,-6.1973,-6.1973,-6.1973,-6.1764,-6.1293,-6.1267,-6.1215,-6.111,-6.1215,-6.145,-6.1842,-6.1921,-6.1973,-5.004,-5.0423,-5.0867,-5.004,-5.0614,-5.1094,-5.0104,0.0,0.0,0.0,0.0,-5.2995,-5.3351,0.0,0.0,0.0,0.0,0.0,0.0,0.0,0.0,0.0,0.0,0.0,0.0,0.0,-5.6597,-5.572,-5.6565,-5.6191,-5.4076,-5.2266,-5.0885,-5.0131,-4.8049,-4.6972,-4.6891,-4.6891,-4.6891,-4.6972,-4.8251,-4.819,-4.703,-4.8396,-4.8699,-4.8396,-4.9781,-5.1734,-5.4107,-5.6498,-5.8552,-6.0253,-6.1484,-6.1898,-6.1747,-6.1898,-6.1973,-6.1973,-6.1973,-6.1973,-6.1973,-6.1973,-6.1973,-6.1973,-6.1973,-6.1823,-6.1747,-6.1973,-6.1823,-6.1747,-6.1973,-6.1973,-6.1973,-6.1973,-6.1823,-6.1747,-6.1747,-6.1747,-6.1747,-6.1973,-6.1973,-6.1973,-6.1973,-6.1973,-6.1973,-6.1973,-6.1973,-6.1973,-6.1973,-6.1823,-6.1823,-6.1973,-6.1973,-6.1973,-6.1973,-6.1973,-6.1973,-6.1973,-6.1973,-6.1842,-6.1529,-6.1529,-6.1241,-6.0666,-6.064,-6.064,-6.064,-6.098,-6.1267,-6.1529,-6.1842,-6.1973,-5.0104,-5.0359,-5.0804,-5.0295,-5.0677,-5.0931,-5.0232,-5.0895,0.0,0.0,-5.2135,-5.292,-5.2923,0.0,0.0,0.0,0.0,0.0,0.0,0.0,0.0,0.0,0.0,0.0,0.0,0.0,0.0,-5.7273,-5.7907,-5.6844,-5.3654,-5.1785,-5.0985,-5.1293,-4.8921,-4.7293,-4.659,-4.6972,-4.6972,-4.659,-4.8331,-4.8408,-4.703,-4.8801,-4.9183,-4.8618,-4.9861,-5.2106,-5.4999,-5.6597,-5.8729,-6.094,-6.1663,-6.1898,-6.1747,-6.1898,-6.1973,-6.1973,-6.1973,-6.1973,-6.1973,-6.1973,-6.1973,-6.1973,-6.1973,-6.1823,-6.1571,-6.1898,-6.1747,-6.1571,-6.1898,-6.1973,-6.1973,-6.1973,-6.1973,-6.1973,-6.1973,-6.1973,-6.1973,-6.1973,-6.1973,-6.1973,-6.1973,-6.1973,-6.1973,-6.1973,-6.1973,-6.1973,-6.1973,-6.1973,-6.1973,-6.1973,-6.1973,-6.1973,-6.1973,-6.1973,-6.1921,-6.179,-6.179,-6.1529,-6.0953,-6.0927,-6.064,-6.0039,-6.0169,-6.0222,-6.0222,-6.0823,-6.1189,-6.1319,-6.1764,-6.1973,-5.0931,-5.0614,-5.0232,-5.0487,-5.0867,-5.0931,-5.0232,0.0,0.0,-5.1405,-5.2641,-5.3674,-5.3042,-5.409,0.0,0.0,0.0,0.0,0.0,0.0,0.0,0.0,0.0,0.0,0.0,0.0,0.0,-5.7772,-5.7641,-5.7379,-5.6993,-5.335,-5.1293,-5.1293,-4.8921,-4.7533,-4.7432,-4.9,-4.9,-4.7533,-4.9157,-4.8945,-4.703,-4.8823,-4.9526,-4.9541,-5.2262,-5.4267,-5.5904,-5.8394,-5.9676,-6.0118,-6.1513,-6.1521,-6.0889,-6.1747,-6.1973,-6.1973,-6.1973,-6.1973,-6.1973,-6.1973,-6.1973,-6.1973,-6.1973,-6.1973,-6.1973,-6.1973,-6.1973,-6.1973,-6.1973,-6.1973,-6.1973,-6.1973,-6.1973,-6.1973,-6.1973,-6.1973,-6.1973,-6.1973,-6.1973,-6.1973,-6.1973,-6.1973,-6.1973,-6.1973,-6.1973,-6.1973,-6.1973,-6.1973,-6.1973,-6.1973,-6.1973,-6.1973,-6.1973,-6.1973,-6.1764,-6.1241,-6.1189,-6.0927,-6.0326,-6.03,-6.0039,-5.9464,-5.996,-6.0222,-6.0222,-6.0823,-6.1398,-6.1894,-6.1947,-6.1973,-5.0778,-5.0487,-5.0232,-5.0804,-5.0867,-5.0741,-5.0487,0.0,0.0,-5.1472,-5.2868,-5.4106,-5.341,-5.4293,-5.4965,0.0,0.0,0.0,0.0,0.0,0.0,0.0,0.0,0.0,0.0,0.0,0.0,-5.8205,-5.7927,-5.7713,-5.7713,-5.5238,-5.3651,-5.31,-5.1424,-5.0287,-4.9841,-5.0443,-5.0443,-4.9841,-5.0985,-5.1025,-5.0021,-5.1525,-5.1761,-5.1109,-5.3731,-5.5448,-5.6423,-5.8472,-6.0031,-6.1184,-6.1493,-6.1571,-6.1521,-6.1571,-6.1646,-6.1646,-6.1646,-6.1646,-6.1672,-6.1898,-6.1973,-6.1973,-6.1973,-6.1823,-6.1672,-6.1898,-6.1973,-6.1973,-6.1973,-6.1973,-6.1973,-6.1973,-6.1973,-6.1973,-6.1973,-6.1973,-6.1973,-6.1973,-6.1973,-6.1973,-6.1973,-6.1973,-6.1973,-6.1973,-6.1973,-6.1973,-6.1973,-6.1973,-6.1973,-6.1973,-6.1973,-6.1842,-6.1476,-6.145,-6.1215,-6.0614,-6.0588,-6.0326,-5.9725,-5.9699,-5.9594,-5.9359,-5.9594,-6.0065,-6.0771,-6.1006,-6.1424,-6.1973,-6.1973,-6.1973,-5.0842,-5.0614,-5.0423,-5.1057,-5.0994,-5.0766,0.0,0.0,0.0,-5.2006,-5.3238,-5.4309,-5.3725,-5.4428,-5.4965,0.0,0.0,0.0,0.0,0.0,0.0,0.0,0.0,0.0,0.0,0.0,0.0,-5.8232,-5.7927,-5.7713,-5.7713,-5.6703,-5.5631,-5.4547,-5.3199,-5.2213,-5.1524,-5.2213,-5.2137,-5.1293,-5.2518,-5.2629,-5.1977,-5.2981,-5.3135,-5.2828,-5.4733,-5.6277,-5.7449,-5.8574,-6.0085,-6.1597,-6.142,-6.1495,-6.1597,-6.142,-6.1495,-6.1571,-6.142,-6.1495,-6.1646,-6.1898,-6.1898,-6.1823,-6.1973,-6.1823,-6.1646,-6.1898,-6.1973,-6.1973,-6.1973,-6.1973,-6.1973,-6.1973,-6.1973,-6.1973,-6.1973,-6.1973,-6.1973,-6.1973,-6.1973,-6.1973,-6.1973,-6.1973,-6.1973,-6.1973,-6.1973,-6.1973,-6.1973,-6.1816,-6.1711,-6.1711,-6.1555,-6.1372,-6.1136,-6.0953,-6.0588,-6.0013,-5.996,-5.9699,-5.915,-5.9098,-5.9202,-5.9359,-5.9542,-6.0117,-6.111,-6.1293,-6.1581,-6.1973,-6.1973,-6.1973,-5.1471,-5.1094,-5.0778,-5.1408,-5.1372,-5.1275,0.0,0.0,0.0,-5.3156,-5.3922,-5.4376,-5.4064,-5.4604,-5.4965,-5.4578,0.0,0.0,0.0,0.0,0.0,0.0,0.0,0.0,0.0,0.0,-5.7901,-5.7927,-5.7595,0.0,-5.7379,-5.7379,-5.6605,-5.4992,-5.3326,-5.2266,-5.1884,-5.4348,-5.4124,-5.1293,-5.335,-5.3477,-5.1884,-5.2365,-5.3199,-5.4324,-5.5189,-5.6895,-5.9071,-5.9045,-5.9711,-6.0737,-6.1193,-6.1117,-6.0737,-6.1193,-6.1646,-6.1973,-6.1495,-6.1646,-6.1973,-6.1973,-6.1747,-6.1495,-6.1898,-6.1973,-6.1973,-6.1973,-6.1973,-6.1973,-6.1973,-6.1973,-6.1973,-6.1973,-6.1973,-6.1973,-6.1973,-6.1973,-6.1973,-6.1973,-6.1973,-6.1973,-6.1973,-6.1973,-6.1973,-6.1973,-6.1973,-6.1973,-6.1973,-6.1476,-6.1136,-6.1136,-6.0588,-6.0483,-6.1058,-6.0561,-5.9986,-5.9411,-5.9385,-5.9124,-5.8549,-5.8523,-5.8784,-5.9359,-5.9908,-6.0509,-6.111,-6.1685,-6.1973,-6.1973,-6.1973,-6.1973,-5.1408,-5.0778,-5.0232,-5.1346,-5.1157,-5.0996,-5.1819,0.0,0.0,0.0,-5.4148,-5.4805,-5.4443,-5.4738,-5.5032,-5.4939,-5.5032,0.0,0.0,0.0,0.0,0.0,0.0,0.0,0.0,0.0,-5.8284,-5.8284,-5.8239,-5.8025,-5.7739,-5.7713,-5.7426,-5.6605,-5.5876,-5.541,-5.5263,-5.5729,-5.5509,-5.467,-5.5263,-5.5509,-5.5263,-5.541,-5.5656,-5.6047,-5.6962,-5.806,-5.9096,-5.9156,-5.9995,-6.1193,-6.0965,-6.1041,-6.1117,-6.0965,-6.1193,-6.1521,-6.1041,-6.1193,-6.1646,-6.1898,-6.1898,-6.1823,-6.1973,-6.1823,-6.1646,-6.1898,-6.1973,-6.1973,-6.1973,-6.1973,-6.1973,-6.1973,-6.1973,-6.1973,-6.1973,-6.1973,-6.1973,-6.1973,-6.1973,-6.1973,-6.1973,-6.1973,-6.1973,-6.1973,-6.1633,-6.1398,-6.1398,-6.0875,-6.0509,-6.0509,-5.9986,-5.9699,-5.9908,-5.9751,-5.9385,-5.881,-5.8784,-5.8706,-5.8523,-5.8523,-5.8967,-5.9934,-6.0117,-6.0718,-6.1711,-6.1894,-6.1973,-6.1973,-6.1973,-6.1764,0.0,-5.0905,-5.0423,-5.1346,-5.1157,0.0,0.0,0.0,0.0,0.0,0.0,0.0,-5.4805,-5.4939,-5.5099,-5.5099,-5.5099,0.0,0.0,0.0,0.0,0.0,0.0,0.0,0.0,-5.8314,-5.8452,-5.831,-5.8284,-5.807,-5.7713,-5.7856,-5.7713,-5.7379,-5.7019,-5.6874,-5.7019,-5.6656,-5.6438,-5.6438,-5.6438,-5.6583,-5.6801,-5.6656,-5.6656,-5.6827,-5.7823,-5.8533,0.0,-5.9435,-6.0148,-6.1117,-6.0813,-6.0813,-6.0889,-6.0737,-6.0889,-6.1117,-6.0813,-6.1041,-6.1495,-6.1898,-6.1973,-6.1973,-6.1973,-6.1823,-6.1672,-6.1898,-6.1973,-6.1973,-6.1973,-6.1973,-6.1973,-6.1973,-6.1973,-6.1973,-6.1973,-6.1973,-6.1973,-6.1973,-6.1973,-6.1973,-6.1973,-6.1973,-6.1894,-6.1685,-6.1346,-6.1032,-6.0823,-6.0274,-5.9908,-5.9908,-5.9385,-5.9045,-5.9045,-5.9045,-5.8889,-5.8523,-5.8523,-5.8523,-5.8523,-5.8523,-5.8941,-5.9882,-6.0117,-6.0692,-6.1659,-6.1868,-6.1973,-6.1973,-6.1764,-6.145,0.0,-5.1372,-5.1183,-5.1534,-5.1346,0.0,0.0,0.0,0.0,0.0,0.0,0.0,0.0,-5.5099,-5.5099,-5.5099,-5.5099,0.0,0.0,0.0,0.0,0.0,0.0,0.0,0.0,-5.8523,-5.8381,-5.7999,-5.7927,-5.7784,-5.7451,-5.7739,-5.7784,-5.7379,-5.7019,-5.7019,-5.7379,-5.6946,-5.6801,-5.6801,-5.6801,-5.6801,-5.6801,-5.6365,-5.6463,-5.6877,-5.7849,-5.8558,-5.9222,-5.9711,-6.0174,-6.0737,-6.0737,-6.0508,-6.0201,-6.0584,-6.0737,-6.0737,-6.0737,-6.1041,-6.1495,-6.1898,-6.1973,-6.1973,-6.1973,-6.1973,-6.1973,-6.1973,-6.1973,-6.1973,-6.1973,-6.1973,-6.1973,-6.1973,-6.1973,-6.1973,-6.1973,-6.1973,-6.1973,-6.1973,-6.1973,-6.1973,-6.1921,-6.1921,-6.1711,-6.1136,-6.1032,-6.0797,-6.0222,-5.9673,-5.9307,-5.9307,-5.8836,-5.8523,-5.8523,-5.8523,-5.8523,-5.8523,-5.8523,-5.8523,-5.8523,-5.8523,-5.8784,-5.9359,-5.996,-6.0588,-6.1189,-6.1711,-6.1947,-6.1894,-6.1372,-6.1084,-5.1471,0.0,-5.0842,-5.1471,-5.1346,-5.1364,0.0,0.0,0.0,0.0,0.0,0.0,0.0,0.0,0.0,0.0,0.0,0.0,0.0,0.0,0.0,0.0,0.0,0.0,-5.8418,-5.8523,-5.8452,-5.8381,-5.8381,-5.8212,-5.7784,-5.8141,-5.7953,-5.6946,-5.7354,-5.7569,-5.7379,-5.6729,-5.651,-5.6801,-5.651,-5.651,-5.6801,-5.6365,-5.6664,-5.7461,-5.8167,-5.895,-5.9737,-5.9922,-6.0304,-6.0737,-6.0737,-6.066,-6.0584,-6.066,-6.0889,-6.1193,-6.0813,-6.1041,-6.1495,-6.1898,-6.1973,-6.1973,-6.1973,-6.1973,-6.1973,-6.1973,-6.1973,-6.1973,-6.1973,-6.1973,-6.1973,-6.1973,-6.1973,-6.1973,-6.1973,-6.1973,-6.1973,-6.1973,-6.1973,-6.1842,-6.1398,-6.1319,-6.111,-6.0509,-6.0065,-5.9725,-5.9594,-5.9072,-5.8706,-5.8706,-5.8601,-5.8523,-5.8523,-5.8523,-5.8523,-5.8523,-5.8523,-5.8523,-5.8523,-5.8523,-5.8784,-5.9359,-6.0378,-6.1189,-6.1764,-6.1894,-6.1738,-6.1319,-6.1189,-6.064,-5.1534,-5.122,-5.0968,-5.1471,-5.1346,-5.1338,0.0,0.0,0.0,0.0,0.0,0.0,0.0,0.0,0.0,0.0,0.0,0.0,0.0,0.0,0.0,0.0,0.0,0.0,0.0,-5.8523,-5.8523,-5.8523,-5.8284,-5.8212,-5.8141,-5.8212,-5.7856,-5.7091,-5.7569,-5.7713,-5.7379,-5.6801,-5.6656,-5.7091,-5.6656,-5.651,-5.651,-5.651,-5.6813,-5.7369,-5.837,-5.9229,-5.9942,-6.0278,-6.066,-6.0965,-6.0813,-6.0584,-6.0431,-6.066,-6.066,-6.0584,-6.066,-6.1117,-6.1747,-6.1898,-6.1973,-6.1973,-6.1973,-6.1973,-6.1973,-6.1973,-6.1973,-6.1973,-6.1973,-6.1973,-6.1973,-6.1973,-6.1973,-6.1973,-6.1973,-6.1973,-6.1973,-6.1973,-6.1764,-6.1476,-6.1189,-6.0901,-6.0509,-5.9908,-5.9568,-5.9281,-5.8993,-5.8706,-5.8523,-5.8523,-5.8523,-5.8523,-5.8523,-5.8523,-5.8523,-5.8523,-5.8523,-5.8523,-5.8523,-5.8523,-5.8784,-5.9359,-5.9986,-6.0744,-6.1581,-6.1293,-6.1163,-6.111,-6.0561,-5.996,-5.1596,-5.1408,-5.1246,-5.1534,-5.1408,-5.1376,0.0,0.0,0.0,0.0,0.0,0.0,0.0,0.0,0.0,0.0,0.0,0.0,0.0,0.0,0.0,0.0,0.0,0.0,-5.8418,-5.8523,-5.8523,-5.8523,-5.8141,-5.8141,-5.8452,-5.8141,-5.7784,-5.7379,-5.7784,-5.7784,-5.7307,-5.6946,-5.7019,-5.7379,-5.7019,-5.6583,-5.6219,-5.6659,-5.7013,-5.7198,-5.8646,-5.9506,-6.007,-6.0532,-6.0965,-6.1344,-6.0889,-6.0508,-6.0355,-6.0584,-6.0355,-5.9869,-6.0584,-6.1344,-6.1973,-6.1973,-6.1973,-6.1973,-6.1973,-6.1973,-6.1973,-6.1973,-6.1973,-6.1973,-6.1973,-6.1973,-6.1973,-6.1973,-6.1973,-6.1973,-6.1973,-6.1894,-6.1842,-6.1842,-6.1372,-6.0953,-6.0875,-6.0431,-5.9882,-5.9307,-5.9228,-5.9072,-5.8575,-5.8523,-5.8523,-5.8523,-5.8523,-5.8523,-5.8523,-5.8523,-5.8523,-5.8523,-5.8523,-5.8523,-5.8523,-5.8523,-5.8784,-5.9359,-5.9359,-5.9908,-6.098,-6.0483,-6.0431,-6.0823,-5.983,-5.9307,-5.1596,-5.1534,-5.1534,-5.1596,-5.1534,-5.156,0.0,0.0,0.0,0.0,0.0,0.0,0.0,0.0,0.0,0.0,0.0,0.0,0.0,0.0,0.0,0.0,0.0,-5.7791,-5.8444,-5.8523,-5.8523,-5.8523,-5.8452,-5.8426,-5.8523,-5.8452,-5.8096,-5.7451,-5.8096,-5.7953,-5.6874,-5.6801,-5.7019,-5.7379,-5.7019,-5.6583,-5.6219,-5.7063,-5.7594,-5.7876,-5.9158,-6.0096,-6.0608,-6.0711,-6.0965,-6.1344,-6.0889,-6.0889,-6.1193,-6.0813,-6.0889,-6.1117,-6.1268,-6.1571,-6.1973,-6.1973,-6.1973,-6.1973,-6.1973,-6.1973,-6.1973,-6.1973,-6.1973,-6.1973,-6.1973,-6.1973,-6.1973,-6.1973,-6.1973,-6.1973,-6.1973,-6.1581,-6.1241,-6.1241,-6.0771,-6.0195,-5.9725,-5.9542,-5.9307,-5.8732,-5.8653,-5.8601,-5.8523,-5.8523,-5.8523,-5.8523,-5.8523,-5.8523,-5.8523,-5.8523,-5.8523,-5.8523,-5.8523,-5.8523,-5.8523,-5.8523,-5.8784,-5.9359,-5.9359,-5.9699,-6.0352,-6.0274,-6.0013,-5.962,-5.9437,-5.9098,-5.1596,-5.1596,-5.1596,-5.1596,-5.1596,0.0,0.0,0.0,0.0,0.0,0.0,0.0,0.0,0.0,0.0,0.0,0.0,0.0,0.0,-5.5569,-5.6118,0.0,0.0,-5.7869,-5.8444,-5.8523,-5.8523,-5.8523,-5.8523,-5.8523,-5.8523,-5.8523,-5.8239,-5.7713,-5.8239,-5.8096,-5.7163,-5.7091,-5.7091,-5.7091,-5.7091,-5.6953,-5.6671,-5.7512,-5.8169,-5.8706,-5.9563,-6.0375,-6.1041,-6.0813,-6.1117,-6.1672,-6.0965,-6.0813,-6.0965,-6.0508,-6.066,-6.1041,-6.1268,-6.1646,-6.1973,-6.1973,-6.1973,-6.1973,-6.1973,-6.1973,-6.1973,-6.1973,-6.1973,-6.1973,-6.1973,-6.1973,-6.1973,-6.1973,-6.1973,-6.1894,-6.1581,-6.1319,-6.1032,-6.0692,-6.0169,-5.9673,-5.9411,-5.9098,-5.881,-5.8549,-5.8523,-5.8523,-5.8523,-5.8523,-5.8523,-5.8523,-5.8523,-5.8523,-5.8523,-5.8523,-5.8523,-5.8523,-5.8523,-5.8523,-5.8523,-5.8523,-5.8627,-5.8915,-5.8915,-5.9202,-5.9751,-5.9437,-5.9307,-5.9359,-5.9045,-5.8758,-5.1596,-5.1596,-5.1596,-5.1596,0.0,0.0,0.0,0.0,0.0,0.0,0.0,0.0,0.0,0.0,0.0,0.0,0.0,-5.5099,-5.5099,-5.5674,-5.6275,-5.6745,-5.7425,-5.8026,-5.847,-5.8523,-5.8523,-5.8523,-5.8523,-5.8523,-5.8523,-5.8523,-5.8284,-5.7927,-5.8284,-5.8096,-5.7235,-5.7379,-5.7235,-5.6946,-5.7363,-5.7426,-5.7195,-5.8261,-5.8922,-5.9363,-5.9944,-6.0655,-6.1193,-6.0965,-6.1268,-6.1823,-6.1117,-6.0889,-6.0813,-6.066,-6.066,-6.0965,-6.1344,-6.1721,-6.1973,-6.1973,-6.1973,-6.1973,-6.1973,-6.1973,-6.1973,-6.1973,-6.1973,-6.1973,-6.1973,-6.1973,-6.1921,-6.179,-6.1764,-6.1607,-6.1032,-6.0797,-6.0588,-6.0117,-5.9568,-5.9176,-5.9176,-5.881,-5.8523,-5.8523,-5.8523,-5.8523,-5.8523,-5.8523,-5.8523,-5.8523,-5.8523,-5.8523,-5.8523,-5.8523,-5.8523,-5.8523,-5.8523,-5.8523,-5.8523,-5.8523,-5.8523,-5.8523,-5.8523,-5.8732,-5.9176,-5.8732,-5.8732,-5.915,-5.8732,-5.8523,-5.1596,-5.1596,-5.1596,-5.1596,0.0,0.0,0.0,0.0,0.0,0.0,0.0,0.0,0.0,0.0,0.0,0.0,0.0,0.0,-5.5099,0.0,-5.6771,-5.6798,-5.7791,-5.847,-5.8523,-5.8523,-5.8523,-5.8523,-5.8523,-5.8523,-5.8523,-5.8523,-5.8284,-5.7927,-5.8284,-5.7953,-5.6874,-5.7235,-5.7379,-5.7379,-5.7892,-5.7929,-5.759,-5.945,-5.9964,-5.9388,-6.0682,-6.1091,-6.0813,-6.1193,-6.142,-6.142,-6.1344,-6.1344,-6.142,-6.1747,-6.1672,-6.142,-6.1823,-6.1973,-6.1973,-6.1973,-6.1973,-6.1973,-6.1973,-6.1973,-6.1973,-6.1973,-6.1973,-6.1973,-6.1973,-6.1973,-6.1842,-6.1319,-6.1189,-6.1006,-6.0431,-5.9856,-5.949,-5.9437,-5.8967,-5.8575,-5.8575,-5.8549,-5.8523,-5.8523,-5.8523,-5.8523,-5.8523,-5.8523,-5.8523,-5.8523,-5.8523,-5.8523,-5.8523,-5.8523,-5.8523,-5.8523,-5.8523,-5.8523,-5.8523,-5.8523,-5.8523,-5.8523,-5.8523,-5.8523,-5.8575,-5.8523,-5.8523,-5.8575,-5.8523,-5.8523,-5.1596,-5.1596,-5.1596,-5.1596,0.0,0.0,0.0,0.0,0.0,0.0,-5.2223,0.0,0.0,0.0,0.0,0.0,0.0,0.0,-5.5099,-5.6092,-5.6798,-5.6798,-5.7817,-5.8523,-5.8523,-5.8523,-5.8523,-5.8523,-5.8523,-5.8523,-5.8523,-5.8523,-5.8452,-5.831,-5.8452,-5.8096,-5.7163,-5.7523,-5.7595,-5.7379,-5.7584,-5.7827,-5.8171,-5.9099,-5.9763,-6.0201,-6.071,-6.1193,-6.1495,-6.142,-6.1571,-6.1747,-6.1495,-6.142,-6.142,-6.1571,-6.1495,-6.142,-6.1898,-6.1973,-6.1973,-6.1973,-6.1973,-6.1973,-6.1973,-6.1973,-6.1973,-6.1973,-6.1973,-6.1973,-6.1973,-6.1711,-6.1398,-6.1163,-6.0823,-6.0405,-5.9803,-5.9516,-5.9255,-5.8915,-5.8653,-5.8523,-5.8523,-5.8523,-5.8523,-5.8523,-5.8523,-5.8523,-5.8523,-5.8523,-5.8523,-5.8523,-5.8523,-5.8523,-5.8523,-5.8523,-5.8523,-5.8523,-5.8523,-5.8523,-5.8523,-5.8523,-5.8523,-5.8523,-5.8523,-5.8523,-5.8523,-5.8523,-5.8523,-5.8523,-5.8523,-5.8523,-5.1596,-5.1596,-5.1596,0.0,0.0,0.0,0.0,0.0,0.0,0.0,0.0,0.0,0.0,0.0,0.0,0.0,-5.5099,-5.5099,-5.5099,-5.5935,-5.6588,-5.6798,-5.766,-5.8314,-5.8497,-5.8523,-5.8523,-5.8523,-5.8381,-5.8381,-5.8523,-5.8381,-5.8381,-5.8523,-5.8523,-5.8239,-5.7595,-5.7784,-5.7784,-5.7595,-5.7451,-5.7823,-5.8625,-5.9176,-5.9915,-6.0737,-6.0965,-6.1344,-6.1823,-6.1646,-6.1747,-6.1973,-6.1747,-6.1571,-6.1571,-6.1571,-6.1571,-6.1672,-6.1898,-6.1973,-6.1973,-6.1973,-6.1973,-6.1973,-6.1973,-6.1973,-6.1973,-6.1973,-6.1973,-6.1921,-6.1764,-6.1424,-6.1032,-6.0666,-6.0248,-5.9803,-5.9228,-5.9098,-5.8967,-5.8601,-5.8523,-5.8523,-5.8523,-5.8523,-5.8523,-5.8523,-5.8523,-5.8523,-5.8523,-5.8523,-5.8523,-5.8523,-5.8523,-5.8523,-5.8523,-5.8523,-5.8523,-5.8523,-5.8523,-5.8523,-5.8523,-5.8523,-5.8523,-5.8523,-5.8523,-5.8523,-5.8523,-5.8523,-5.8523,-5.8523,-5.8523,-5.8523,-5.1596,-5.1596,0.0,0.0,0.0,0.0,0.0,0.0,0.0,0.0,0.0,-5.2668,-5.3295,0.0,0.0,-5.4994,-5.5099,-5.5099,-5.5099,-5.5569,-5.6118,-5.6745,-5.732,-5.7869,-5.8444,-5.8523,-5.8523,-5.8523,-5.8141,-5.807,-5.8452,-5.8141,-5.807,-5.8523,-5.8523,-5.8284,-5.7927,-5.7927,-5.7927,-5.7927,-5.7595,-5.7969,-5.8997,-6.0008,-6.0575,-6.0737,-6.1597,-6.1747,-6.142,-6.1823,-6.1973,-6.1973,-6.1973,-6.1973,-6.1973,-6.1973,-6.1973,-6.1973,-6.1973,-6.1973,-6.1973,-6.1973,-6.1973,-6.1973,-6.1973,-6.1973,-6.1973,-6.1973,-6.1973,-6.1842,-6.1267,-6.111,-6.0823,-5.9647,-5.9359,-5.9202,-5.8627,-5.8523,-5.8523,-5.8523,-5.8523,-5.8523,-5.8523,-5.8523,-5.8523,-5.8523,-5.8523,-5.8523,-5.8523,-5.8523,-5.8523,-5.8523,-5.8523,-5.8523,-5.8523,-5.8523,-5.8523,-5.8523,-5.8523,-5.8523,-5.8523,-5.8523,-5.8523,-5.8523,-5.8523,-5.8523,-5.8523,-5.8523,-5.8523,-5.8523,-5.8523,-5.8523,-5.1596,0.0,0.0,0.0,0.0,0.0,0.0,0.0,0.0,0.0,0.0,0.0,-5.3295,0.0,0.0,-5.4994,-5.5099,-5.5099,-5.5099,-5.5569,-5.6118,-5.6745,-5.732,-5.7869,-5.8444,-5.8523,-5.8523,-5.8523,-5.8381,-5.8355,-5.8523,-5.8381,-5.8381,-5.8523,-5.8523,-5.8284,-5.7927,-5.8141,-5.8141,-5.7927,-5.7784,-5.8125,-5.8873,-5.9267,-5.9908,-6.0625,-6.1264,-6.1646,-6.1823,-6.1973,-6.1973,-6.1973,-6.1973,-6.1973,-6.1973,-6.1973,-6.1973,-6.1973,-6.1973,-6.1973,-6.1973,-6.1973,-6.1973,-6.1973,-6.1973,-6.1973,-6.1973,-6.1973,-6.1685,-6.1241,-6.064,-6.0195,-5.9803,-5.9437,-5.9072,-5.8732,-5.8549,-5.8523,-5.8523,-5.8523,-5.8523,-5.8523,-5.8523,-5.8523,-5.8523,-5.8523,-5.8523,-5.8523,-5.8523,-5.8523,-5.8523,-5.8523,-5.8523,-5.8523,-5.8523,-5.8523,-5.8523,-5.8523,-5.8523,-5.8523,-5.8523,-5.8523,-5.8523,-5.8523,-5.8523,-5.8523,-5.8523,-5.8523,-5.8523,-5.8523,-5.8523,-5.8523,0.0,0.0,0.0,0.0,0.0,0.0,0.0,0.0,0.0,0.0,0.0,0.0,-5.3295,-5.3844,0.0,-5.4994,-5.5099,-5.5099,-5.5099,-5.5386,-5.5804,-5.6379,-5.6981,-5.7556,-5.8131,-5.8366,-5.8523,-5.8523,-5.8355,-5.8284,-5.8523,-5.8381,-5.8284,-5.8523,-5.8523,-5.8381,-5.8141,-5.8381,-5.8381,-5.8141,-5.7999,-5.818,-5.8713,-5.9153,-5.975,-6.0542,-6.1337,-6.1823,-6.1973,-6.1973,-6.1973,-6.1973,-6.1973,-6.1973,-6.1973,-6.1973,-6.1973,-6.1973,-6.1973,-6.1973,-6.1973,-6.1973,-6.1973,-6.1973,-6.1973,-6.1973,-6.1921,-6.1685,-6.1398,-6.0927,-6.0091,-5.962,-5.9307,-5.9072,-5.8758,-5.8523,-5.8523,-5.8523,-5.8523,-5.8523,-5.8523,-5.8523,-5.8523,-5.8523,-5.8523,-5.8523,-5.8523,-5.8523,-5.8523,-5.8523,-5.8523,-5.8523,-5.8523,-5.8523,-5.8523,-5.8523,-5.8523,-5.8523,-5.8523,-5.8523,-5.8523,-5.8523,-5.8523,-5.8523,-5.8523,-5.8523,-5.8523,-5.8523,-5.8523,-5.8523,-5.8523,-5.8523,0.0,0.0,0.0,0.0,0.0,0.0,0.0,0.0,0.0,0.0,0.0,0.0,-5.3295,-5.3844,-5.4393,-5.4994,-5.5099,-5.5099,-5.5099,-5.5099,-5.5308,-5.5857,-5.6379,-5.6981,-5.7678,-5.8131,-5.8444,-5.8523,-5.8141,-5.8141,-5.8452,-5.8141,-5.8141,-5.8523,-5.8523,-5.8523,-5.8523,-5.8523,-5.8523,-5.8523,-5.8141,-5.8141,-5.8549,-5.9362,-6.0072,-6.0694,-6.1588,-6.1973,-6.1973,-6.1973,-6.1973,-6.1973,-6.1973,-6.1973,-6.1973,-6.1973,-6.1973,-6.1973,-6.1973,-6.1973,-6.1973,-6.1973,-6.1973,-6.1973,-6.1973,-6.1973,-6.1842,-6.1293,-6.1084,-6.0771,-5.9647,-5.9333,-5.915,-5.8627,-5.8523,-5.8523,-5.8523,-5.8523,-5.8523,-5.8523,-5.8523,-5.8523,-5.8523,-5.8523,-5.8523,-5.8523,-5.8523,-5.8523,-5.8523,-5.8523,-5.8523,-5.8523,-5.8523,-5.8523,-5.8523,-5.8523,-5.8523,-5.8523,-5.8523,-5.8523,-5.8523,-5.8523,-5.8523,-5.8523,-5.8523,-5.8523,-5.8523,-5.8523,-5.8523,-5.8523,-5.8523,-5.8523,0.0,0.0,0.0,0.0,0.0,0.0,0.0,0.0,0.0,0.0,0.0,0.0,-5.3295,-5.3844,-5.4393,-5.4994,-5.5099,-5.5099,-5.5099,-5.5099,-5.5308,-5.5857,-5.6013,-5.651,-5.7625,-5.7765,-5.8026,-5.847,-5.8452,-5.8452,-5.8523,-5.8452,-5.8426,-5.8523,-5.8523,-5.8523,-5.8523,-5.8523,-5.8523,-5.8523,-5.8426,-5.8452,-5.8549,-5.9362,-6.0427,-6.1715,-6.1921,-6.1973,-6.1973,-6.1973,-6.1973,-6.1973,-6.1973,-6.1973,-6.1973,-6.1973,-6.1973,-6.1973,-6.1973,-6.1973,-6.1973,-6.1973,-6.1973,-6.1973,-6.1973,-6.1973,-6.1842,-6.1293,-6.0771,-6.0248,-5.9542,-5.9045,-5.8653,-5.8549,-5.8523,-5.8523,-5.8523,-5.8523,-5.8523,-5.8523,-5.8523,-5.8523,-5.8523,-5.8523,-5.8523,-5.8523,-5.8523,-5.8523,-5.8523,-5.8523,-5.8523,-5.8523,-5.8523,-5.8523,-5.8523,-5.8523,-5.8523,-5.8523,-5.8523,-5.8523,-5.8523,-5.8523,-5.8523,-5.8523,-5.8523,-5.8523,-5.8523,-5.8523,-5.8523,-5.8523,-5.8523,-5.8523,0.0,0.0,0.0,0.0,0.0,0.0,0.0,0.0,0.0,0.0,0.0,0.0,0.0,-5.3635,-5.4105,-5.4968,-5.5099,-5.5099,-5.5099,-5.5099,-5.5203,-5.5491,-5.5752,-5.6144,-5.6771,-5.7085,-5.7477,-5.8052,-5.8104,-5.8235,-5.8497,-5.8523,-5.8523,-5.8523,-5.8523,-5.8523,-5.8523,-5.8523,-5.8523,-5.8523,-5.8523,-5.8653,-5.8941,-5.9612,-6.0571,-6.1581,-6.1842,-6.1973,-6.1973,-6.1973,-6.1973,-6.1973,-6.1973,-6.1973,-6.1973,-6.1973,-6.1973,-6.1973,-6.1973,-6.1973,-6.1973,-6.1973,-6.1973,-6.1973,-6.1973,-6.179,-6.145,-6.0849,-6.0274,-5.9673,-5.9098,-5.8732,-5.8523,-5.8523,-5.8523,-5.8523,-5.8523,-5.8523,-5.8523,-5.8523,-5.8523,-5.8523,-5.8523,-5.8523,-5.8523,-5.8523,-5.8523,-5.8523,-5.8523,-5.8523,-5.8523,-5.8523,-5.8523,-5.8523,-5.8523,-5.8523,-5.8523,-5.8523,-5.8523,-5.8523,-5.8523,-5.8523,-5.8523,-5.8523,-5.8523,-5.8523,-5.8523,-5.8523,-5.8523,-5.8523,-5.8523,-5.8523,0.0,0.0,0.0,0.0,0.0,0.0,0.0,0.0,0.0,0.0,0.0,0.0,0.0,-5.34,-5.3766,-5.4916,-5.5099,-5.5099,-5.5099,-5.5099,-5.5099,-5.5099,-5.5491,-5.5804,-5.5909,-5.6353,-5.6876,-5.7477,-5.7678,-5.7869,-5.834,-5.847,-5.8523,-5.8523,-5.8523,-5.8523,-5.8523,-5.8523,-5.8523,-5.8523,-5.8523,-5.8758,-5.9255,-5.9908,-6.0561,-6.1136,-6.1738,-6.1973,-6.1973,-6.1973,-6.1973,-6.1973,-6.1973,-6.1973,-6.1973,-6.1973,-6.1973,-6.1973,-6.1973,-6.1973,-6.1973,-6.1973,-6.1973,-6.1947,-6.1868,-6.1502,-6.098,-6.0274,-5.9725,-5.9228,-5.8653,-5.8523,-5.8523,-5.8523,-5.8523,-5.8523,-5.8523,-5.8523,-5.8523,-5.8523,-5.8523,-5.8523,-5.8523,-5.8523,-5.8523,-5.8523,-5.8523,-5.8523,-5.8523,-5.8523,-5.8523,-5.8523,-5.8523,-5.8523,-5.8523,-5.8523,-5.8523,-5.8523,-5.8523,-5.8523,-5.8523,-5.8523,-5.8523,-5.8523,-5.8523,-5.8523,-5.8523,-5.8523,-5.8523,-5.8523,-5.8523,-5.8523,0.0,0.0,0.0,0.0,0.0,0.0,0.0,0.0,0.0,0.0,0.0,0.0,0.0,-5.34,-5.3766,-5.4916,-5.5099,-5.5099,-5.5099,-5.5099,-5.5099,-5.5099,-5.5177,-5.5386,-5.5857,-5.5987,-5.6275,-5.6876,-5.7373,-5.7756,-5.7765,-5.8235,-5.8523,-5.8523,-5.8523,-5.8523,-5.8523,-5.8523,-5.8523,-5.8523,-5.8523,-5.8549,-5.8653,-5.9725,-6.0561,-6.1136,-6.1738,-6.1973,-6.1973,-6.1973,-6.1973,-6.1973,-6.1973,-6.1973,-6.1973,-6.1973,-6.1973,-6.1973,-6.1973,-6.1973,-6.1973,-6.1973,-6.1973,-6.1868,-6.1398,-6.1189,-6.0901,-5.9803,-5.9437,-5.9228,-5.8653,-5.8523,-5.8523,-5.8523,-5.8523,-5.8523,-5.8523,-5.8523,-5.8523,-5.8523,-5.8523,-5.8523,-5.8523,-5.8523,-5.8523,-5.8523,-5.8523,-5.8523,-5.8523,-5.8523,-5.8523,-5.8523,-5.8523,-5.8523,-5.8523,-5.8523,-5.8523,-5.8523,-5.8523,-5.8523,-5.8523,-5.8523,-5.8523,-5.8523,-5.8523,-5.8523,-5.8523,-5.8523,-5.8523,-5.8523,-5.8523,-5.8523,0.0,0.0,0.0,0.0,0.0,0.0,0.0,0.0,0.0,0.0,0.0,0.0,0.0,-5.3164,-5.3661,-5.4471,-5.4889,-5.5099,-5.5099,-5.5099,-5.5099,-5.5099,-5.5099,-5.5203,-5.5438,-5.5465,-5.57,-5.6249,-5.6536,-5.6824,-5.7163,-5.7739,-5.8026,-5.8026,-5.834,-5.8523,-5.8523,-5.8523,-5.8523,-5.8523,-5.8523,-5.8523,-5.8549,-5.9699,-6.0352,-6.0666,-6.1581,-6.1973,-6.1973,-6.1973,-6.1973,-6.1973,-6.1973,-6.1973,-6.1973,-6.1973,-6.1973,-6.1973,-6.1973,-6.1973,-6.1973,-6.1973,-6.1973,-6.1868,-6.1293,-6.0875,-6.0431,-5.9594,-5.915,-5.8836,-5.8575,-5.8523,-5.8523,-5.8523,-5.8523,-5.8523,-5.8523,-5.8523,-5.8523,-5.8523,-5.8523,-5.8523,-5.8523,-5.8523,-5.8523,-5.8523,-5.8523,-5.8523,-5.8523,-5.8523,-5.8523,-5.8523,-5.8523,-5.8523,-5.8523,-5.8523,-5.8523,-5.8523,-5.8523,-5.8523,-5.8523,-5.8523,-5.8523,-5.8523,-5.8523,-5.8523,-5.8523,-5.8523,-5.8523,-5.8523,-5.8523,-5.8523,0.0,0.0,0.0,0.0,0.0,0.0,0.0,0.0,0.0,0.0,0.0,0.0,0.0,-5.2746,-5.34,-5.4079,-5.4576,-5.4916,-5.5072,-5.5099,-5.5099,-5.5099,-5.5099,-5.5099,-5.5099,-5.5099,-5.5282,-5.5674,-5.583,-5.6118,-5.6562,-5.7137,-5.7503,-5.773,-5.8078,-5.8366,-5.8523,-5.8523,-5.8523,-5.8523,-5.8523,-5.8523,-5.8549,-5.9699,-6.0222,-6.0274,-6.1476,-6.1973,-6.1973,-6.1973,-6.1973,-6.1973,-6.1973,-6.1973,-6.1973,-6.1973,-6.1973,-6.1973,-6.1973,-6.1973,-6.1973,-6.1973,-6.1868,-6.1659,-6.1058,-6.0483,-5.9882,-5.9307,-5.8836,-5.8523,-5.8523,-5.8523,-5.8523,-5.8523,-5.8523,-5.8523,-5.8523,-5.8523,-5.8523,-5.8523,-5.8523,-5.8523,-5.8523,-5.8523,-5.8523,-5.8523,-5.8523,-5.8523,-5.8523,-5.8523,-5.8523,-5.8523,-5.8523,-5.8523,-5.8523,-5.8523,-5.8523,-5.8523,-5.8523,-5.8523,-5.8523,-5.8523,-5.8523,-5.8523,-5.8523,-5.8523,-5.8523,-5.8523,-5.8523,-5.8523,-5.8523,-5.8523,0.0,0.0,0.0,0.0,0.0,0.0,0.0,0.0,0.0,0.0,0.0,0.0,0.0,-5.2145,-5.2903,-5.4027,-5.4236,-5.4445,-5.502,-5.5099,-5.5099,-5.5099,-5.5099,-5.5099,-5.5099,-5.5099,-5.5125,-5.5151,-5.5621,-5.5935,-5.5961,-5.6536,-5.7111,-5.7704,-5.7756,-5.7974,-5.8497,-5.8523,-5.8523,-5.8523,-5.8523,-5.8523,-5.8549,-5.9699,-6.0222,-6.0274,-6.1476,-6.1973,-6.1973,-6.1973,-6.1973,-6.1973,-6.1973,-6.1973,-6.1973,-6.1973,-6.1973,-6.1973,-6.1973,-6.1973,-6.1973,-6.1973,-6.1607,-6.1058,-6.0457,-5.9856,-5.9307,-5.8732,-5.8523,-5.8523,-5.8523,-5.8523,-5.8523,-5.8523,-5.8523,-5.8523,-5.8523,-5.8523,-5.8523,-5.8523,-5.8523,-5.8523,-5.8523,-5.8523,-5.8523,-5.8523,-5.8523,-5.8523,-5.8523,-5.8523,-5.8523,-5.8523,-5.8523,-5.8523,-5.8523,-5.8523,-5.8523,-5.8523,-5.8523,-5.8523,-5.8523,-5.8523,-5.8523,-5.8523,-5.8523,-5.8523,-5.8523,-5.8523,-5.8523,-5.8523,-5.8523,-5.8523,0.0,0.0,0.0,0.0,0.0,0.0,0.0,0.0,0.0,0.0,0.0,0.0,0.0,0.0,-5.2642,-5.3034,-5.3713,-5.4288,-5.4497,-5.4863,-5.5099,-5.5099,-5.5099,-5.5099,-5.5099,-5.5099,-5.5099,-5.5099,-5.5282,-5.5386,-5.5386,-5.5935,-5.6327,-5.6536,-5.7268,-5.7921,-5.8497,-5.8523,-5.8523,-5.8523,-5.8523,-5.8523,-5.8549,-5.9699,-6.0222,-6.0274,-6.1476,-6.1973,-6.1973,-6.1973,-6.1973,-6.1973,-6.1973,-6.1973,-6.1973,-6.1973,-6.1973,-6.1973,-6.1973,-6.1973,-6.1921,-6.1555,-6.1293,-6.0927,-5.996,-5.9516,-5.9255,-5.8679,-5.8523,-5.8523,-5.8523,-5.8523,-5.8523,-5.8523,-5.8523,-5.8523,-5.8523,-5.8523,-5.8523,-5.8523,-5.8523,-5.8523,-5.8523,-5.8523,-5.8523,-5.8523,-5.8523,-5.8523,-5.8523,-5.8523,-5.8523,-5.8523,-5.8523,-5.8523,-5.8523,-5.8523,-5.8523,-5.8523,-5.8523,-5.8523,-5.8523,-5.8523,-5.8523,-5.8523,-5.8523,-5.8523,-5.8523,-5.8523,-5.8523,-5.8523,-5.8523,-5.8523,0.0,0.0,0.0,0.0,0.0,0.0,0.0,0.0,0.0,0.0,0.0,0.0,0.0,0.0,-5.225,-5.2459,-5.3138,-5.3766,-5.4158,-5.455,-5.4863,-5.5072,-5.5099,-5.5099,-5.5099,-5.5099,-5.5099,-5.5099,-5.5099,-5.5099,-5.5099,-5.5438,-5.5726,-5.5909,-5.685,-5.766,-5.8235,-5.8235,-5.8314,-5.8523,-5.8523,-5.8523,-5.8549,-5.9699,-6.0222,-6.0274,-6.1476,-6.1973,-6.1973,-6.1973,-6.1973,-6.1973,-6.1973,-6.1973,-6.1973,-6.1973,-6.1973,-6.1973,-6.1973,-6.1842,-6.1633,-6.1241,-6.0849,-6.0378,-5.9594,-5.9228,-5.8993,-5.8627,-5.8523,-5.8523,-5.8523,-5.8523,-5.8523,-5.8523,-5.8523,-5.8523,-5.8523,-5.8523,-5.8523,-5.8523,-5.8523,-5.8523,-5.8523,-5.8523,-5.8523,-5.8523,-5.8523,-5.8523,-5.8523,-5.8523,-5.8523,-5.8523,-5.8523,-5.8523,-5.8523,-5.8523,-5.8523,-5.8523,-5.8523,-5.8523,-5.8523,-5.8523,-5.8523,-5.8523,-5.8523,-5.8523,-5.8523,-5.8523,-5.8523,-5.8523,-5.8523,-5.8523,0.0,0.0,0.0,0.0,0.0,0.0,0.0,0.0,0.0,0.0,0.0,0.0,0.0,0.0,0.0,-5.238,-5.2485,-5.2877,-5.4001,-5.4158,-5.4393,-5.4994,-5.5072,-5.5072,-5.5099,-5.5099,-5.5099,-5.5099,-5.5099,-5.5099,-5.5099,-5.5099,-5.536,-5.5883,-5.6484,-5.7059,-5.7704,-5.773,-5.7948,-5.8497,-5.8497,-5.8523,-5.8549,-5.9699,-6.0222,-6.0274,-6.1476,-6.1973,-6.1973,-6.1973,-6.1973,-6.1973,-6.1973,-6.1973,-6.1973,-6.1973,-6.1973,-6.1973,-6.1947,-6.1581,-6.111,-6.1084,-6.03,-5.9359,-5.9333,-5.8941,-5.8523,-5.8523,-5.8523,-5.8523,-5.8523,-5.8523,-5.8523,-5.8523,-5.8523,-5.8523,-5.8523,-5.8523,-5.8523,-5.8523,-5.8523,-5.8523,-5.8523,-5.8523,-5.8523,-5.8523,-5.8523,-5.8523,-5.8523,-5.8523,-5.8523,-5.8523,-5.8523,-5.8523,-5.8523,-5.8523,-5.8523,-5.8523,-5.8523,-5.8523,-5.8523,-5.8523,-5.8523,-5.8523,-5.8523,-5.8523,-5.8523,-5.8523,-5.8523,-5.8523,-5.8523,-5.8523,-4.8172,0.0,0.0,0.0,0.0,0.0,-5.0002,-5.0603,0.0,0.0,0.0,0.0,0.0,0.0,0.0,0.0,-5.2223,-5.2616,-5.2929,-5.3347,-5.3818,-5.4393,-5.4445,-5.4628,-5.5072,-5.5099,-5.5099,-5.5099,-5.5099,-5.5099,-5.5099,-5.5099,-5.536,-5.5883,-5.6066,-5.6432,-5.7033,-5.7451,-5.7739,-5.7895,-5.8314,-5.8523,-5.8549,-5.9699,-6.0222,-6.0274,-6.1476,-6.1973,-6.1973,-6.1973,-6.1973,-6.1973,-6.1973,-6.1973,-6.1973,-6.1973,-6.1973,-6.1921,-6.1502,-6.1241,-6.098,-6.0117,-5.962,-5.9281,-5.8862,-5.8627,-5.8523,-5.8523,-5.8523,-5.8523,-5.8523,-5.8523,-5.8523,-5.8523,-5.8523,-5.8523,-5.8523,-5.8523,-5.8523,-5.8523,-5.8523,-5.8523,-5.8523,-5.8523,-5.8523,-5.8523,-5.8523,-5.8523,-5.8523,-5.8523,-5.8523,-5.8523,-5.8523,-5.8523,-5.8523,-5.8523,-5.8523,-5.8523,-5.8523,-5.8523,-5.8523,-5.8523,-5.8523,-5.8523,-5.8523,-5.8523,-5.8523,-5.8523,-5.8523,-5.8523,-5.8523,-5.8523,-4.8172,-4.8172,-4.8172,-4.8172,0.0,0.0,-4.9766,-5.0368,-5.0943,0.0,0.0,0.0,0.0,0.0,0.0,0.0,-5.1884,-5.2197,-5.2459,-5.2798,-5.3243,-5.3792,-5.4053,-5.4341,-5.468,-5.4968,-5.5099,-5.5099,-5.5099,-5.5099,-5.5099,-5.5099,-5.5255,-5.5569,-5.5569,-5.5857,-5.6432,-5.6771,-5.7163,-5.773,-5.8,-5.8287,-5.8549,-5.9699,-6.0222,-6.0274,-6.1476,-6.1973,-6.1973,-6.1973,-6.1973,-6.1973,-6.1973,-6.1973,-6.1973,-6.1973,-6.1973,-6.1894,-6.1319,-6.0953,-6.0588,-5.9673,-5.9202,-5.8941,-5.8627,-5.8523,-5.8523,-5.8523,-5.8523,-5.8523,-5.8523,-5.8523,-5.8523,-5.8523,-5.8523,-5.8523,-5.8523,-5.8523,-5.8523,-5.8523,-5.8523,-5.8523,-5.8523,-5.8523,-5.8523,-5.8523,-5.8523,-5.8523,-5.8523,-5.8523,-5.8523,-5.8523,-5.8523,-5.8523,-5.8523,-5.8523,-5.8523,-5.8523,-5.8523,-5.8523,-5.8523,-5.8523,-5.8523,-5.8523,-5.8523,-5.8523,-5.8523,-5.8523,-5.8523,-5.8523,-5.8523,-5.8523,-4.8172,-4.8172,-4.8172,-4.8172,-4.859,0.0,-4.9688,-5.0263,-5.0838,0.0,0.0,0.0,0.0,0.0,0.0,0.0,0.0,-5.1779,-5.2328,-5.2406,-5.2616,-5.3217,-5.3713,-5.4053,-5.4184,-5.468,-5.502,-5.5099,-5.5099,-5.5099,-5.5099,-5.5099,-5.5099,-5.5099,-5.5099,-5.5334,-5.5804,-5.5883,-5.6458,-5.7625,-5.7704,-5.7948,-5.8549,-5.9699,-6.0222,-6.0274,-6.1476,-6.1973,-6.1973,-6.1973,-6.1973,-6.1973,-6.1973,-6.1973,-6.1973,-6.1973,-6.1921,-6.179,-6.1215,-6.064,-6.0039,-5.9464,-5.8941,-5.8523,-5.8523,-5.8523,-5.8523,-5.8523,-5.8523,-5.8523,-5.8523,-5.8523,-5.8523,-5.8523,-5.8523,-5.8523,-5.8523,-5.8523,-5.8523,-5.8523,-5.8523,-5.8523,-5.8523,-5.8523,-5.8523,-5.8523,-5.8523,-5.8523,-5.8523,-5.8523,-5.8523,-5.8523,-5.8523,-5.8523,-5.8523,-5.8523,-5.8523,-5.8523,-5.8523,-5.8523,-5.8523,-5.8523,-5.8523,-5.8523,-5.8523,-5.8523,-5.8523,-5.8523,-5.8523,-5.8523,-5.8523,-5.8523,-4.8172,-4.8172,-4.8172,-4.8172,-4.8277,0.0,-4.9113,-4.9662,-5.0237,0.0,0.0,0.0,0.0,0.0,0.0,0.0,0.0,-5.1648,-5.1753,-5.1779,-5.1988,-5.2589,-5.2772,-5.3191,-5.4105,-5.4314,-5.4576,-5.5072,-5.5099,-5.5099,-5.5099,-5.5099,-5.5099,-5.5099,-5.5099,-5.5151,-5.5255,-5.57,-5.6275,-5.6981,-5.7451,-5.7948,-5.8549,-5.9699,-6.0222,-6.0274,-6.1476,-6.1973,-6.1973,-6.1973,-6.1973,-6.1973,-6.1973,-6.1973,-6.1973,-6.1973,-6.1685,-6.1189,-6.0588,-6.0013,-5.9437,-5.8862,-5.8601,-5.8523,-5.8523,-5.8523,-5.8523,-5.8523,-5.8523,-5.8523,-5.8523,-5.8523,-5.8523,-5.8523,-5.8523,-5.8523,-5.8523,-5.8523,-5.8523,-5.8523,-5.8523,-5.8523,-5.8523,-5.8523,-5.8523,-5.8523,-5.8523,-5.8523,-5.8523,-5.8523,-5.8523,-5.8523,-5.8523,-5.8523,-5.8523,-5.8523,-5.8523,-5.8523,-5.8523,-5.8523,-5.8523,-5.8523,-5.8523,-5.8523,-5.8523,-5.8523,-5.8523,-5.8523,-5.8523,-5.8523,-5.8523,-5.8523,-4.8172,-4.8172,-4.8172,-4.8172,-4.8172,0.0,0.0,-4.9505,-5.0054,0.0,0.0,0.0,0.0,0.0,0.0,0.0,0.0,-5.1596,-5.1596,-5.1596,-5.1701,-5.2014,-5.2328,-5.272,-5.3295,-5.3609,-5.4053,-5.4602,-5.4942,-5.5099,-5.5099,-5.5099,-5.5099,-5.5099,-5.5099,-5.5099,-5.5099,-5.536,-5.5804,-5.6379,-5.6954,-5.7529,-5.8131,-5.9568,-6.0222,-6.0274,-6.1476,-6.1973,-6.1973,-6.1973,-6.1973,-6.1973,-6.1973,-6.1973,-6.1921,-6.1659,-6.1372,-6.1006,-6.0091,-5.9594,-5.9281,-5.8706,-5.8523,-5.8523,-5.8523,-5.8523,-5.8523,-5.8523,-5.8523,-5.8523,-5.8523,-5.8523,-5.8523,-5.8523,-5.8523,-5.8523,-5.8523,-5.8523,-5.8523,-5.8523,-5.8523,-5.8523,-5.8523,-5.8523,-5.8523,-5.8523,-5.8523,-5.8523,-5.8523,-5.8523,-5.8523,-5.8523,-5.8523,-5.8523,-5.8523,-5.8523,-5.8523,-5.8523,-5.8523,-5.8523,-5.8523,-5.8523,-5.8523,-5.8523,-5.8523,-5.8523,-5.8523,-5.8523,-5.8523,-5.8523,-5.8523,-5.8523,-4.8172,-4.8172,-4.8172,-4.8172,-4.8172,-4.8355,0.0,0.0,0.0,-5.0655,0.0,0.0,0.0,0.0,0.0,0.0,0.0,0.0,0.0,-5.1518,0.0,-5.1596,-5.2014,-5.238,-5.2485,-5.3034,-5.3609,-5.4158,-5.4654,-5.4968,-5.5099,-5.5099,-5.5099,-5.5099,-5.5099,-5.5099,-5.5099,-5.5099,-5.536,-5.5909,-5.651,-5.7111,-5.7782,-5.9437,-6.0222,-6.0274,-6.1476,-6.1973,-6.1973,-6.1973,-6.1973,-6.1973,-6.1973,-6.1894,-6.1764,-6.1293,-6.098,-6.064,-5.9699,-5.9281,-5.9124,-5.8653,-5.8523,-5.8523,-5.8523,-5.8523,-5.8523,-5.8523,-5.8523,-5.8523,-5.8523,-5.8523,-5.8523,-5.8523,-5.8523,-5.8523,-5.8523,-5.8523,-5.8523,-5.8523,-5.8523,-5.8523,-5.8523,-5.8523,-5.8523,-5.8523,-5.8523,-5.8523,-5.8523,-5.8523,-5.8523,-5.8523,-5.8523,-5.8523,-5.8523,-5.8523,-5.8523,-5.8523,-5.8523,-5.8523,-5.8523,-5.8523,-5.8523,-5.8523,-5.8523,-5.8523,-5.8523,-5.8523,-5.8523,-5.8523,-5.8523,-5.8523,-4.8172,-4.8172,-4.8172,-4.8172,-4.8172,-4.8355,-4.8956,0.0,-5.0054,-5.0655,0.0,0.0,0.0,0.0,0.0,0.0,0.0,0.0,-5.0943,-5.1282,-5.1596,-5.1596,-5.1648,-5.191,-5.2433,-5.3034,-5.3609,-5.4158,-5.4262,-5.455,-5.5072,-5.5099,-5.5099,-5.5099,-5.5099,-5.5099,-5.5099,-5.5099,-5.536,-5.5909,-5.651,-5.7111,-5.7782,-5.9437,-6.0222,-6.0274,-6.1476,-6.1973,-6.1973,-6.1973,-6.1973,-6.1973,-6.1973,-6.1659,-6.1215,-6.1136,-6.0457,-5.9542,-5.9411,-5.9045,-5.8601,-5.8523,-5.8523,-5.8523,-5.8523,-5.8523,-5.8523,-5.8523,-5.8523,-5.8523,-5.8523,-5.8523,-5.8523,-5.8523,-5.8523,-5.8523,-5.8523,-5.8523,-5.8523,-5.8523,-5.8523,-5.8523,-5.8523,-5.8523,-5.8523,-5.8523,-5.8523,-5.8523,-5.8523,-5.8523,-5.8523,-5.8523,-5.8523,-5.8523,-5.8523,-5.8523,-5.8523,-5.8523,-5.8523,-5.8523,-5.8523,-5.8523,-5.8523,-5.8523,-5.8523,-5.8523,-5.8523,-5.8523,-5.8523,-5.8523,-5.8523,-5.8523,-4.8616,-4.8695,-4.8773,-4.9087,-4.9165,-4.9244,-4.9505,-5.0002,-5.0472,-5.0734,0.0,0.0,0.0,0.0,0.0,0.0,-5.1439,-5.1518,0.0,0.0,-5.1596,0.0,0.0,0.0,-5.1936,-5.2511,-5.3112,-5.3687,-5.4027,-5.4471,-5.5072,-5.5099,-5.5099,-5.5099,-5.5099,-5.5099,-5.5099,-5.5099,-5.5229,-5.5438,-5.6013,-5.6588,-5.7216,-5.8941,-5.9908,-6.0274,-6.1476,-6.1973,-6.1973,-6.1973,-6.1764,-6.1476,-6.1476,-6.1319,-6.1032,-6.0352,-5.9777,-5.9307,-5.8993,-5.8706,-5.8523,-5.8523,-5.8523,-5.8523,-5.8523,-5.8523,-5.8523,-5.8523,-5.8523,-5.8523,-5.8523,-5.8523,-5.8523,-5.8523,-5.8523,-5.8523,-5.8523,-5.8523,-5.8523,-5.8523,-5.8523,-5.8523,-5.8523,-5.8523,-5.8523,-5.8523,-5.8523,-5.8523,-5.8523,-5.8523,-5.8523,-5.8523,-5.8523,-5.8653,-5.8967,-5.8993,-5.915,-5.949,-5.9516,-5.9516,-5.9516,-5.9516,-5.9359,-5.9019,-5.8993,-5.8836,-5.8523,-5.8523,-5.8523,-5.8523,-5.8523,-5.8523,-4.9191,-4.9296,-4.9401,-4.9793,-4.9897,-4.9923,-5.0106,-5.0472,-5.0838,-5.0969,-5.1335,0.0,0.0,0.0,-5.1544,-5.1387,0.0,-5.1544,0.0,-5.1518,0.0,0.0,-5.1596,0.0,0.0,-5.1988,-5.2485,-5.3112,-5.3661,-5.4236,-5.4811,-5.502,-5.5099,-5.5099,-5.5099,-5.5099,-5.5099,-5.5099,-5.5099,-5.5125,-5.5647,-5.6301,-5.7085,-5.8653,-5.9777,-6.0509,-6.1529,-6.1973,-6.1973,-6.1973,-6.1633,-6.111,-6.0953,-6.0771,-6.0535,-5.9673,-5.9281,-5.9072,-5.8653,-5.8523,-5.8523,-5.8523,-5.8523,-5.8523,-5.8523,-5.8523,-5.8523,-5.8523,-5.8523,-5.8523,-5.8523,-5.8523,-5.8523,-5.8523,-5.8523,-5.8523,-5.8523,-5.8523,-5.8523,-5.8523,-5.8523,-5.8523,-5.8523,-5.8523,-5.8523,-5.8523,-5.8523,-5.8523,-5.8523,-5.8523,-5.8575,-5.8732,-5.8758,-5.8967,-5.9542,-5.9594,-5.9777,-6.0195,-6.0222,-6.0222,-6.0222,-6.0222,-6.0013,-5.9594,-5.9594,-5.9385,-5.8993,-5.8993,-5.8993,-5.8967,-5.8653,-5.8523,-4.9871,-4.9871,-4.9871,-4.9897,-4.9897,-5.0054,-5.0629,-5.0786,-5.0943,-5.1465,-5.1596,-5.1596,-5.1596,-5.1596,-5.1413,-5.089,-5.1256,0.0,0.0,0.0,0.0,-5.1596,-5.1596,-5.1596,0.0,-5.1622,-5.1884,-5.2485,-5.3086,-5.3661,-5.421,-5.4785,-5.5099,-5.5099,-5.5099,-5.5099,-5.5099,-5.5099,-5.5099,-5.5125,-5.5647,-5.651,-5.773,-5.8908,-5.9986,-6.1136,-6.1711,-6.1973,-6.1973,-6.1973,-6.1633,-6.1058,-6.0483,-5.9908,-5.9411,-5.9385,-5.9019,-5.8549,-5.8523,-5.8523,-5.8523,-5.8523,-5.8523,-5.8523,-5.8523,-5.8523,-5.8523,-5.8523,-5.8523,-5.8523,-5.8523,-5.8523,-5.8523,-5.8523,-5.8523,-5.8523,-5.8523,-5.8523,-5.8523,-5.8523,-5.8523,-5.8523,-5.8523,-5.8523,-5.8523,-5.8523,-5.8523,-5.8523,-5.8523,-5.8523,-5.8732,-5.9281,-5.9333,-5.9568,-6.0143,-6.0195,-6.0195,-6.0222,-6.0222,-6.0222,-6.0222,-6.0222,-6.0222,-6.0195,-6.0195,-6.0195,-6.0169,-6.0169,-6.0169,-6.0143,-5.9019,-5.8523,-5.0368,-5.0498,-5.0577,-5.0943,-5.1021,-5.1073,-5.1282,-5.1335,-5.1361,-5.157,-5.1596,-5.1596,-5.1596,-5.1596,-5.1544,-5.1361,-5.1465,-5.1544,0.0,-5.1492,-5.1596,-5.1596,-5.1596,-5.1596,0.0,0.0,0.0,0.0,-5.2694,-5.3217,-5.4158,-5.4393,-5.468,-5.5099,-5.5099,-5.5099,-5.5099,-5.5099,-5.5099,-5.5099,-5.5282,-5.617,-5.7756,-5.8444,-5.9647,-6.1136,-6.1738,-6.1973,-6.1947,-6.1555,-6.1058,-6.0457,-5.9882,-5.9307,-5.881,-5.881,-5.8679,-5.8523,-5.8523,-5.8523,-5.8523,-5.8523,-5.8523,-5.8523,-5.8523,-5.8523,-5.8523,-5.8523,-5.8523,-5.8523,-5.8523,-5.8523,-5.8523,-5.8523,-5.8523,-5.8523,-5.8523,-5.8523,-5.8523,-5.8523,-5.8523,-5.8523,-5.8523,-5.8523,-5.8523,-5.8523,-5.8523,-5.8653,-5.9019,-5.9072,-5.9307,-5.9856,-5.9934,-6.0169,-6.0771,-6.1163,-6.1372,-6.1372,-6.1372,-6.1372,-6.1372,-6.1372,-6.1189,-6.0823,-6.0823,-6.0614,-6.0222,-6.0222,-6.0222,-6.0222,-5.983,-5.9437,-5.0969,-5.1073,-5.1152,-5.1518,-5.1596,-5.1596,-5.1596,-5.1596,-5.1596,-5.1596,-5.1596,-5.1596,-5.1596,-5.1596,-5.1596,-5.1596,-5.1596,-5.1596,0.0,-5.1596,-5.1596,-5.1596,-5.1596,-5.1596,0.0,0.0,0.0,0.0,0.0,0.0,0.0,-5.4105,-5.4471,-5.5072,-5.5099,-5.5099,-5.5099,-5.5099,-5.5099,-5.5099,-5.5099,-5.6118,-5.7974,-5.834,-5.9568,-6.145,-6.1816,-6.1868,-6.1633,-6.1267,-6.064,-5.9882,-5.9516,-5.9019,-5.8523,-5.8523,-5.8523,-5.8523,-5.8523,-5.8523,-5.8523,-5.8523,-5.8523,-5.8523,-5.8523,-5.8523,-5.8523,-5.8523,-5.8523,-5.8523,-5.8523,-5.8523,-5.8523,-5.8523,-5.8523,-5.8523,-5.8523,-5.8523,-5.8523,-5.8523,-5.8523,-5.8523,-5.8523,-5.8679,-5.881,-5.881,-5.881,-5.9019,-5.9594,-5.9673,-5.9882,-6.0483,-6.0535,-6.0771,-6.1372,-6.1764,-6.1973,-6.1973,-6.1973,-6.1973,-6.1973,-6.1973,-6.1711,-6.1136,-6.1319,-6.1136,-6.0535,-6.0744,-6.0849,-6.0823,-6.064,-6.0326]}]]